Wetterdaten: Samstag, 31.10.2015
Datum Zeit Temp. A. Feuchte A. Luftdruck Regen Wind Richtung Richtung Sonnenschein ET UV Solar Taupunkt Windchill Windben Empfang
31.10.2015 00:00 8,7 C 91 % 1028,5 hPa 0,0 l/m 12,5 km/h (3 Bft) O-NO 78 0 min 0,000 mm 0,0 UV-I 0 W/m 7,3 C 4,8 C 24,1 km/h (4 Bft) 100,00 %
31.10.2015 00:01 8,7 C 91 % 1028,5 hPa 0,0 l/m 13,0 km/h (3 Bft) O 90 0 min 0,000 mm 0,0 UV-I 0 W/m 7,3 C 4,5 C 20,9 km/h (4 Bft) 100,00 %
31.10.2015 00:02 8,7 C 91 % 1028,5 hPa 0,0 l/m 13,8 km/h (3 Bft) O-SO 107 0 min 0,000 mm 0,0 UV-I 0 W/m 7,3 C 4,1 C 25,7 km/h (4 Bft) 100,00 %
31.10.2015 00:03 8,7 C 91 % 1028,5 hPa 0,0 l/m 10,5 km/h (2 Bft) O 99 0 min 0,000 mm 0,0 UV-I 0 W/m 7,3 C 5,9 C 14,5 km/h (3 Bft) 100,00 %
31.10.2015 00:04 8,7 C 91 % 1028,5 hPa 0,0 l/m 13,1 km/h (3 Bft) O 80 0 min 0,000 mm 0,0 UV-I 0 W/m 7,3 C 4,5 C 20,9 km/h (4 Bft) 100,00 %
31.10.2015 00:05 8,7 C 91 % 1028,5 hPa 0,0 l/m 11,6 km/h (2 Bft) O-NO 57 0 min 0,000 mm 0,0 UV-I 0 W/m 7,3 C 5,2 C 16,1 km/h (3 Bft) 100,00 %
31.10.2015 00:06 8,7 C 91 % 1028,4 hPa 0,0 l/m 14,8 km/h (3 Bft) O-NO 59 0 min 0,000 mm 0,0 UV-I 0 W/m 7,3 C 3,6 C 20,9 km/h (4 Bft) 100,00 %
31.10.2015 00:07 8,7 C 91 % 1028,4 hPa 0,0 l/m 13,8 km/h (3 Bft) SO 131 0 min 0,000 mm 0,0 UV-I 0 W/m 7,3 C 4,1 C 25,7 km/h (4 Bft) 96,15 %
31.10.2015 00:08 8,6 C 91 % 1028,4 hPa 0,0 l/m 12,0 km/h (2 Bft) O 80 0 min 0,000 mm 0,0 UV-I 0 W/m 7,2 C 4,9 C 19,3 km/h (3 Bft) 100,00 %
31.10.2015 00:09 8,6 C 90 % 1028,4 hPa 0,0 l/m 14,1 km/h (3 Bft) O-NO 70 0 min 0,000 mm 0,0 UV-I 0 W/m 7,1 C 3,8 C 22,5 km/h (4 Bft) 100,00 %
31.10.2015 00:10 8,6 C 90 % 1028,4 hPa 0,0 l/m 13,4 km/h (3 Bft) O-NO 63 0 min 0,000 mm 0,0 UV-I 0 W/m 7,1 C 4,2 C 19,3 km/h (3 Bft) 100,00 %
31.10.2015 00:11 8,6 C 91 % 1028,4 hPa 0,0 l/m 14,0 km/h (3 Bft) O 96 0 min 0,000 mm 0,0 UV-I 0 W/m 7,2 C 3,9 C 20,9 km/h (4 Bft) 100,00 %
31.10.2015 00:12 8,6 C 91 % 1028,4 hPa 0,0 l/m 10,6 km/h (2 Bft) O-SO 103 0 min 0,000 mm 0,0 UV-I 0 W/m 7,2 C 5,7 C 14,5 km/h (3 Bft) 95,83 %
31.10.2015 00:13 8,6 C 91 % 1028,4 hPa 0,0 l/m 13,5 km/h (3 Bft) O-SO 107 0 min 0,000 mm 0,0 UV-I 0 W/m 7,2 C 4,1 C 20,9 km/h (4 Bft) 100,00 %
31.10.2015 00:14 8,6 C 91 % 1028,4 hPa 0,0 l/m 14,1 km/h (3 Bft) SO 134 0 min 0,000 mm 0,0 UV-I 0 W/m 7,2 C 3,8 C 19,3 km/h (3 Bft) 97,37 %
31.10.2015 00:15 8,6 C 91 % 1028,4 hPa 0,0 l/m 14,3 km/h (3 Bft) O 95 0 min 0,000 mm 0,0 UV-I 0 W/m 7,2 C 3,8 C 22,5 km/h (4 Bft) 100,00 %
31.10.2015 00:16 8,6 C 91 % 1028,4 hPa 0,0 l/m 13,1 km/h (3 Bft) O 84 0 min 0,000 mm 0,0 UV-I 0 W/m 7,2 C 4,3 C 19,3 km/h (3 Bft) 95,65 %
31.10.2015 00:17 8,6 C 91 % 1028,4 hPa 0,0 l/m 14,4 km/h (3 Bft) O-NO 75 0 min 0,000 mm 0,0 UV-I 0 W/m 7,2 C 3,7 C 20,9 km/h (4 Bft) 100,00 %
31.10.2015 00:18 8,6 C 91 % 1028,4 hPa 0,0 l/m 17,6 km/h (3 Bft) O-NO 65 0 min 0,000 mm 0,0 UV-I 0 W/m 7,2 C 2,4 C 22,5 km/h (4 Bft) 95,65 %
31.10.2015 00:19 8,6 C 90 % 1028,4 hPa 0,0 l/m 11,0 km/h (2 Bft) O-NO 75 0 min 0,000 mm 0,0 UV-I 0 W/m 7,1 C 5,5 C 17,7 km/h (3 Bft) 100,00 %
31.10.2015 00:20 8,6 C 91 % 1028,4 hPa 0,0 l/m 10,7 km/h (2 Bft) O 92 0 min 0,000 mm 0,0 UV-I 0 W/m 7,2 C 5,6 C 16,1 km/h (3 Bft) 95,65 %
31.10.2015 00:21 8,6 C 91 % 1028,4 hPa 0,0 l/m 13,9 km/h (3 Bft) O-NO 74 0 min 0,000 mm 0,0 UV-I 0 W/m 7,2 C 3,9 C 20,9 km/h (4 Bft) 100,00 %
31.10.2015 00:22 8,6 C 91 % 1028,4 hPa 0,0 l/m 15,0 km/h (3 Bft) O-NO 63 0 min 0,000 mm 0,0 UV-I 0 W/m 7,2 C 3,4 C 19,3 km/h (3 Bft) 91,30 %
31.10.2015 00:23 8,6 C 91 % 1028,4 hPa 0,0 l/m 17,4 km/h (3 Bft) O-NO 76 0 min 0,000 mm 0,0 UV-I 0 W/m 7,2 C 2,4 C 22,5 km/h (4 Bft) 100,00 %
31.10.2015 00:24 8,6 C 91 % 1028,4 hPa 0,0 l/m 17,6 km/h (3 Bft) O 90 0 min 0,000 mm 0,0 UV-I 0 W/m 7,2 C 2,4 C 24,1 km/h (4 Bft) 95,65 %
31.10.2015 00:25 8,6 C 91 % 1028,4 hPa 0,0 l/m 10,7 km/h (2 Bft) O-NO 61 0 min 0,000 mm 0,0 UV-I 0 W/m 7,2 C 5,6 C 17,7 km/h (3 Bft) 100,00 %
31.10.2015 00:26 8,6 C 91 % 1028,4 hPa 0,0 l/m 16,2 km/h (3 Bft) O 89 0 min 0,000 mm 0,0 UV-I 0 W/m 7,2 C 2,9 C 24,1 km/h (4 Bft) 100,00 %
31.10.2015 00:27 8,5 C 91 % 1028,4 hPa 0,0 l/m 13,9 km/h (3 Bft) NO 53 0 min 0,000 mm 0,0 UV-I 0 W/m 7,1 C 3,8 C 22,5 km/h (4 Bft) 100,00 %
31.10.2015 00:28 8,5 C 91 % 1028,4 hPa 0,0 l/m 18,3 km/h (3 Bft) SO 142 0 min 0,000 mm 0,0 UV-I 0 W/m 7,1 C 2,0 C 22,5 km/h (4 Bft) 92,31 %
31.10.2015 00:29 8,5 C 91 % 1028,3 hPa 0,0 l/m 15,3 km/h (3 Bft) O 81 0 min 0,000 mm 0,0 UV-I 0 W/m 7,1 C 3,2 C 20,9 km/h (4 Bft) 95,83 %
31.10.2015 00:30 8,5 C 91 % 1028,3 hPa 0,0 l/m 18,7 km/h (3 Bft) O 84 0 min 0,000 mm 0,0 UV-I 0 W/m 7,1 C 1,8 C 24,1 km/h (4 Bft) 96,15 %
31.10.2015 00:31 8,5 C 91 % 1028,3 hPa 0,0 l/m 13,6 km/h (3 Bft) O 94 0 min 0,000 mm 0,0 UV-I 0 W/m 7,1 C 4,0 C 19,3 km/h (3 Bft) 100,00 %
31.10.2015 00:32 8,5 C 91 % 1028,3 hPa 0,0 l/m 15,7 km/h (3 Bft) O 82 0 min 0,000 mm 0,0 UV-I 0 W/m 7,1 C 3,0 C 24,1 km/h (4 Bft) 100,00 %
31.10.2015 00:33 8,5 C 91 % 1028,3 hPa 0,0 l/m 13,6 km/h (3 Bft) O-NO 61 0 min 0,000 mm 0,0 UV-I 0 W/m 7,1 C 4,0 C 20,9 km/h (4 Bft) 100,00 %
31.10.2015 00:34 8,5 C 91 % 1028,3 hPa 0,0 l/m 11,8 km/h (2 Bft) O-SO 108 0 min 0,000 mm 0,0 UV-I 0 W/m 7,1 C 4,9 C 17,7 km/h (3 Bft) 100,00 %
31.10.2015 00:35 8,5 C 91 % 1028,3 hPa 0,0 l/m 13,3 km/h (3 Bft) O-SO 120 0 min 0,000 mm 0,0 UV-I 0 W/m 7,1 C 4,1 C 19,3 km/h (3 Bft) 100,00 %
31.10.2015 00:36 8,4 C 91 % 1028,3 hPa 0,0 l/m 12,1 km/h (2 Bft) O 91 0 min 0,000 mm 0,0 UV-I 0 W/m 7,0 C 4,6 C 16,1 km/h (3 Bft) 95,83 %
31.10.2015 00:37 8,4 C 91 % 1028,3 hPa 0,0 l/m 10,9 km/h (2 Bft) O-NO 64 0 min 0,000 mm 0,0 UV-I 0 W/m 7,0 C 5,3 C 14,5 km/h (3 Bft) 100,00 %
31.10.2015 00:38 8,4 C 91 % 1028,3 hPa 0,0 l/m 12,2 km/h (2 Bft) O 96 0 min 0,000 mm 0,0 UV-I 0 W/m 7,0 C 4,6 C 16,1 km/h (3 Bft) 100,00 %
31.10.2015 00:39 8,4 C 91 % 1028,4 hPa 0,0 l/m 9,4 km/h (2 Bft) O-NO 76 0 min 0,000 mm 0,0 UV-I 0 W/m 7,0 C 6,2 C 17,7 km/h (3 Bft) 92,86 %
31.10.2015 00:40 8,4 C 91 % 1028,3 hPa 0,0 l/m 15,8 km/h (3 Bft) O-NO 74 0 min 0,000 mm 0,0 UV-I 0 W/m 7,0 C 2,8 C 20,9 km/h (4 Bft) 100,00 %
31.10.2015 00:41 8,4 C 91 % 1028,3 hPa 0,0 l/m 16,3 km/h (3 Bft) O 90 0 min 0,000 mm 0,0 UV-I 0 W/m 7,0 C 2,6 C 20,9 km/h (4 Bft) 100,00 %
31.10.2015 00:42 8,4 C 91 % 1028,3 hPa 0,0 l/m 8,3 km/h (2 Bft) O-SO 108 0 min 0,000 mm 0,0 UV-I 0 W/m 7,0 C 7,0 C 16,1 km/h (3 Bft) 100,00 %
31.10.2015 00:43 8,4 C 91 % 1028,3 hPa 0,0 l/m 10,1 km/h (2 Bft) O-SO 106 0 min 0,000 mm 0,0 UV-I 0 W/m 7,0 C 5,8 C 16,1 km/h (3 Bft) 100,00 %
31.10.2015 00:44 8,4 C 91 % 1028,4 hPa 0,0 l/m 11,9 km/h (2 Bft) O-NO 67 0 min 0,000 mm 0,0 UV-I 0 W/m 7,0 C 4,7 C 17,7 km/h (3 Bft) 96,00 %
31.10.2015 00:45 8,4 C 91 % 1028,4 hPa 0,0 l/m 13,0 km/h (3 Bft) O 80 0 min 0,000 mm 0,0 UV-I 0 W/m 7,0 C 4,1 C 20,9 km/h (4 Bft) 100,00 %
31.10.2015 00:46 8,4 C 91 % 1028,4 hPa 0,0 l/m 13,1 km/h (3 Bft) O 80 0 min 0,000 mm 0,0 UV-I 0 W/m 7,0 C 4,1 C 17,7 km/h (3 Bft) 100,00 %
31.10.2015 00:47 8,4 C 91 % 1028,3 hPa 0,0 l/m 11,7 km/h (2 Bft) O 88 0 min 0,000 mm 0,0 UV-I 0 W/m 7,0 C 4,8 C 14,5 km/h (3 Bft) 95,65 %
31.10.2015 00:48 8,4 C 91 % 1028,3 hPa 0,0 l/m 11,0 km/h (2 Bft) O-NO 76 0 min 0,000 mm 0,0 UV-I 0 W/m 7,0 C 5,2 C 17,7 km/h (3 Bft) 100,00 %
31.10.2015 00:49 8,4 C 91 % 1028,4 hPa 0,0 l/m 7,9 km/h (2 Bft) O 90 0 min 0,000 mm 0,0 UV-I 0 W/m 7,0 C 7,2 C 12,9 km/h (3 Bft) 100,00 %
31.10.2015 00:50 8,4 C 91 % 1028,3 hPa 0,0 l/m 12,2 km/h (2 Bft) O 89 0 min 0,000 mm 0,0 UV-I 0 W/m 7,0 C 4,6 C 16,1 km/h (3 Bft) 100,00 %
31.10.2015 00:51 8,4 C 91 % 1028,3 hPa 0,0 l/m 12,2 km/h (2 Bft) O-NO 78 0 min 0,000 mm 0,0 UV-I 0 W/m 7,0 C 4,6 C 17,7 km/h (3 Bft) 100,00 %
31.10.2015 00:52 8,4 C 91 % 1028,3 hPa 0,0 l/m 10,2 km/h (2 Bft) O 91 0 min 0,000 mm 0,0 UV-I 0 W/m 7,0 C 5,7 C 16,1 km/h (3 Bft) 100,00 %
31.10.2015 00:53 8,4 C 91 % 1028,3 hPa 0,0 l/m 13,4 km/h (3 Bft) O-SO 103 0 min 0,000 mm 0,0 UV-I 0 W/m 7,0 C 3,9 C 22,5 km/h (4 Bft) 100,00 %
31.10.2015 00:54 8,4 C 91 % 1028,3 hPa 0,0 l/m 11,6 km/h (2 Bft) N-NO 25 0 min 0,000 mm 0,0 UV-I 0 W/m 7,0 C 4,9 C 14,5 km/h (3 Bft) 100,00 %
31.10.2015 00:55 8,4 C 91 % 1028,3 hPa 0,0 l/m 8,8 km/h (2 Bft) O 80 0 min 0,000 mm 0,0 UV-I 0 W/m 7,0 C 6,6 C 14,5 km/h (3 Bft) 91,67 %
31.10.2015 00:56 8,4 C 91 % 1028,3 hPa 0,0 l/m 13,0 km/h (3 Bft) O 85 0 min 0,000 mm 0,0 UV-I 0 W/m 7,0 C 4,1 C 17,7 km/h (3 Bft) 100,00 %
31.10.2015 00:57 8,4 C 91 % 1028,3 hPa 0,0 l/m 11,0 km/h (2 Bft) O-NO 70 0 min 0,000 mm 0,0 UV-I 0 W/m 7,0 C 5,2 C 19,3 km/h (3 Bft) 100,00 %
31.10.2015 00:58 8,3 C 91 % 1028,2 hPa 0,0 l/m 12,4 km/h (3 Bft) O 81 0 min 0,000 mm 0,0 UV-I 0 W/m 6,9 C 4,3 C 19,3 km/h (3 Bft) 100,00 %
31.10.2015 00:59 8,3 C 91 % 1028,3 hPa 0,0 l/m 12,8 km/h (3 Bft) O-NO 67 0 min 0,000 mm 0,0 UV-I 0 W/m 6,9 C 4,1 C 17,7 km/h (3 Bft) 100,00 %
31.10.2015 01:00 8,3 C 91 % 1028,3 hPa 0,0 l/m 9,7 km/h (2 Bft) O-SO 119 0 min 0,025 mm 0,0 UV-I 0 W/m 6,9 C 5,9 C 16,1 km/h (3 Bft) 96,15 %
31.10.2015 01:01 8,3 C 91 % 1028,3 hPa 0,0 l/m 14,2 km/h (3 Bft) O 83 0 min 0,000 mm 0,0 UV-I 0 W/m 6,9 C 3,4 C 19,3 km/h (3 Bft) 95,83 %
31.10.2015 01:02 8,3 C 91 % 1028,3 hPa 0,0 l/m 11,2 km/h (2 Bft) O-NO 67 0 min 0,000 mm 0,0 UV-I 0 W/m 6,9 C 5,0 C 20,9 km/h (4 Bft) 100,00 %
31.10.2015 01:03 8,3 C 91 % 1028,3 hPa 0,0 l/m 8,4 km/h (2 Bft) O 100 0 min 0,000 mm 0,0 UV-I 0 W/m 6,9 C 6,8 C 12,9 km/h (3 Bft) 100,00 %
31.10.2015 01:04 8,3 C 91 % 1028,3 hPa 0,0 l/m 9,9 km/h (2 Bft) O-NO 69 0 min 0,000 mm 0,0 UV-I 0 W/m 6,9 C 5,8 C 16,1 km/h (3 Bft) 100,00 %
31.10.2015 01:05 8,3 C 91 % 1028,4 hPa 0,0 l/m 11,9 km/h (2 Bft) O-NO 67 0 min 0,000 mm 0,0 UV-I 0 W/m 6,9 C 4,6 C 16,1 km/h (3 Bft) 100,00 %
31.10.2015 01:06 8,3 C 91 % 1028,3 hPa 0,0 l/m 12,6 km/h (3 Bft) O-NO 64 0 min 0,000 mm 0,0 UV-I 0 W/m 6,9 C 4,2 C 20,9 km/h (4 Bft) 100,00 %
31.10.2015 01:07 8,3 C 91 % 1028,4 hPa 0,0 l/m 10,3 km/h (2 Bft) NO 55 0 min 0,000 mm 0,0 UV-I 0 W/m 6,9 C 5,5 C 16,1 km/h (3 Bft) 100,00 %
31.10.2015 01:08 8,3 C 91 % 1028,4 hPa 0,0 l/m 11,7 km/h (2 Bft) O-NO 73 0 min 0,000 mm 0,0 UV-I 0 W/m 6,9 C 4,7 C 16,1 km/h (3 Bft) 95,65 %
31.10.2015 01:09 8,3 C 91 % 1028,4 hPa 0,0 l/m 8,8 km/h (2 Bft) O-NO 71 0 min 0,000 mm 0,0 UV-I 0 W/m 6,9 C 6,5 C 16,1 km/h (3 Bft) 100,00 %
31.10.2015 01:10 8,3 C 91 % 1028,4 hPa 0,0 l/m 10,4 km/h (2 Bft) O-NO 76 0 min 0,000 mm 0,0 UV-I 0 W/m 6,9 C 5,5 C 14,5 km/h (3 Bft) 95,83 %
31.10.2015 01:11 8,3 C 91 % 1028,4 hPa 0,0 l/m 11,2 km/h (2 Bft) O-NO 71 0 min 0,000 mm 0,0 UV-I 0 W/m 6,9 C 5,0 C 16,1 km/h (3 Bft) 100,00 %
31.10.2015 01:12 8,3 C 91 % 1028,4 hPa 0,0 l/m 12,3 km/h (3 Bft) O 79 0 min 0,000 mm 0,0 UV-I 0 W/m 6,9 C 4,4 C 16,1 km/h (3 Bft) 100,00 %
31.10.2015 01:13 8,3 C 91 % 1028,4 hPa 0,0 l/m 14,3 km/h (3 Bft) O-NO 72 0 min 0,000 mm 0,0 UV-I 0 W/m 6,9 C 3,4 C 20,9 km/h (4 Bft) 95,65 %
31.10.2015 01:14 8,3 C 91 % 1028,4 hPa 0,0 l/m 8,5 km/h (2 Bft) O 96 0 min 0,000 mm 0,0 UV-I 0 W/m 6,9 C 6,7 C 14,5 km/h (3 Bft) 95,83 %
31.10.2015 01:15 8,3 C 91 % 1028,4 hPa 0,0 l/m 12,2 km/h (2 Bft) O 98 0 min 0,000 mm 0,0 UV-I 0 W/m 6,9 C 4,4 C 19,3 km/h (3 Bft) 95,65 %
31.10.2015 01:16 8,2 C 91 % 1028,4 hPa 0,0 l/m 9,3 km/h (2 Bft) O 97 0 min 0,000 mm 0,0 UV-I 0 W/m 6,8 C 6,1 C 12,9 km/h (3 Bft) 100,00 %
31.10.2015 01:17 8,2 C 91 % 1028,4 hPa 0,0 l/m 6,8 km/h (2 Bft) O-SO 115 0 min 0,000 mm 0,0 UV-I 0 W/m 6,8 C 7,9 C 11,3 km/h (2 Bft) 95,65 %
31.10.2015 01:18 8,2 C 91 % 1028,4 hPa 0,0 l/m 7,4 km/h (2 Bft) SO 128 0 min 0,000 mm 0,0 UV-I 0 W/m 6,8 C 7,4 C 11,3 km/h (2 Bft) 100,00 %
31.10.2015 01:19 8,2 C 91 % 1028,3 hPa 0,0 l/m 9,6 km/h (2 Bft) O-NO 76 0 min 0,000 mm 0,0 UV-I 0 W/m 6,8 C 5,9 C 16,1 km/h (3 Bft) 100,00 %
31.10.2015 01:20 8,2 C 91 % 1028,3 hPa 0,0 l/m 17,8 km/h (3 Bft) O 81 0 min 0,000 mm 0,0 UV-I 0 W/m 6,8 C 1,8 C 24,1 km/h (4 Bft) 100,00 %
31.10.2015 01:21 8,2 C 91 % 1028,3 hPa 0,0 l/m 12,5 km/h (3 Bft) O-NO 75 0 min 0,000 mm 0,0 UV-I 0 W/m 6,8 C 4,2 C 17,7 km/h (3 Bft) 91,30 %
31.10.2015 01:22 8,2 C 91 % 1028,3 hPa 0,0 l/m 12,0 km/h (2 Bft) O 88 0 min 0,000 mm 0,0 UV-I 0 W/m 6,8 C 4,4 C 17,7 km/h (3 Bft) 100,00 %
31.10.2015 01:23 8,2 C 91 % 1028,3 hPa 0,0 l/m 8,4 km/h (2 Bft) O-NO 71 0 min 0,000 mm 0,0 UV-I 0 W/m 6,8 C 6,7 C 12,9 km/h (3 Bft) 100,00 %
31.10.2015 01:24 8,2 C 91 % 1028,3 hPa 0,0 l/m 8,2 km/h (2 Bft) O-SO 105 0 min 0,000 mm 0,0 UV-I 0 W/m 6,8 C 6,8 C 14,5 km/h (3 Bft) 100,00 %
31.10.2015 01:25 8,1 C 91 % 1028,3 hPa 0,0 l/m 15,8 km/h (3 Bft) O 94 0 min 0,000 mm 0,0 UV-I 0 W/m 6,7 C 2,5 C 20,9 km/h (4 Bft) 95,65 %
31.10.2015 01:26 8,1 C 91 % 1028,4 hPa 0,0 l/m 10,8 km/h (2 Bft) O-SO 112 0 min 0,000 mm 0,0 UV-I 0 W/m 6,7 C 5,0 C 16,1 km/h (3 Bft) 100,00 %
31.10.2015 01:27 8,1 C 91 % 1028,4 hPa 0,0 l/m 15,5 km/h (3 Bft) O 88 0 min 0,000 mm 0,0 UV-I 0 W/m 6,7 C 2,6 C 17,7 km/h (3 Bft) 100,00 %
31.10.2015 01:28 8,1 C 91 % 1028,4 hPa 0,0 l/m 15,9 km/h (3 Bft) O 88 0 min 0,000 mm 0,0 UV-I 0 W/m 6,7 C 2,4 C 22,5 km/h (4 Bft) 100,00 %
31.10.2015 01:29 8,1 C 91 % 1028,4 hPa 0,0 l/m 9,0 km/h (2 Bft) O-NO 78 0 min 0,000 mm 0,0 UV-I 0 W/m 6,7 C 6,1 C 16,1 km/h (3 Bft) 100,00 %
31.10.2015 01:30 8,1 C 91 % 1028,4 hPa 0,0 l/m 14,6 km/h (3 Bft) O-NO 77 0 min 0,000 mm 0,0 UV-I 0 W/m 6,7 C 3,0 C 22,5 km/h (4 Bft) 100,00 %
31.10.2015 01:31 8,1 C 91 % 1028,4 hPa 0,0 l/m 12,1 km/h (2 Bft) O-SO 103 0 min 0,000 mm 0,0 UV-I 0 W/m 6,7 C 4,3 C 17,7 km/h (3 Bft) 100,00 %
31.10.2015 01:32 8,1 C 91 % 1028,4 hPa 0,0 l/m 13,5 km/h (3 Bft) O-NO 76 0 min 0,000 mm 0,0 UV-I 0 W/m 6,7 C 3,5 C 16,1 km/h (3 Bft) 100,00 %
31.10.2015 01:33 8,1 C 91 % 1028,3 hPa 0,0 l/m 16,8 km/h (3 Bft) O 82 0 min 0,000 mm 0,0 UV-I 0 W/m 6,7 C 2,1 C 22,5 km/h (4 Bft) 100,00 %
31.10.2015 01:34 8,1 C 91 % 1028,3 hPa 0,0 l/m 10,0 km/h (2 Bft) O 80 0 min 0,000 mm 0,0 UV-I 0 W/m 6,7 C 5,5 C 17,7 km/h (3 Bft) 100,00 %
31.10.2015 01:35 8,0 C 91 % 1028,3 hPa 0,0 l/m 16,2 km/h (3 Bft) O-NO 67 0 min 0,000 mm 0,0 UV-I 0 W/m 6,6 C 2,2 C 22,5 km/h (4 Bft) 100,00 %
31.10.2015 01:36 8,0 C 91 % 1028,3 hPa 0,0 l/m 10,7 km/h (2 Bft) NO 53 0 min 0,000 mm 0,0 UV-I 0 W/m 6,6 C 5,0 C 19,3 km/h (3 Bft) 100,00 %
31.10.2015 01:37 8,0 C 91 % 1028,3 hPa 0,0 l/m 12,5 km/h (3 Bft) O-NO 78 0 min 0,000 mm 0,0 UV-I 0 W/m 6,6 C 3,9 C 19,3 km/h (3 Bft) 100,00 %
31.10.2015 01:38 8,0 C 91 % 1028,3 hPa 0,0 l/m 12,3 km/h (3 Bft) O 83 0 min 0,000 mm 0,0 UV-I 0 W/m 6,6 C 4,0 C 20,9 km/h (4 Bft) 100,00 %
31.10.2015 01:39 8,0 C 91 % 1028,2 hPa 0,0 l/m 10,7 km/h (2 Bft) O 96 0 min 0,000 mm 0,0 UV-I 0 W/m 6,6 C 5,0 C 17,7 km/h (3 Bft) 100,00 %
31.10.2015 01:40 8,0 C 91 % 1028,3 hPa 0,0 l/m 12,1 km/h (2 Bft) SO 132 0 min 0,000 mm 0,0 UV-I 0 W/m 6,6 C 4,2 C 19,3 km/h (3 Bft) 100,00 %
31.10.2015 01:41 7,9 C 92 % 1028,3 hPa 0,0 l/m 12,0 km/h (2 Bft) O 91 0 min 0,000 mm 0,0 UV-I 0 W/m 6,7 C 4,1 C 16,1 km/h (3 Bft) 100,00 %
31.10.2015 01:42 7,9 C 91 % 1028,2 hPa 0,0 l/m 15,6 km/h (3 Bft) O 88 0 min 0,000 mm 0,0 UV-I 0 W/m 6,5 C 2,3 C 20,9 km/h (4 Bft) 100,00 %
31.10.2015 01:43 7,9 C 91 % 1028,2 hPa 0,0 l/m 10,3 km/h (2 Bft) O-NO 69 0 min 0,000 mm 0,0 UV-I 0 W/m 6,5 C 5,1 C 19,3 km/h (3 Bft) 95,83 %
31.10.2015 01:44 7,9 C 91 % 1028,3 hPa 0,0 l/m 6,6 km/h (2 Bft) O 90 0 min 0,000 mm 0,0 UV-I 0 W/m 6,5 C 7,8 C 12,9 km/h (3 Bft) 100,00 %
31.10.2015 01:45 7,9 C 91 % 1028,3 hPa 0,0 l/m 13,2 km/h (3 Bft) O-SO 113 0 min 0,000 mm 0,0 UV-I 0 W/m 6,5 C 3,5 C 19,3 km/h (3 Bft) 100,00 %
31.10.2015 01:46 7,9 C 91 % 1028,3 hPa 0,0 l/m 9,3 km/h (2 Bft) O-NO 74 0 min 0,000 mm 0,0 UV-I 0 W/m 6,5 C 5,7 C 16,1 km/h (3 Bft) 100,00 %
31.10.2015 01:47 7,9 C 91 % 1028,3 hPa 0,0 l/m 11,2 km/h (2 Bft) O-NO 78 0 min 0,000 mm 0,0 UV-I 0 W/m 6,5 C 4,5 C 17,7 km/h (3 Bft) 100,00 %
31.10.2015 01:48 7,9 C 91 % 1028,3 hPa 0,0 l/m 12,7 km/h (3 Bft) O-SO 111 0 min 0,000 mm 0,0 UV-I 0 W/m 6,5 C 3,7 C 22,5 km/h (4 Bft) 95,65 %
31.10.2015 01:49 7,9 C 91 % 1028,3 hPa 0,0 l/m 11,4 km/h (2 Bft) O 80 0 min 0,000 mm 0,0 UV-I 0 W/m 6,5 C 4,4 C 17,7 km/h (3 Bft) 100,00 %
31.10.2015 01:50 7,9 C 91 % 1028,3 hPa 0,0 l/m 12,6 km/h (3 Bft) O-NO 78 0 min 0,000 mm 0,0 UV-I 0 W/m 6,5 C 3,8 C 17,7 km/h (3 Bft) 95,65 %
31.10.2015 01:51 7,9 C 92 % 1028,3 hPa 0,0 l/m 7,0 km/h (2 Bft) O-NO 77 0 min 0,000 mm 0,0 UV-I 0 W/m 6,7 C 7,4 C 12,9 km/h (3 Bft) 100,00 %
31.10.2015 01:52 7,9 C 92 % 1028,3 hPa 0,0 l/m 14,8 km/h (3 Bft) O 79 0 min 0,000 mm 0,0 UV-I 0 W/m 6,7 C 2,7 C 22,5 km/h (4 Bft) 100,00 %
31.10.2015 01:53 7,9 C 91 % 1028,3 hPa 0,0 l/m 12,6 km/h (3 Bft) O-NO 69 0 min 0,000 mm 0,0 UV-I 0 W/m 6,5 C 3,8 C 22,5 km/h (4 Bft) 100,00 %
31.10.2015 01:54 7,9 C 91 % 1028,3 hPa 0,0 l/m 12,7 km/h (3 Bft) O-NO 64 0 min 0,000 mm 0,0 UV-I 0 W/m 6,5 C 3,7 C 22,5 km/h (4 Bft) 95,65 %
31.10.2015 01:55 7,9 C 91 % 1028,3 hPa 0,0 l/m 13,9 km/h (3 Bft) O 87 0 min 0,000 mm 0,0 UV-I 0 W/m 6,5 C 3,1 C 20,9 km/h (4 Bft) 100,00 %
31.10.2015 01:56 7,9 C 92 % 1028,3 hPa 0,0 l/m 9,5 km/h (2 Bft) O 101 0 min 0,000 mm 0,0 UV-I 0 W/m 6,7 C 5,6 C 14,5 km/h (3 Bft) 100,00 %
31.10.2015 01:57 7,9 C 92 % 1028,3 hPa 0,0 l/m 10,3 km/h (2 Bft) O-SO 120 0 min 0,000 mm 0,0 UV-I 0 W/m 6,7 C 5,1 C 14,5 km/h (3 Bft) 95,65 %
31.10.2015 01:58 7,9 C 92 % 1028,3 hPa 0,0 l/m 10,6 km/h (2 Bft) O 82 0 min 0,000 mm 0,0 UV-I 0 W/m 6,7 C 4,9 C 16,1 km/h (3 Bft) 100,00 %
31.10.2015 01:59 7,9 C 92 % 1028,3 hPa 0,0 l/m 13,6 km/h (3 Bft) O 94 0 min 0,000 mm 0,0 UV-I 0 W/m 6,7 C 3,3 C 19,3 km/h (3 Bft) 100,00 %
31.10.2015 02:00 7,9 C 92 % 1028,2 hPa 0,0 l/m 12,7 km/h (3 Bft) NO 42 0 min 0,000 mm 0,0 UV-I 0 W/m 6,7 C 3,7 C 22,5 km/h (4 Bft) 100,00 %
31.10.2015 02:01 7,8 C 92 % 1028,3 hPa 0,0 l/m 13,7 km/h (3 Bft) O 98 0 min 0,000 mm 0,0 UV-I 0 W/m 6,6 C 3,1 C 19,3 km/h (3 Bft) 100,00 %
31.10.2015 02:02 7,8 C 92 % 1028,3 hPa 0,0 l/m 15,2 km/h (3 Bft) O-SO 103 0 min 0,000 mm 0,0 UV-I 0 W/m 6,6 C 2,4 C 19,3 km/h (3 Bft) 100,00 %
31.10.2015 02:03 7,8 C 92 % 1028,3 hPa 0,0 l/m 10,6 km/h (2 Bft) O 79 0 min 0,000 mm 0,0 UV-I 0 W/m 6,6 C 4,8 C 17,7 km/h (3 Bft) 100,00 %
31.10.2015 02:04 7,8 C 92 % 1028,3 hPa 0,0 l/m 13,8 km/h (3 Bft) O-SO 107 0 min 0,000 mm 0,0 UV-I 0 W/m 6,6 C 3,0 C 20,9 km/h (4 Bft) 100,00 %
31.10.2015 02:05 7,8 C 92 % 1028,3 hPa 0,0 l/m 7,6 km/h (2 Bft) NO 46 0 min 0,000 mm 0,0 UV-I 0 W/m 6,6 C 6,8 C 14,5 km/h (3 Bft) 100,00 %
31.10.2015 02:06 7,8 C 92 % 1028,3 hPa 0,0 l/m 14,3 km/h (3 Bft) O-NO 61 0 min 0,000 mm 0,0 UV-I 0 W/m 6,6 C 2,8 C 20,9 km/h (4 Bft) 100,00 %
31.10.2015 02:07 7,8 C 92 % 1028,3 hPa 0,0 l/m 9,1 km/h (2 Bft) O-SO 105 0 min 0,000 mm 0,0 UV-I 0 W/m 6,6 C 5,8 C 16,1 km/h (3 Bft) 100,00 %
31.10.2015 02:08 7,8 C 92 % 1028,3 hPa 0,0 l/m 11,1 km/h (2 Bft) O 97 0 min 0,000 mm 0,0 UV-I 0 W/m 6,6 C 4,5 C 20,9 km/h (4 Bft) 100,00 %
31.10.2015 02:09 7,8 C 92 % 1028,3 hPa 0,0 l/m 11,7 km/h (2 Bft) O-NO 69 0 min 0,000 mm 0,0 UV-I 0 W/m 6,6 C 4,1 C 16,1 km/h (3 Bft) 100,00 %
31.10.2015 02:10 7,8 C 92 % 1028,3 hPa 0,0 l/m 12,7 km/h (3 Bft) O-NO 73 0 min 0,000 mm 0,0 UV-I 0 W/m 6,6 C 3,6 C 22,5 km/h (4 Bft) 95,83 %
31.10.2015 02:11 7,8 C 92 % 1028,3 hPa 0,0 l/m 14,3 km/h (3 Bft) O-NO 66 0 min 0,000 mm 0,0 UV-I 0 W/m 6,6 C 2,8 C 20,9 km/h (4 Bft) 95,83 %
31.10.2015 02:12 7,8 C 92 % 1028,3 hPa 0,0 l/m 6,6 km/h (2 Bft) NO 44 0 min 0,000 mm 0,0 UV-I 0 W/m 6,6 C 7,7 C 12,9 km/h (3 Bft) 100,00 %
31.10.2015 02:13 7,8 C 92 % 1028,3 hPa 0,0 l/m 15,5 km/h (3 Bft) O 86 0 min 0,000 mm 0,0 UV-I 0 W/m 6,6 C 2,2 C 19,3 km/h (3 Bft) 100,00 %
31.10.2015 02:14 7,8 C 92 % 1028,3 hPa 0,0 l/m 8,2 km/h (2 Bft) O-NO 61 0 min 0,000 mm 0,0 UV-I 0 W/m 6,6 C 6,4 C 16,1 km/h (3 Bft) 100,00 %
31.10.2015 02:15 7,8 C 92 % 1028,2 hPa 0,0 l/m 10,6 km/h (2 Bft) O 89 0 min 0,000 mm 0,0 UV-I 0 W/m 6,6 C 4,8 C 16,1 km/h (3 Bft) 95,83 %
31.10.2015 02:16 7,8 C 92 % 1028,2 hPa 0,0 l/m 10,4 km/h (2 Bft) O-SO 117 0 min 0,000 mm 0,0 UV-I 0 W/m 6,6 C 4,9 C 14,5 km/h (3 Bft) 100,00 %
31.10.2015 02:17 7,8 C 92 % 1028,2 hPa 0,0 l/m 12,2 km/h (2 Bft) N-NO 23 0 min 0,000 mm 0,0 UV-I 0 W/m 6,6 C 3,9 C 17,7 km/h (3 Bft) 100,00 %
31.10.2015 02:18 7,8 C 92 % 1028,2 hPa 0,0 l/m 15,4 km/h (3 Bft) O 93 0 min 0,000 mm 0,0 UV-I 0 W/m 6,6 C 2,3 C 24,1 km/h (4 Bft) 95,65 %
31.10.2015 02:19 7,8 C 92 % 1028,2 hPa 0,0 l/m 13,9 km/h (3 Bft) O 91 0 min 0,000 mm 0,0 UV-I 0 W/m 6,6 C 3,0 C 24,1 km/h (4 Bft) 100,00 %
31.10.2015 02:20 7,8 C 92 % 1028,2 hPa 0,0 l/m 13,6 km/h (3 Bft) O-NO 65 0 min 0,000 mm 0,0 UV-I 0 W/m 6,6 C 3,1 C 19,3 km/h (3 Bft) 96,15 %
31.10.2015 02:21 7,8 C 92 % 1028,2 hPa 0,0 l/m 10,4 km/h (2 Bft) O 80 0 min 0,000 mm 0,0 UV-I 0 W/m 6,6 C 4,9 C 16,1 km/h (3 Bft) 100,00 %
31.10.2015 02:22 7,7 C 92 % 1028,2 hPa 0,0 l/m 9,1 km/h (2 Bft) O-NO 72 0 min 0,000 mm 0,0 UV-I 0 W/m 6,5 C 5,6 C 14,5 km/h (3 Bft) 100,00 %
31.10.2015 02:23 7,7 C 92 % 1028,2 hPa 0,0 l/m 7,4 km/h (2 Bft) O-NO 75 0 min 0,000 mm 0,0 UV-I 0 W/m 6,5 C 6,9 C 11,3 km/h (2 Bft) 100,00 %
31.10.2015 02:24 7,7 C 92 % 1028,2 hPa 0,0 l/m 11,8 km/h (2 Bft) O-SO 105 0 min 0,000 mm 0,0 UV-I 0 W/m 6,5 C 4,0 C 17,7 km/h (3 Bft) 100,00 %
31.10.2015 02:25 7,7 C 92 % 1028,2 hPa 0,0 l/m 13,3 km/h (3 Bft) S-SO 150 0 min 0,000 mm 0,0 UV-I 0 W/m 6,5 C 3,2 C 20,9 km/h (4 Bft) 95,83 %
31.10.2015 02:26 7,7 C 92 % 1028,2 hPa 0,0 l/m 8,7 km/h (2 Bft) S-SO 163 0 min 0,000 mm 0,0 UV-I 0 W/m 6,5 C 5,9 C 12,9 km/h (3 Bft) 100,00 %
31.10.2015 02:27 7,7 C 92 % 1028,2 hPa 0,0 l/m 9,5 km/h (2 Bft) O-NO 65 0 min 0,000 mm 0,0 UV-I 0 W/m 6,5 C 5,4 C 17,7 km/h (3 Bft) 95,83 %
31.10.2015 02:28 7,7 C 92 % 1028,2 hPa 0,0 l/m 10,6 km/h (2 Bft) O-NO 57 0 min 0,000 mm 0,0 UV-I 0 W/m 6,5 C 4,7 C 17,7 km/h (3 Bft) 100,00 %
31.10.2015 02:29 7,7 C 92 % 1028,2 hPa 0,0 l/m 8,9 km/h (2 Bft) SO 137 0 min 0,000 mm 0,0 UV-I 0 W/m 6,5 C 5,8 C 17,7 km/h (3 Bft) 86,96 %
31.10.2015 02:30 7,7 C 92 % 1028,2 hPa 0,0 l/m 9,2 km/h (2 Bft) O 96 0 min 0,000 mm 0,0 UV-I 0 W/m 6,5 C 5,6 C 14,5 km/h (3 Bft) 100,00 %
31.10.2015 02:31 7,7 C 92 % 1028,2 hPa 0,0 l/m 11,7 km/h (2 Bft) NO 39 0 min 0,000 mm 0,0 UV-I 0 W/m 6,5 C 4,0 C 24,1 km/h (4 Bft) 100,00 %
31.10.2015 02:32 7,7 C 92 % 1028,2 hPa 0,0 l/m 15,3 km/h (3 Bft) O 95 0 min 0,000 mm 0,0 UV-I 0 W/m 6,5 C 2,2 C 20,9 km/h (4 Bft) 100,00 %
31.10.2015 02:33 7,6 C 92 % 1028,2 hPa 0,0 l/m 9,2 km/h (2 Bft) S-SW 196 0 min 0,000 mm 0,0 UV-I 0 W/m 6,4 C 5,5 C 12,9 km/h (3 Bft) 100,00 %
31.10.2015 02:34 7,6 C 92 % 1028,2 hPa 0,0 l/m 13,7 km/h (3 Bft) O 98 0 min 0,000 mm 0,0 UV-I 0 W/m 6,4 C 2,9 C 20,9 km/h (4 Bft) 100,00 %
31.10.2015 02:35 7,6 C 92 % 1028,1 hPa 0,0 l/m 12,7 km/h (3 Bft) O-NO 60 0 min 0,000 mm 0,0 UV-I 0 W/m 6,4 C 3,4 C 22,5 km/h (4 Bft) 100,00 %
31.10.2015 02:36 7,6 C 92 % 1028,2 hPa 0,0 l/m 13,5 km/h (3 Bft) O-SO 115 0 min 0,000 mm 0,0 UV-I 0 W/m 6,4 C 3,0 C 19,3 km/h (3 Bft) 100,00 %
31.10.2015 02:37 7,6 C 92 % 1028,1 hPa 0,0 l/m 12,0 km/h (2 Bft) O-NO 71 0 min 0,000 mm 0,0 UV-I 0 W/m 6,4 C 3,8 C 19,3 km/h (3 Bft) 91,30 %
31.10.2015 02:38 7,6 C 92 % 1028,1 hPa 0,0 l/m 13,4 km/h (3 Bft) O-NO 70 0 min 0,000 mm 0,0 UV-I 0 W/m 6,4 C 3,0 C 19,3 km/h (3 Bft) 100,00 %
31.10.2015 02:39 7,6 C 92 % 1028,1 hPa 0,0 l/m 7,8 km/h (2 Bft) O 95 0 min 0,000 mm 0,0 UV-I 0 W/m 6,4 C 6,5 C 12,9 km/h (3 Bft) 100,00 %
31.10.2015 02:40 7,6 C 92 % 1028,1 hPa 0,0 l/m 10,5 km/h (2 Bft) O-NO 75 0 min 0,000 mm 0,0 UV-I 0 W/m 6,4 C 4,6 C 14,5 km/h (3 Bft) 100,00 %
31.10.2015 02:41 7,6 C 92 % 1028,0 hPa 0,0 l/m 9,0 km/h (2 Bft) O-NO 63 0 min 0,000 mm 0,0 UV-I 0 W/m 6,4 C 5,6 C 17,7 km/h (3 Bft) 100,00 %
31.10.2015 02:42 7,6 C 92 % 1028,0 hPa 0,0 l/m 10,9 km/h (2 Bft) O 84 0 min 0,000 mm 0,0 UV-I 0 W/m 6,4 C 4,4 C 16,1 km/h (3 Bft) 100,00 %
31.10.2015 02:43 7,5 C 92 % 1028,0 hPa 0,0 l/m 11,3 km/h (2 Bft) O-NO 75 0 min 0,000 mm 0,0 UV-I 0 W/m 6,3 C 4,0 C 16,1 km/h (3 Bft) 86,96 %
31.10.2015 02:44 7,5 C 92 % 1028,0 hPa 0,0 l/m 15,2 km/h (3 Bft) O 95 0 min 0,000 mm 0,0 UV-I 0 W/m 6,3 C 2,0 C 25,7 km/h (4 Bft) 100,00 %
31.10.2015 02:45 7,5 C 92 % 1028,1 hPa 0,0 l/m 14,8 km/h (3 Bft) O 83 0 min 0,000 mm 0,0 UV-I 0 W/m 6,3 C 2,2 C 20,9 km/h (4 Bft) 95,65 %
31.10.2015 02:46 7,5 C 92 % 1028,0 hPa 0,0 l/m 14,1 km/h (3 Bft) O-NO 63 0 min 0,000 mm 0,0 UV-I 0 W/m 6,3 C 2,5 C 22,5 km/h (4 Bft) 100,00 %
31.10.2015 02:47 7,5 C 92 % 1028,0 hPa 0,0 l/m 7,0 km/h (2 Bft) O-NO 68 0 min 0,000 mm 0,0 UV-I 0 W/m 6,3 C 7,0 C 14,5 km/h (3 Bft) 100,00 %
31.10.2015 02:48 7,5 C 92 % 1028,0 hPa 0,0 l/m 10,4 km/h (2 Bft) O 80 0 min 0,000 mm 0,0 UV-I 0 W/m 6,3 C 4,6 C 16,1 km/h (3 Bft) 100,00 %
31.10.2015 02:49 7,5 C 92 % 1027,9 hPa 0,0 l/m 10,7 km/h (2 Bft) O-NO 62 0 min 0,000 mm 0,0 UV-I 0 W/m 6,3 C 4,4 C 14,5 km/h (3 Bft) 95,83 %
31.10.2015 02:50 7,4 C 92 % 1028,0 hPa 0,0 l/m 12,7 km/h (3 Bft) O 92 0 min 0,000 mm 0,0 UV-I 0 W/m 6,2 C 3,1 C 19,3 km/h (3 Bft) 100,00 %
31.10.2015 02:51 7,4 C 92 % 1028,0 hPa 0,0 l/m 14,8 km/h (3 Bft) O 92 0 min 0,000 mm 0,0 UV-I 0 W/m 6,2 C 2,1 C 20,9 km/h (4 Bft) 100,00 %
31.10.2015 02:52 7,4 C 92 % 1028,0 hPa 0,0 l/m 9,1 km/h (2 Bft) O 80 0 min 0,000 mm 0,0 UV-I 0 W/m 6,2 C 5,3 C 17,7 km/h (3 Bft) 100,00 %
31.10.2015 02:53 7,4 C 92 % 1028,0 hPa 0,0 l/m 12,5 km/h (3 Bft) O 88 0 min 0,000 mm 0,0 UV-I 0 W/m 6,2 C 3,2 C 16,1 km/h (3 Bft) 100,00 %
31.10.2015 02:54 7,4 C 92 % 1028,0 hPa 0,0 l/m 12,5 km/h (3 Bft) SO 145 0 min 0,000 mm 0,0 UV-I 0 W/m 6,2 C 3,2 C 22,5 km/h (4 Bft) 95,65 %
31.10.2015 02:55 7,4 C 92 % 1028,0 hPa 0,0 l/m 13,5 km/h (3 Bft) O 99 0 min 0,000 mm 0,0 UV-I 0 W/m 6,2 C 2,7 C 24,1 km/h (4 Bft) 100,00 %
31.10.2015 02:56 7,4 C 92 % 1027,9 hPa 0,0 l/m 14,5 km/h (3 Bft) O-SO 103 0 min 0,000 mm 0,0 UV-I 0 W/m 6,2 C 2,2 C 17,7 km/h (3 Bft) 100,00 %
31.10.2015 02:57 7,4 C 92 % 1028,0 hPa 0,0 l/m 15,8 km/h (3 Bft) O 80 0 min 0,000 mm 0,0 UV-I 0 W/m 6,2 C 1,6 C 19,3 km/h (3 Bft) 100,00 %
31.10.2015 02:58 7,4 C 92 % 1028,0 hPa 0,0 l/m 11,3 km/h (2 Bft) O 96 0 min 0,000 mm 0,0 UV-I 0 W/m 6,2 C 3,9 C 17,7 km/h (3 Bft) 100,00 %
31.10.2015 02:59 7,4 C 92 % 1028,0 hPa 0,0 l/m 12,9 km/h (3 Bft) O 79 0 min 0,000 mm 0,0 UV-I 0 W/m 6,2 C 3,0 C 22,5 km/h (4 Bft) 100,00 %
31.10.2015 03:00 7,4 C 92 % 1027,9 hPa 0,0 l/m 12,9 km/h (3 Bft) O-NO 73 0 min 0,000 mm 0,0 UV-I 0 W/m 6,2 C 3,0 C 20,9 km/h (4 Bft) 100,00 %
31.10.2015 03:01 7,4 C 92 % 1027,9 hPa 0,0 l/m 13,4 km/h (3 Bft) O 90 0 min 0,000 mm 0,0 UV-I 0 W/m 6,2 C 2,8 C 20,9 km/h (4 Bft) 100,00 %
31.10.2015 03:02 7,4 C 92 % 1027,9 hPa 0,0 l/m 9,5 km/h (2 Bft) O 95 0 min 0,000 mm 0,0 UV-I 0 W/m 6,2 C 5,1 C 12,9 km/h (3 Bft) 100,00 %
31.10.2015 03:03 7,4 C 92 % 1027,9 hPa 0,0 l/m 16,0 km/h (3 Bft) O 97 0 min 0,000 mm 0,0 UV-I 0 W/m 6,2 C 1,5 C 24,1 km/h (4 Bft) 95,83 %
31.10.2015 03:04 7,4 C 92 % 1027,9 hPa 0,0 l/m 15,4 km/h (3 Bft) NO 54 0 min 0,000 mm 0,0 UV-I 0 W/m 6,2 C 1,8 C 20,9 km/h (4 Bft) 100,00 %
31.10.2015 03:05 7,4 C 92 % 1027,9 hPa 0,0 l/m 13,8 km/h (3 Bft) O 98 0 min 0,000 mm 0,0 UV-I 0 W/m 6,2 C 2,6 C 20,9 km/h (4 Bft) 100,00 %
31.10.2015 03:06 7,4 C 92 % 1028,0 hPa 0,0 l/m 9,8 km/h (2 Bft) NO 53 0 min 0,000 mm 0,0 UV-I 0 W/m 6,2 C 4,9 C 16,1 km/h (3 Bft) 100,00 %
31.10.2015 03:07 7,4 C 92 % 1027,9 hPa 0,0 l/m 10,9 km/h (2 Bft) O-NO 68 0 min 0,000 mm 0,0 UV-I 0 W/m 6,2 C 4,2 C 16,1 km/h (3 Bft) 100,00 %
31.10.2015 03:08 7,4 C 92 % 1027,9 hPa 0,0 l/m 10,6 km/h (2 Bft) O 94 0 min 0,000 mm 0,0 UV-I 0 W/m 6,2 C 4,3 C 14,5 km/h (3 Bft) 95,65 %
31.10.2015 03:09 7,4 C 92 % 1027,9 hPa 0,0 l/m 11,1 km/h (2 Bft) O 92 0 min 0,000 mm 0,0 UV-I 0 W/m 6,2 C 4,0 C 19,3 km/h (3 Bft) 95,83 %
31.10.2015 03:10 7,4 C 92 % 1027,9 hPa 0,0 l/m 9,3 km/h (2 Bft) O-NO 72 0 min 0,000 mm 0,0 UV-I 0 W/m 6,2 C 5,2 C 12,9 km/h (3 Bft) 95,83 %
31.10.2015 03:11 7,4 C 92 % 1027,9 hPa 0,0 l/m 8,0 km/h (2 Bft) O-NO 66 0 min 0,000 mm 0,0 UV-I 0 W/m 6,2 C 6,1 C 12,9 km/h (3 Bft) 100,00 %
31.10.2015 03:12 7,3 C 92 % 1027,9 hPa 0,0 l/m 5,7 km/h (1 Bft) O 97 0 min 0,000 mm 0,0 UV-I 0 W/m 6,1 C 7,3 C 11,3 km/h (2 Bft) 100,00 %
31.10.2015 03:13 7,3 C 92 % 1027,9 hPa 0,0 l/m 11,2 km/h (2 Bft) O 86 0 min 0,000 mm 0,0 UV-I 0 W/m 6,1 C 3,9 C 17,7 km/h (3 Bft) 100,00 %
31.10.2015 03:14 7,3 C 92 % 1027,9 hPa 0,0 l/m 12,4 km/h (3 Bft) O-NO 76 0 min 0,000 mm 0,0 UV-I 0 W/m 6,1 C 3,2 C 17,7 km/h (3 Bft) 100,00 %
31.10.2015 03:15 7,3 C 92 % 1027,9 hPa 0,0 l/m 13,1 km/h (3 Bft) O 86 0 min 0,000 mm 0,0 UV-I 0 W/m 6,1 C 2,8 C 20,9 km/h (4 Bft) 100,00 %
31.10.2015 03:16 7,3 C 92 % 1027,8 hPa 0,0 l/m 11,9 km/h (2 Bft) O 79 0 min 0,000 mm 0,0 UV-I 0 W/m 6,1 C 3,5 C 16,1 km/h (3 Bft) 100,00 %
31.10.2015 03:17 7,3 C 92 % 1027,8 hPa 0,0 l/m 10,1 km/h (2 Bft) O 88 0 min 0,000 mm 0,0 UV-I 0 W/m 6,1 C 4,5 C 16,1 km/h (3 Bft) 91,30 %
31.10.2015 03:18 7,3 C 92 % 1027,8 hPa 0,0 l/m 14,4 km/h (3 Bft) NO 41 0 min 0,000 mm 0,0 UV-I 0 W/m 6,1 C 2,1 C 17,7 km/h (3 Bft) 100,00 %
31.10.2015 03:19 7,3 C 92 % 1027,8 hPa 0,0 l/m 9,8 km/h (2 Bft) O 97 0 min 0,000 mm 0,0 UV-I 0 W/m 6,1 C 4,7 C 17,7 km/h (3 Bft) 100,00 %
31.10.2015 03:20 7,3 C 92 % 1027,8 hPa 0,0 l/m 10,5 km/h (2 Bft) O-SO 113 0 min 0,000 mm 0,0 UV-I 0 W/m 6,1 C 4,3 C 16,1 km/h (3 Bft) 100,00 %
31.10.2015 03:21 7,3 C 92 % 1027,8 hPa 0,0 l/m 10,5 km/h (2 Bft) O 92 0 min 0,000 mm 0,0 UV-I 0 W/m 6,1 C 4,3 C 14,5 km/h (3 Bft) 100,00 %
31.10.2015 03:22 7,3 C 92 % 1027,8 hPa 0,0 l/m 12,3 km/h (3 Bft) O 83 0 min 0,000 mm 0,0 UV-I 0 W/m 6,1 C 3,2 C 17,7 km/h (3 Bft) 100,00 %
31.10.2015 03:23 7,3 C 92 % 1027,8 hPa 0,0 l/m 9,9 km/h (2 Bft) O-SO 116 0 min 0,000 mm 0,0 UV-I 0 W/m 6,1 C 4,7 C 16,1 km/h (3 Bft) 100,00 %
31.10.2015 03:24 7,3 C 92 % 1027,8 hPa 0,0 l/m 6,9 km/h (2 Bft) O 96 0 min 0,000 mm 0,0 UV-I 0 W/m 6,1 C 6,9 C 11,3 km/h (2 Bft) 100,00 %
31.10.2015 03:25 7,3 C 92 % 1027,9 hPa 0,0 l/m 9,8 km/h (2 Bft) O-SO 113 0 min 0,000 mm 0,0 UV-I 0 W/m 6,1 C 4,7 C 14,5 km/h (3 Bft) 100,00 %
31.10.2015 03:26 7,3 C 92 % 1027,8 hPa 0,0 l/m 10,5 km/h (2 Bft) O 86 0 min 0,000 mm 0,0 UV-I 0 W/m 6,1 C 4,3 C 16,1 km/h (3 Bft) 100,00 %
31.10.2015 03:27 7,3 C 92 % 1027,8 hPa 0,0 l/m 8,6 km/h (2 Bft) NO 49 0 min 0,000 mm 0,0 UV-I 0 W/m 6,1 C 5,6 C 12,9 km/h (3 Bft) 100,00 %
31.10.2015 03:28 7,3 C 92 % 1027,8 hPa 0,0 l/m 6,4 km/h (2 Bft) O-NO 74 0 min 0,000 mm 0,0 UV-I 0 W/m 6,1 C 7,3 C 11,3 km/h (2 Bft) 100,00 %
31.10.2015 03:29 7,3 C 92 % 1027,8 hPa 0,0 l/m 8,2 km/h (2 Bft) O-SO 122 0 min 0,000 mm 0,0 UV-I 0 W/m 6,1 C 5,9 C 12,9 km/h (3 Bft) 95,65 %
31.10.2015 03:30 7,3 C 92 % 1027,8 hPa 0,0 l/m 10,3 km/h (2 Bft) O 89 0 min 0,000 mm 0,0 UV-I 0 W/m 6,1 C 4,4 C 14,5 km/h (3 Bft) 100,00 %
31.10.2015 03:31 7,3 C 92 % 1027,8 hPa 0,0 l/m 9,4 km/h (2 Bft) O-NO 76 0 min 0,000 mm 0,0 UV-I 0 W/m 6,1 C 5,0 C 12,9 km/h (3 Bft) 95,65 %
31.10.2015 03:32 7,3 C 92 % 1027,8 hPa 0,0 l/m 16,1 km/h (3 Bft) O-NO 62 0 min 0,000 mm 0,0 UV-I 0 W/m 6,1 C 1,4 C 22,5 km/h (4 Bft) 100,00 %
31.10.2015 03:33 7,3 C 92 % 1027,8 hPa 0,0 l/m 12,2 km/h (2 Bft) O-SO 118 0 min 0,000 mm 0,0 UV-I 0 W/m 6,1 C 3,3 C 17,7 km/h (3 Bft) 100,00 %
31.10.2015 03:34 7,3 C 92 % 1027,9 hPa 0,0 l/m 12,6 km/h (3 Bft) O-NO 74 0 min 0,000 mm 0,0 UV-I 0 W/m 6,1 C 3,1 C 20,9 km/h (4 Bft) 100,00 %
31.10.2015 03:35 7,2 C 92 % 1027,8 hPa 0,0 l/m 10,9 km/h (2 Bft) O-NO 71 0 min 0,000 mm 0,0 UV-I 0 W/m 6,0 C 3,9 C 14,5 km/h (3 Bft) 100,00 %
31.10.2015 03:36 7,2 C 92 % 1027,8 hPa 0,0 l/m 8,2 km/h (2 Bft) O-NO 68 0 min 0,000 mm 0,0 UV-I 0 W/m 6,0 C 5,8 C 16,1 km/h (3 Bft) 100,00 %
31.10.2015 03:37 7,2 C 92 % 1027,8 hPa 0,0 l/m 9,7 km/h (2 Bft) O 86 0 min 0,000 mm 0,0 UV-I 0 W/m 6,0 C 4,7 C 16,1 km/h (3 Bft) 100,00 %
31.10.2015 03:38 7,2 C 92 % 1027,8 hPa 0,0 l/m 12,0 km/h (2 Bft) O 86 0 min 0,000 mm 0,0 UV-I 0 W/m 6,0 C 3,3 C 17,7 km/h (3 Bft) 100,00 %
31.10.2015 03:39 7,2 C 92 % 1027,8 hPa 0,0 l/m 10,9 km/h (2 Bft) O-NO 67 0 min 0,000 mm 0,0 UV-I 0 W/m 6,0 C 3,9 C 16,1 km/h (3 Bft) 95,83 %
31.10.2015 03:40 7,2 C 92 % 1027,8 hPa 0,0 l/m 9,1 km/h (2 Bft) O-NO 67 0 min 0,000 mm 0,0 UV-I 0 W/m 6,0 C 5,1 C 17,7 km/h (3 Bft) 95,65 %
31.10.2015 03:41 7,2 C 92 % 1027,8 hPa 0,0 l/m 12,4 km/h (3 Bft) SO 140 0 min 0,000 mm 0,0 UV-I 0 W/m 6,0 C 3,1 C 22,5 km/h (4 Bft) 100,00 %
31.10.2015 03:42 7,2 C 92 % 1027,8 hPa 0,0 l/m 12,7 km/h (3 Bft) O-NO 69 0 min 0,000 mm 0,0 UV-I 0 W/m 6,0 C 2,9 C 17,7 km/h (3 Bft) 100,00 %
31.10.2015 03:43 7,2 C 92 % 1027,8 hPa 0,0 l/m 14,8 km/h (3 Bft) O-SO 120 0 min 0,000 mm 0,0 UV-I 0 W/m 6,0 C 1,8 C 24,1 km/h (4 Bft) 100,00 %
31.10.2015 03:44 7,2 C 92 % 1027,8 hPa 0,0 l/m 11,0 km/h (2 Bft) O 80 0 min 0,000 mm 0,0 UV-I 0 W/m 6,0 C 3,9 C 19,3 km/h (3 Bft) 100,00 %
31.10.2015 03:45 7,2 C 92 % 1027,9 hPa 0,0 l/m 13,9 km/h (3 Bft) O 87 0 min 0,000 mm 0,0 UV-I 0 W/m 6,0 C 2,3 C 20,9 km/h (4 Bft) 95,83 %
31.10.2015 03:46 7,2 C 92 % 1027,8 hPa 0,0 l/m 12,1 km/h (2 Bft) O 96 0 min 0,000 mm 0,0 UV-I 0 W/m 6,0 C 3,2 C 20,9 km/h (4 Bft) 100,00 %
31.10.2015 03:47 7,2 C 92 % 1027,8 hPa 0,0 l/m 15,8 km/h (3 Bft) O-NO 71 0 min 0,000 mm 0,0 UV-I 0 W/m 6,0 C 1,4 C 25,7 km/h (4 Bft) 100,00 %
31.10.2015 03:48 7,2 C 92 % 1027,9 hPa 0,0 l/m 11,9 km/h (2 Bft) O 92 0 min 0,000 mm 0,0 UV-I 0 W/m 6,0 C 3,3 C 16,1 km/h (3 Bft) 100,00 %
31.10.2015 03:49 7,2 C 92 % 1027,8 hPa 0,0 l/m 8,4 km/h (2 Bft) O 80 0 min 0,000 mm 0,0 UV-I 0 W/m 6,0 C 5,6 C 11,3 km/h (2 Bft) 95,65 %
31.10.2015 03:50 7,2 C 92 % 1027,8 hPa 0,0 l/m 10,5 km/h (2 Bft) O 95 0 min 0,000 mm 0,0 UV-I 0 W/m 6,0 C 4,2 C 14,5 km/h (3 Bft) 100,00 %
31.10.2015 03:51 7,2 C 92 % 1027,9 hPa 0,0 l/m 12,9 km/h (3 Bft) O 100 0 min 0,000 mm 0,0 UV-I 0 W/m 6,0 C 2,8 C 20,9 km/h (4 Bft) 100,00 %
31.10.2015 03:52 7,2 C 92 % 1027,8 hPa 0,0 l/m 12,3 km/h (3 Bft) O 97 0 min 0,000 mm 0,0 UV-I 0 W/m 6,0 C 3,1 C 20,9 km/h (4 Bft) 100,00 %
31.10.2015 03:53 7,2 C 92 % 1027,8 hPa 0,0 l/m 14,0 km/h (3 Bft) O-NO 65 0 min 0,000 mm 0,0 UV-I 0 W/m 6,0 C 2,2 C 20,9 km/h (4 Bft) 95,65 %
31.10.2015 03:54 7,2 C 92 % 1027,8 hPa 0,0 l/m 12,2 km/h (2 Bft) O-NO 58 0 min 0,000 mm 0,0 UV-I 0 W/m 6,0 C 3,2 C 19,3 km/h (3 Bft) 95,83 %
31.10.2015 03:55 7,1 C 92 % 1027,8 hPa 0,0 l/m 12,4 km/h (3 Bft) O-SO 107 0 min 0,000 mm 0,0 UV-I 0 W/m 5,9 C 3,0 C 16,1 km/h (3 Bft) 95,65 %
31.10.2015 03:56 7,1 C 92 % 1027,8 hPa 0,0 l/m 8,6 km/h (2 Bft) O 89 0 min 0,000 mm 0,0 UV-I 0 W/m 5,9 C 5,4 C 22,5 km/h (4 Bft) 100,00 %
31.10.2015 03:57 7,2 C 92 % 1027,8 hPa 0,0 l/m 8,4 km/h (2 Bft) O 80 0 min 0,000 mm 0,0 UV-I 0 W/m 6,0 C 5,6 C 20,9 km/h (4 Bft) 95,65 %
31.10.2015 03:58 7,1 C 93 % 1027,7 hPa 0,0 l/m 9,3 km/h (2 Bft) NO 56 0 min 0,000 mm 0,0 UV-I 0 W/m 6,0 C 4,9 C 14,5 km/h (3 Bft) 100,00 %
31.10.2015 03:59 7,1 C 93 % 1027,7 hPa 0,0 l/m 6,9 km/h (2 Bft) S-SO 148 0 min 0,000 mm 0,0 UV-I 0 W/m 6,0 C 6,7 C 14,5 km/h (3 Bft) 100,00 %
31.10.2015 04:00 7,1 C 93 % 1027,7 hPa 0,0 l/m 10,8 km/h (2 Bft) O-SO 113 0 min 0,000 mm 0,0 UV-I 0 W/m 6,0 C 3,9 C 19,3 km/h (3 Bft) 95,83 %
31.10.2015 04:02 7,1 C 93 % 1027,8 hPa 0,0 l/m 7,8 km/h (2 Bft) O 89 0 min 0,000 mm 0,0 UV-I 0 W/m 6,0 C 6,0 C 14,5 km/h (3 Bft) 100,00 %
31.10.2015 04:03 7,1 C 93 % 1027,8 hPa 0,0 l/m 8,1 km/h (2 Bft) O 80 0 min 0,000 mm 0,0 UV-I 0 W/m 6,0 C 5,7 C 14,5 km/h (3 Bft) 95,65 %
31.10.2015 04:04 7,1 C 93 % 1027,8 hPa 0,0 l/m 8,2 km/h (2 Bft) O 101 0 min 0,000 mm 0,0 UV-I 0 W/m 6,0 C 5,7 C 12,9 km/h (3 Bft) 100,00 %
31.10.2015 04:05 7,1 C 93 % 1027,8 hPa 0,0 l/m 12,4 km/h (3 Bft) O 98 0 min 0,000 mm 0,0 UV-I 0 W/m 6,0 C 3,0 C 16,1 km/h (3 Bft) 100,00 %
31.10.2015 04:06 7,1 C 93 % 1027,8 hPa 0,0 l/m 11,1 km/h (2 Bft) O-NO 61 0 min 0,000 mm 0,0 UV-I 0 W/m 6,0 C 3,7 C 19,3 km/h (3 Bft) 100,00 %
31.10.2015 04:07 7,1 C 93 % 1027,8 hPa 0,0 l/m 8,6 km/h (2 Bft) O 95 0 min 0,000 mm 0,0 UV-I 0 W/m 6,0 C 5,4 C 14,5 km/h (3 Bft) 95,65 %
31.10.2015 04:08 7,1 C 93 % 1027,8 hPa 0,0 l/m 13,1 km/h (3 Bft) O-NO 69 0 min 0,000 mm 0,0 UV-I 0 W/m 6,0 C 2,6 C 22,5 km/h (4 Bft) 100,00 %
31.10.2015 04:09 7,1 C 93 % 1027,8 hPa 0,0 l/m 15,1 km/h (3 Bft) O 88 0 min 0,000 mm 0,0 UV-I 0 W/m 6,0 C 1,6 C 20,9 km/h (4 Bft) 91,67 %
31.10.2015 04:10 7,1 C 93 % 1027,8 hPa 0,0 l/m 8,9 km/h (2 Bft) O 92 0 min 0,000 mm 0,0 UV-I 0 W/m 6,0 C 5,1 C 16,1 km/h (3 Bft) 100,00 %
31.10.2015 04:11 7,1 C 93 % 1027,8 hPa 0,0 l/m 7,4 km/h (2 Bft) NO 35 0 min 0,000 mm 0,0 UV-I 0 W/m 6,0 C 6,3 C 14,5 km/h (3 Bft) 100,00 %
31.10.2015 04:12 7,1 C 93 % 1027,8 hPa 0,0 l/m 8,6 km/h (2 Bft) O 88 0 min 0,000 mm 0,0 UV-I 0 W/m 6,0 C 5,4 C 12,9 km/h (3 Bft) 100,00 %
31.10.2015 04:13 7,1 C 93 % 1027,8 hPa 0,0 l/m 9,4 km/h (2 Bft) NO 51 0 min 0,000 mm 0,0 UV-I 0 W/m 6,0 C 4,8 C 16,1 km/h (3 Bft) 95,83 %
31.10.2015 04:14 7,1 C 93 % 1027,8 hPa 0,0 l/m 11,9 km/h (2 Bft) NO 46 0 min 0,000 mm 0,0 UV-I 0 W/m 6,0 C 3,2 C 16,1 km/h (3 Bft) 100,00 %
31.10.2015 04:15 7,1 C 93 % 1027,8 hPa 0,0 l/m 10,3 km/h (2 Bft) O-SO 111 0 min 0,000 mm 0,0 UV-I 0 W/m 6,0 C 4,2 C 16,1 km/h (3 Bft) 100,00 %
31.10.2015 04:16 7,1 C 93 % 1027,8 hPa 0,0 l/m 14,8 km/h (3 Bft) O 101 0 min 0,000 mm 0,0 UV-I 0 W/m 6,0 C 1,7 C 20,9 km/h (4 Bft) 95,65 %
31.10.2015 04:17 7,1 C 92 % 1027,8 hPa 0,0 l/m 11,7 km/h (2 Bft) O-SO 105 0 min 0,000 mm 0,0 UV-I 0 W/m 5,9 C 3,3 C 19,3 km/h (3 Bft) 100,00 %
31.10.2015 04:18 7,1 C 93 % 1027,8 hPa 0,0 l/m 12,9 km/h (3 Bft) O 88 0 min 0,000 mm 0,0 UV-I 0 W/m 6,0 C 2,7 C 17,7 km/h (3 Bft) 100,00 %
31.10.2015 04:19 7,1 C 93 % 1027,9 hPa 0,0 l/m 8,3 km/h (2 Bft) O 90 0 min 0,000 mm 0,0 UV-I 0 W/m 6,0 C 5,6 C 14,5 km/h (3 Bft) 100,00 %
31.10.2015 04:20 7,1 C 93 % 1027,9 hPa 0,0 l/m 7,4 km/h (2 Bft) O-SO 107 0 min 0,000 mm 0,0 UV-I 0 W/m 6,0 C 6,3 C 14,5 km/h (3 Bft) 95,65 %
31.10.2015 04:21 7,1 C 93 % 1027,9 hPa 0,0 l/m 12,8 km/h (3 Bft) O-NO 71 0 min 0,000 mm 0,0 UV-I 0 W/m 6,0 C 2,7 C 19,3 km/h (3 Bft) 100,00 %
31.10.2015 04:22 7,0 C 92 % 1027,9 hPa 0,0 l/m 12,3 km/h (3 Bft) O 88 0 min 0,000 mm 0,0 UV-I 0 W/m 5,8 C 2,9 C 20,9 km/h (4 Bft) 100,00 %
31.10.2015 04:23 7,1 C 92 % 1027,9 hPa 0,0 l/m 10,2 km/h (2 Bft) O-NO 78 0 min 0,000 mm 0,0 UV-I 0 W/m 5,9 C 4,3 C 16,1 km/h (3 Bft) 100,00 %
31.10.2015 04:24 7,1 C 92 % 1027,9 hPa 0,0 l/m 14,0 km/h (3 Bft) O 93 0 min 0,000 mm 0,0 UV-I 0 W/m 5,9 C 2,1 C 20,9 km/h (4 Bft) 100,00 %
31.10.2015 04:25 7,1 C 92 % 1027,9 hPa 0,0 l/m 14,0 km/h (3 Bft) NO 51 0 min 0,000 mm 0,0 UV-I 0 W/m 5,9 C 2,1 C 17,7 km/h (3 Bft) 95,83 %
31.10.2015 04:26 7,1 C 92 % 1027,8 hPa 0,0 l/m 12,9 km/h (3 Bft) O-SO 116 0 min 0,000 mm 0,0 UV-I 0 W/m 5,9 C 2,7 C 19,3 km/h (3 Bft) 95,65 %
31.10.2015 04:27 7,1 C 92 % 1027,8 hPa 0,0 l/m 9,4 km/h (2 Bft) O-NO 69 0 min 0,000 mm 0,0 UV-I 0 W/m 5,9 C 4,8 C 14,5 km/h (3 Bft) 100,00 %
31.10.2015 04:28 7,1 C 92 % 1027,8 hPa 0,0 l/m 13,0 km/h (3 Bft) NO 46 0 min 0,000 mm 0,0 UV-I 0 W/m 5,9 C 2,6 C 20,9 km/h (4 Bft) 95,65 %
31.10.2015 04:29 7,0 C 92 % 1027,9 hPa 0,0 l/m 13,3 km/h (3 Bft) S-SO 153 0 min 0,000 mm 0,0 UV-I 0 W/m 5,8 C 2,3 C 22,5 km/h (4 Bft) 100,00 %
31.10.2015 04:30 7,0 C 92 % 1027,8 hPa 0,0 l/m 11,0 km/h (2 Bft) O-SO 112 0 min 0,000 mm 0,0 UV-I 0 W/m 5,8 C 3,6 C 19,3 km/h (3 Bft) 95,65 %
31.10.2015 04:31 7,1 C 92 % 1027,8 hPa 0,0 l/m 8,5 km/h (2 Bft) NO 44 0 min 0,000 mm 0,0 UV-I 0 W/m 5,9 C 5,4 C 14,5 km/h (3 Bft) 100,00 %
31.10.2015 04:32 7,0 C 92 % 1027,8 hPa 0,0 l/m 5,8 km/h (2 Bft) O 88 0 min 0,000 mm 0,0 UV-I 0 W/m 5,8 C 7,0 C 12,9 km/h (3 Bft) 100,00 %
31.10.2015 04:33 7,0 C 92 % 1027,8 hPa 0,0 l/m 7,8 km/h (2 Bft) SO 133 0 min 0,000 mm 0,0 UV-I 0 W/m 5,8 C 5,9 C 11,3 km/h (2 Bft) 95,65 %
31.10.2015 04:34 7,0 C 93 % 1027,8 hPa 0,0 l/m 9,2 km/h (2 Bft) O 90 0 min 0,000 mm 0,0 UV-I 0 W/m 5,9 C 4,8 C 12,9 km/h (3 Bft) 100,00 %
31.10.2015 04:35 6,9 C 93 % 1027,8 hPa 0,0 l/m 10,5 km/h (2 Bft) O-NO 59 0 min 0,000 mm 0,0 UV-I 0 W/m 5,8 C 3,8 C 17,7 km/h (3 Bft) 95,83 %
31.10.2015 04:36 6,9 C 93 % 1027,8 hPa 0,0 l/m 9,0 km/h (2 Bft) O 101 0 min 0,000 mm 0,0 UV-I 0 W/m 5,8 C 4,9 C 20,9 km/h (4 Bft) 100,00 %
31.10.2015 04:37 6,9 C 93 % 1027,8 hPa 0,0 l/m 8,6 km/h (2 Bft) O 80 0 min 0,000 mm 0,0 UV-I 0 W/m 5,8 C 5,1 C 17,7 km/h (3 Bft) 95,65 %
31.10.2015 04:38 6,9 C 93 % 1027,8 hPa 0,0 l/m 8,2 km/h (2 Bft) O-NO 77 0 min 0,000 mm 0,0 UV-I 0 W/m 5,8 C 5,4 C 14,5 km/h (3 Bft) 100,00 %
31.10.2015 04:39 6,9 C 93 % 1027,8 hPa 0,0 l/m 8,0 km/h (2 Bft) O-NO 61 0 min 0,000 mm 0,0 UV-I 0 W/m 5,8 C 5,6 C 12,9 km/h (3 Bft) 100,00 %
31.10.2015 04:40 6,9 C 93 % 1027,8 hPa 0,0 l/m 9,9 km/h (2 Bft) O 101 0 min 0,000 mm 0,0 UV-I 0 W/m 5,8 C 4,2 C 16,1 km/h (3 Bft) 100,00 %
31.10.2015 04:41 6,9 C 93 % 1027,8 hPa 0,0 l/m 9,7 km/h (2 Bft) O-SO 111 0 min 0,000 mm 0,0 UV-I 0 W/m 5,8 C 4,4 C 17,7 km/h (3 Bft) 100,00 %
31.10.2015 04:42 6,9 C 92 % 1027,8 hPa 0,0 l/m 11,4 km/h (2 Bft) O 101 0 min 0,000 mm 0,0 UV-I 0 W/m 5,7 C 3,3 C 16,1 km/h (3 Bft) 100,00 %
31.10.2015 04:43 6,9 C 92 % 1027,8 hPa 0,0 l/m 10,3 km/h (2 Bft) O-NO 61 0 min 0,000 mm 0,0 UV-I 0 W/m 5,7 C 4,0 C 19,3 km/h (3 Bft) 100,00 %
31.10.2015 04:44 6,9 C 92 % 1027,8 hPa 0,0 l/m 11,6 km/h (2 Bft) O 98 0 min 0,000 mm 0,0 UV-I 0 W/m 5,7 C 3,2 C 16,1 km/h (3 Bft) 100,00 %
31.10.2015 04:45 6,9 C 92 % 1027,8 hPa 0,0 l/m 15,2 km/h (3 Bft) O 96 0 min 0,000 mm 0,0 UV-I 0 W/m 5,7 C 1,3 C 20,9 km/h (4 Bft) 98,59 %
31.10.2015 04:46 6,9 C 92 % 1027,8 hPa 0,0 l/m 12,9 km/h (3 Bft) O-NO 63 0 min 0,000 mm 0,0 UV-I 0 W/m 5,7 C 2,4 C 17,7 km/h (3 Bft) 94,74 %
31.10.2015 04:47 6,9 C 93 % 1027,8 hPa 0,0 l/m 9,3 km/h (2 Bft) O 95 0 min 0,000 mm 0,0 UV-I 0 W/m 5,8 C 4,6 C 17,7 km/h (3 Bft) 100,00 %
31.10.2015 04:48 6,9 C 92 % 1027,8 hPa 0,0 l/m 11,4 km/h (2 Bft) O 98 0 min 0,000 mm 0,0 UV-I 0 W/m 5,7 C 3,3 C 17,7 km/h (3 Bft) 96,15 %
31.10.2015 04:49 6,8 C 93 % 1027,8 hPa 0,0 l/m 5,9 km/h (2 Bft) NO 44 0 min 0,000 mm 0,0 UV-I 0 W/m 5,7 C 6,8 C 12,9 km/h (3 Bft) 100,00 %
31.10.2015 04:50 6,8 C 93 % 1027,8 hPa 0,0 l/m 10,2 km/h (2 Bft) O 82 0 min 0,000 mm 0,0 UV-I 0 W/m 5,7 C 3,9 C 16,1 km/h (3 Bft) 100,00 %
31.10.2015 04:51 6,8 C 93 % 1027,8 hPa 0,0 l/m 9,0 km/h (2 Bft) O-SO 111 0 min 0,000 mm 0,0 UV-I 0 W/m 5,7 C 4,7 C 17,7 km/h (3 Bft) 100,00 %
31.10.2015 04:52 6,8 C 93 % 1027,8 hPa 0,0 l/m 7,2 km/h (2 Bft) O-SO 111 0 min 0,000 mm 0,0 UV-I 0 W/m 5,7 C 6,1 C 12,9 km/h (3 Bft) 100,00 %
31.10.2015 04:53 6,8 C 93 % 1027,8 hPa 0,0 l/m 8,0 km/h (2 Bft) O 80 0 min 0,000 mm 0,0 UV-I 0 W/m 5,7 C 5,5 C 17,7 km/h (3 Bft) 100,00 %
31.10.2015 04:54 6,8 C 93 % 1027,8 hPa 0,0 l/m 6,4 km/h (2 Bft) O 94 0 min 0,000 mm 0,0 UV-I 0 W/m 5,7 C 6,8 C 14,5 km/h (3 Bft) 100,00 %
31.10.2015 04:55 6,7 C 93 % 1027,8 hPa 0,0 l/m 12,5 km/h (3 Bft) O-NO 73 0 min 0,000 mm 0,0 UV-I 0 W/m 5,6 C 2,4 C 20,9 km/h (4 Bft) 92,31 %
31.10.2015 04:56 6,7 C 93 % 1027,9 hPa 0,0 l/m 13,6 km/h (3 Bft) SO 134 0 min 0,000 mm 0,0 UV-I 0 W/m 5,6 C 1,8 C 20,9 km/h (4 Bft) 100,00 %
31.10.2015 04:57 6,7 C 93 % 1027,8 hPa 0,0 l/m 9,4 km/h (2 Bft) O-NO 57 0 min 0,000 mm 0,0 UV-I 0 W/m 5,6 C 4,4 C 19,3 km/h (3 Bft) 100,00 %
31.10.2015 04:58 6,7 C 93 % 1027,8 hPa 0,0 l/m 10,6 km/h (2 Bft) O-NO 63 0 min 0,000 mm 0,0 UV-I 0 W/m 5,6 C 3,6 C 17,7 km/h (3 Bft) 100,00 %
31.10.2015 04:59 6,7 C 93 % 1027,8 hPa 0,0 l/m 7,5 km/h (2 Bft) O-NO 63 0 min 0,000 mm 0,0 UV-I 0 W/m 5,6 C 5,8 C 12,9 km/h (3 Bft) 100,00 %
31.10.2015 05:00 6,7 C 93 % 1027,8 hPa 0,0 l/m 5,0 km/h (1 Bft) O-SO 121 0 min 0,000 mm 0,0 UV-I 0 W/m 5,6 C 6,7 C 12,9 km/h (3 Bft) 100,00 %
31.10.2015 05:01 6,7 C 93 % 1027,8 hPa 0,0 l/m 4,0 km/h (1 Bft) O 85 0 min 0,000 mm 0,0 UV-I 0 W/m 5,6 C 6,7 C 9,7 km/h (2 Bft) 100,00 %
31.10.2015 05:02 6,7 C 93 % 1027,8 hPa 0,0 l/m 8,0 km/h (2 Bft) O 81 0 min 0,000 mm 0,0 UV-I 0 W/m 5,6 C 5,4 C 14,5 km/h (3 Bft) 95,65 %
31.10.2015 05:03 6,7 C 93 % 1027,8 hPa 0,0 l/m 8,6 km/h (2 Bft) O-NO 71 0 min 0,000 mm 0,0 UV-I 0 W/m 5,6 C 4,9 C 12,9 km/h (3 Bft) 100,00 %
31.10.2015 05:04 6,7 C 93 % 1027,7 hPa 0,0 l/m 11,3 km/h (2 Bft) O-NO 76 0 min 0,000 mm 0,0 UV-I 0 W/m 5,6 C 3,1 C 16,1 km/h (3 Bft) 100,00 %
31.10.2015 05:05 6,6 C 93 % 1027,7 hPa 0,0 l/m 10,9 km/h (2 Bft) O-SO 109 0 min 0,000 mm 0,0 UV-I 0 W/m 5,6 C 3,3 C 16,1 km/h (3 Bft) 100,00 %
31.10.2015 05:06 6,6 C 93 % 1027,7 hPa 0,0 l/m 8,4 km/h (2 Bft) O-NO 77 0 min 0,000 mm 0,0 UV-I 0 W/m 5,6 C 5,0 C 14,5 km/h (3 Bft) 95,65 %
31.10.2015 05:07 6,6 C 93 % 1027,7 hPa 0,0 l/m 5,9 km/h (2 Bft) NO 53 0 min 0,000 mm 0,0 UV-I 0 W/m 5,6 C 6,6 C 9,7 km/h (2 Bft) 100,00 %
31.10.2015 05:08 6,6 C 93 % 1027,7 hPa 0,0 l/m 8,9 km/h (2 Bft) SO 143 0 min 0,000 mm 0,0 UV-I 0 W/m 5,6 C 4,6 C 17,7 km/h (3 Bft) 100,00 %
31.10.2015 05:09 6,6 C 93 % 1027,7 hPa 0,0 l/m 6,8 km/h (2 Bft) O 80 0 min 0,000 mm 0,0 UV-I 0 W/m 5,6 C 6,3 C 11,3 km/h (2 Bft) 100,00 %
31.10.2015 05:10 6,6 C 93 % 1027,7 hPa 0,0 l/m 8,5 km/h (2 Bft) O-NO 63 0 min 0,000 mm 0,0 UV-I 0 W/m 5,6 C 4,9 C 16,1 km/h (3 Bft) 100,00 %
31.10.2015 05:11 6,6 C 93 % 1027,7 hPa 0,0 l/m 9,1 km/h (2 Bft) O 92 0 min 0,000 mm 0,0 UV-I 0 W/m 5,6 C 4,5 C 16,1 km/h (3 Bft) 91,30 %
31.10.2015 05:12 6,6 C 93 % 1027,7 hPa 0,0 l/m 10,1 km/h (2 Bft) S-SO 153 0 min 0,000 mm 0,0 UV-I 0 W/m 5,6 C 3,8 C 16,1 km/h (3 Bft) 100,00 %
31.10.2015 05:13 6,6 C 93 % 1027,7 hPa 0,0 l/m 9,7 km/h (2 Bft) O 89 0 min 0,000 mm 0,0 UV-I 0 W/m 5,6 C 4,0 C 14,5 km/h (3 Bft) 95,65 %
31.10.2015 05:14 6,6 C 93 % 1027,7 hPa 0,0 l/m 11,0 km/h (2 Bft) SO 126 0 min 0,000 mm 0,0 UV-I 0 W/m 5,6 C 3,2 C 22,5 km/h (4 Bft) 100,00 %
31.10.2015 05:15 6,6 C 93 % 1027,7 hPa 0,0 l/m 9,3 km/h (2 Bft) O 98 0 min 0,000 mm 0,0 UV-I 0 W/m 5,6 C 4,3 C 14,5 km/h (3 Bft) 100,00 %
31.10.2015 05:16 6,6 C 93 % 1027,7 hPa 0,0 l/m 7,9 km/h (2 Bft) O 101 0 min 0,000 mm 0,0 UV-I 0 W/m 5,6 C 5,4 C 12,9 km/h (3 Bft) 100,00 %
31.10.2015 05:17 6,6 C 93 % 1027,8 hPa 0,0 l/m 6,9 km/h (2 Bft) O-SO 102 0 min 0,000 mm 0,0 UV-I 0 W/m 5,6 C 6,2 C 12,9 km/h (3 Bft) 100,00 %
31.10.2015 05:18 6,6 C 93 % 1027,7 hPa 0,0 l/m 4,7 km/h (1 Bft) N-NO 26 0 min 0,000 mm 0,0 UV-I 0 W/m 5,6 C 6,6 C 8,0 km/h (2 Bft) 100,00 %
31.10.2015 05:19 6,5 C 93 % 1027,7 hPa 0,0 l/m 8,9 km/h (2 Bft) O-NO 76 0 min 0,000 mm 0,0 UV-I 0 W/m 5,5 C 4,5 C 14,5 km/h (3 Bft) 100,00 %
31.10.2015 05:20 6,5 C 93 % 1027,7 hPa 0,0 l/m 8,8 km/h (2 Bft) O 85 0 min 0,000 mm 0,0 UV-I 0 W/m 5,5 C 4,6 C 12,9 km/h (3 Bft) 95,83 %
31.10.2015 05:21 6,5 C 93 % 1027,7 hPa 0,0 l/m 6,8 km/h (2 Bft) O-SO 103 0 min 0,000 mm 0,0 UV-I 0 W/m 5,5 C 6,2 C 14,5 km/h (3 Bft) 100,00 %
31.10.2015 05:22 6,4 C 93 % 1027,7 hPa 0,0 l/m 9,3 km/h (2 Bft) O 80 0 min 0,000 mm 0,0 UV-I 0 W/m 5,4 C 4,1 C 17,7 km/h (3 Bft) 100,00 %
31.10.2015 05:23 6,4 C 93 % 1027,7 hPa 0,0 l/m 9,5 km/h (2 Bft) O 98 0 min 0,000 mm 0,0 UV-I 0 W/m 5,4 C 4,0 C 14,5 km/h (3 Bft) 100,00 %
31.10.2015 05:24 6,4 C 93 % 1027,6 hPa 0,0 l/m 6,0 km/h (2 Bft) NO 56 0 min 0,000 mm 0,0 UV-I 0 W/m 5,4 C 6,4 C 9,7 km/h (2 Bft) 100,00 %
31.10.2015 05:25 6,4 C 93 % 1027,7 hPa 0,0 l/m 6,2 km/h (2 Bft) O 91 0 min 0,000 mm 0,0 UV-I 0 W/m 5,4 C 6,4 C 9,7 km/h (2 Bft) 100,00 %
31.10.2015 05:26 6,4 C 93 % 1027,7 hPa 0,0 l/m 5,5 km/h (1 Bft) O 85 0 min 0,000 mm 0,0 UV-I 0 W/m 5,4 C 6,4 C 8,0 km/h (2 Bft) 100,00 %
31.10.2015 05:27 6,3 C 93 % 1027,7 hPa 0,0 l/m 5,4 km/h (1 Bft) O-NO 76 0 min 0,000 mm 0,0 UV-I 0 W/m 5,3 C 6,3 C 11,3 km/h (2 Bft) 100,00 %
31.10.2015 05:28 6,3 C 93 % 1027,7 hPa 0,0 l/m 8,8 km/h (2 Bft) O-NO 71 0 min 0,000 mm 0,0 UV-I 0 W/m 5,3 C 4,4 C 14,5 km/h (3 Bft) 100,00 %
31.10.2015 05:29 6,3 C 93 % 1027,6 hPa 0,0 l/m 8,1 km/h (2 Bft) O-NO 65 0 min 0,000 mm 0,0 UV-I 0 W/m 5,3 C 4,9 C 12,9 km/h (3 Bft) 95,83 %
31.10.2015 05:30 6,3 C 93 % 1027,6 hPa 0,0 l/m 11,3 km/h (2 Bft) O-SO 115 0 min 0,000 mm 0,0 UV-I 0 W/m 5,3 C 2,7 C 17,7 km/h (3 Bft) 95,65 %
31.10.2015 05:31 6,3 C 93 % 1027,6 hPa 0,0 l/m 7,6 km/h (2 Bft) O 86 0 min 0,000 mm 0,0 UV-I 0 W/m 5,3 C 5,3 C 12,9 km/h (3 Bft) 100,00 %
31.10.2015 05:32 6,3 C 93 % 1027,7 hPa 0,0 l/m 5,9 km/h (2 Bft) O 96 0 min 0,000 mm 0,0 UV-I 0 W/m 5,3 C 6,3 C 11,3 km/h (2 Bft) 100,00 %
31.10.2015 05:33 6,3 C 93 % 1027,7 hPa 0,0 l/m 6,2 km/h (2 Bft) O-NO 59 0 min 0,000 mm 0,0 UV-I 0 W/m 5,3 C 6,3 C 11,3 km/h (2 Bft) 100,00 %
31.10.2015 05:34 6,3 C 93 % 1027,7 hPa 0,0 l/m 5,1 km/h (1 Bft) O-NO 67 0 min 0,000 mm 0,0 UV-I 0 W/m 5,3 C 6,3 C 6,4 km/h (2 Bft) 100,00 %
31.10.2015 05:35 6,2 C 93 % 1027,7 hPa 0,0 l/m 6,2 km/h (2 Bft) O 95 0 min 0,000 mm 0,0 UV-I 0 W/m 5,2 C 6,2 C 14,5 km/h (3 Bft) 95,83 %
31.10.2015 05:36 6,2 C 93 % 1027,7 hPa 0,0 l/m 4,8 km/h (1 Bft) O 82 0 min 0,000 mm 0,0 UV-I 0 W/m 5,2 C 6,2 C 8,0 km/h (2 Bft) 95,65 %
31.10.2015 05:37 6,2 C 93 % 1027,6 hPa 0,0 l/m 6,2 km/h (2 Bft) O-NO 78 0 min 0,000 mm 0,0 UV-I 0 W/m 5,2 C 6,2 C 11,3 km/h (2 Bft) 100,00 %
31.10.2015 05:38 6,2 C 93 % 1027,6 hPa 0,0 l/m 6,5 km/h (2 Bft) NO 37 0 min 0,000 mm 0,0 UV-I 0 W/m 5,2 C 6,1 C 11,3 km/h (2 Bft) 95,65 %
31.10.2015 05:39 6,2 C 93 % 1027,7 hPa 0,0 l/m 6,4 km/h (2 Bft) O 94 0 min 0,000 mm 0,0 UV-I 0 W/m 5,2 C 6,2 C 12,9 km/h (3 Bft) 100,00 %
31.10.2015 05:40 6,2 C 93 % 1027,7 hPa 0,0 l/m 5,2 km/h (1 Bft) O-SO 107 0 min 0,000 mm 0,0 UV-I 0 W/m 5,2 C 6,2 C 9,7 km/h (2 Bft) 100,00 %
31.10.2015 05:41 6,2 C 93 % 1027,7 hPa 0,0 l/m 4,6 km/h (1 Bft) O-NO 65 0 min 0,000 mm 0,0 UV-I 0 W/m 5,2 C 6,2 C 8,0 km/h (2 Bft) 100,00 %
31.10.2015 05:42 6,1 C 93 % 1027,7 hPa 0,0 l/m 5,0 km/h (1 Bft) O 99 0 min 0,000 mm 0,0 UV-I 0 W/m 5,1 C 6,1 C 6,4 km/h (2 Bft) 95,65 %
31.10.2015 05:43 6,1 C 93 % 1027,7 hPa 0,0 l/m 4,0 km/h (1 Bft) O-NO 76 0 min 0,000 mm 0,0 UV-I 0 W/m 5,1 C 6,1 C 8,0 km/h (2 Bft) 100,00 %
31.10.2015 05:44 6,1 C 94 % 1027,7 hPa 0,0 l/m 5,7 km/h (1 Bft) O-NO 73 0 min 0,000 mm 0,0 UV-I 0 W/m 5,2 C 6,1 C 11,3 km/h (2 Bft) 100,00 %
31.10.2015 05:45 6,1 C 94 % 1027,7 hPa 0,0 l/m 5,4 km/h (1 Bft) O 84 0 min 0,000 mm 0,0 UV-I 0 W/m 5,2 C 6,1 C 9,7 km/h (2 Bft) 100,00 %
31.10.2015 05:46 6,1 C 94 % 1027,8 hPa 0,0 l/m 3,1 km/h (1 Bft) O-SO 121 0 min 0,000 mm 0,0 UV-I 0 W/m 5,2 C 6,1 C 8,0 km/h (2 Bft) 100,00 %
31.10.2015 05:47 6,0 C 94 % 1027,8 hPa 0,0 l/m 3,0 km/h (1 Bft) O-SO 107 0 min 0,000 mm 0,0 UV-I 0 W/m 5,1 C 6,0 C 6,4 km/h (2 Bft) 100,00 %
31.10.2015 05:48 6,0 C 94 % 1027,8 hPa 0,0 l/m 5,1 km/h (1 Bft) O 96 0 min 0,000 mm 0,0 UV-I 0 W/m 5,1 C 6,0 C 6,4 km/h (2 Bft) 100,00 %
31.10.2015 05:49 6,0 C 94 % 1027,7 hPa 0,0 l/m 4,3 km/h (1 Bft) O 96 0 min 0,000 mm 0,0 UV-I 0 W/m 5,1 C 6,0 C 6,4 km/h (2 Bft) 100,00 %
31.10.2015 05:50 6,0 C 94 % 1027,7 hPa 0,0 l/m 5,7 km/h (1 Bft) O 98 0 min 0,000 mm 0,0 UV-I 0 W/m 5,1 C 6,0 C 8,0 km/h (2 Bft) 100,00 %
31.10.2015 05:51 5,9 C 94 % 1027,7 hPa 0,0 l/m 3,6 km/h (1 Bft) O 89 0 min 0,000 mm 0,0 UV-I 0 W/m 5,0 C 5,9 C 4,8 km/h (1 Bft) 100,00 %
31.10.2015 05:52 5,9 C 94 % 1027,7 hPa 0,0 l/m 4,8 km/h (1 Bft) O-NO 57 0 min 0,000 mm 0,0 UV-I 0 W/m 5,0 C 5,9 C 9,7 km/h (2 Bft) 100,00 %
31.10.2015 05:53 5,9 C 94 % 1027,7 hPa 0,0 l/m 4,1 km/h (1 Bft) O-NO 63 0 min 0,000 mm 0,0 UV-I 0 W/m 5,0 C 5,9 C 9,7 km/h (2 Bft) 100,00 %
31.10.2015 05:54 5,9 C 94 % 1027,7 hPa 0,0 l/m 7,3 km/h (2 Bft) O 92 0 min 0,000 mm 0,0 UV-I 0 W/m 5,0 C 5,1 C 11,3 km/h (2 Bft) 100,00 %
31.10.2015 05:55 5,9 C 94 % 1027,7 hPa 0,0 l/m 5,4 km/h (1 Bft) O 82 0 min 0,000 mm 0,0 UV-I 0 W/m 5,0 C 5,9 C 9,7 km/h (2 Bft) 95,65 %
31.10.2015 05:56 5,9 C 94 % 1027,7 hPa 0,0 l/m 4,0 km/h (1 Bft) O-SO 118 0 min 0,000 mm 0,0 UV-I 0 W/m 5,0 C 5,9 C 8,0 km/h (2 Bft) 100,00 %
31.10.2015 05:57 5,8 C 94 % 1027,7 hPa 0,0 l/m 3,6 km/h (1 Bft) O 98 0 min 0,000 mm 0,0 UV-I 0 W/m 4,9 C 5,8 C 11,3 km/h (2 Bft) 95,65 %
31.10.2015 05:58 5,8 C 94 % 1027,7 hPa 0,0 l/m 5,8 km/h (2 Bft) O-NO 74 0 min 0,000 mm 0,0 UV-I 0 W/m 4,9 C 5,8 C 9,7 km/h (2 Bft) 100,00 %
31.10.2015 05:59 5,8 C 94 % 1027,7 hPa 0,0 l/m 3,7 km/h (1 Bft) O 82 0 min 0,000 mm 0,0 UV-I 0 W/m 4,9 C 5,8 C 8,0 km/h (2 Bft) 100,00 %
31.10.2015 06:00 5,8 C 94 % 1027,7 hPa 0,0 l/m 3,9 km/h (1 Bft) NO 53 0 min 0,000 mm 0,0 UV-I 0 W/m 4,9 C 5,8 C 6,4 km/h (2 Bft) 100,00 %
31.10.2015 06:01 5,8 C 94 % 1027,8 hPa 0,0 l/m 3,1 km/h (1 Bft) O-SO 109 0 min 0,000 mm 0,0 UV-I 0 W/m 4,9 C 5,8 C 4,8 km/h (1 Bft) 100,00 %
31.10.2015 06:02 5,8 C 94 % 1027,8 hPa 0,0 l/m 5,5 km/h (1 Bft) NO 53 0 min 0,000 mm 0,0 UV-I 0 W/m 4,9 C 5,8 C 12,9 km/h (3 Bft) 100,00 %
31.10.2015 06:03 5,8 C 94 % 1027,8 hPa 0,0 l/m 4,4 km/h (1 Bft) O 98 0 min 0,000 mm 0,0 UV-I 0 W/m 4,9 C 5,8 C 6,4 km/h (2 Bft) 100,00 %
31.10.2015 06:04 5,8 C 94 % 1027,7 hPa 0,0 l/m 5,8 km/h (2 Bft) O 88 0 min 0,000 mm 0,0 UV-I 0 W/m 4,9 C 5,8 C 9,7 km/h (2 Bft) 100,00 %
31.10.2015 06:05 5,8 C 94 % 1027,7 hPa 0,0 l/m 6,5 km/h (2 Bft) O 82 0 min 0,000 mm 0,0 UV-I 0 W/m 4,9 C 5,7 C 11,3 km/h (2 Bft) 100,00 %
31.10.2015 06:06 5,8 C 94 % 1027,8 hPa 0,0 l/m 5,1 km/h (1 Bft) O-SO 106 0 min 0,000 mm 0,0 UV-I 0 W/m 4,9 C 5,8 C 11,3 km/h (2 Bft) 100,00 %
31.10.2015 06:07 5,8 C 94 % 1027,8 hPa 0,0 l/m 10,8 km/h (2 Bft) O 81 0 min 0,000 mm 0,0 UV-I 0 W/m 4,9 C 2,4 C 16,1 km/h (3 Bft) 100,00 %
31.10.2015 06:08 5,8 C 94 % 1027,7 hPa 0,0 l/m 9,5 km/h (2 Bft) O-NO 57 0 min 0,000 mm 0,0 UV-I 0 W/m 4,9 C 3,3 C 14,5 km/h (3 Bft) 100,00 %
31.10.2015 06:09 5,8 C 94 % 1027,7 hPa 0,0 l/m 7,1 km/h (2 Bft) O-NO 61 0 min 0,000 mm 0,0 UV-I 0 W/m 4,9 C 5,2 C 12,9 km/h (3 Bft) 100,00 %
31.10.2015 06:10 5,8 C 94 % 1027,8 hPa 0,0 l/m 6,0 km/h (2 Bft) O-NO 68 0 min 0,000 mm 0,0 UV-I 0 W/m 4,9 C 5,8 C 9,7 km/h (2 Bft) 100,00 %
31.10.2015 06:11 5,8 C 94 % 1027,8 hPa 0,0 l/m 6,0 km/h (2 Bft) O 81 0 min 0,000 mm 0,0 UV-I 0 W/m 4,9 C 5,8 C 12,9 km/h (3 Bft) 100,00 %
31.10.2015 06:12 5,8 C 94 % 1027,8 hPa 0,0 l/m 5,8 km/h (2 Bft) O-NO 70 0 min 0,000 mm 0,0 UV-I 0 W/m 4,9 C 5,8 C 9,7 km/h (2 Bft) 100,00 %
31.10.2015 06:13 5,8 C 93 % 1027,8 hPa 0,0 l/m 9,4 km/h (2 Bft) O-NO 77 0 min 0,000 mm 0,0 UV-I 0 W/m 4,8 C 3,4 C 14,5 km/h (3 Bft) 100,00 %
31.10.2015 06:14 5,8 C 93 % 1027,8 hPa 0,0 l/m 8,4 km/h (2 Bft) O-NO 78 0 min 0,000 mm 0,0 UV-I 0 W/m 4,8 C 4,1 C 12,9 km/h (3 Bft) 100,00 %
31.10.2015 06:15 5,8 C 93 % 1027,8 hPa 0,0 l/m 6,8 km/h (2 Bft) O-NO 69 0 min 0,000 mm 0,0 UV-I 0 W/m 4,8 C 5,5 C 11,3 km/h (2 Bft) 100,00 %
31.10.2015 06:16 5,8 C 93 % 1027,8 hPa 0,0 l/m 5,8 km/h (2 Bft) O 86 0 min 0,000 mm 0,0 UV-I 0 W/m 4,8 C 5,8 C 6,4 km/h (2 Bft) 100,00 %
31.10.2015 06:17 5,8 C 93 % 1027,8 hPa 0,0 l/m 4,6 km/h (1 Bft) O-NO 75 0 min 0,000 mm 0,0 UV-I 0 W/m 4,8 C 5,8 C 6,4 km/h (2 Bft) 100,00 %
31.10.2015 06:18 5,7 C 93 % 1027,8 hPa 0,0 l/m 5,4 km/h (1 Bft) O-NO 76 0 min 0,000 mm 0,0 UV-I 0 W/m 4,7 C 5,7 C 8,0 km/h (2 Bft) 100,00 %
31.10.2015 06:19 5,7 C 93 % 1027,8 hPa 0,0 l/m 5,3 km/h (1 Bft) O 99 0 min 0,000 mm 0,0 UV-I 0 W/m 4,7 C 5,7 C 11,3 km/h (2 Bft) 95,83 %
31.10.2015 06:20 5,7 C 93 % 1027,8 hPa 0,0 l/m 6,2 km/h (2 Bft) O 87 0 min 0,000 mm 0,0 UV-I 0 W/m 4,7 C 5,7 C 11,3 km/h (2 Bft) 95,65 %
31.10.2015 06:21 5,7 C 93 % 1027,8 hPa 0,0 l/m 3,8 km/h (1 Bft) O-NO 78 0 min 0,000 mm 0,0 UV-I 0 W/m 4,7 C 5,7 C 4,8 km/h (1 Bft) 100,00 %
31.10.2015 06:22 5,7 C 93 % 1027,8 hPa 0,0 l/m 3,6 km/h (1 Bft) NO 56 0 min 0,000 mm 0,0 UV-I 0 W/m 4,7 C 5,7 C 6,4 km/h (2 Bft) 100,00 %
31.10.2015 06:23 5,7 C 94 % 1027,9 hPa 0,0 l/m 3,4 km/h (1 Bft) O-NO 66 0 min 0,000 mm 0,0 UV-I 0 W/m 4,8 C 5,7 C 4,8 km/h (1 Bft) 95,83 %
31.10.2015 06:24 5,6 C 94 % 1027,9 hPa 0,0 l/m 3,7 km/h (1 Bft) O-NO 65 0 min 0,000 mm 0,0 UV-I 0 W/m 4,7 C 5,6 C 4,8 km/h (1 Bft) 100,00 %
31.10.2015 06:25 5,6 C 94 % 1027,8 hPa 0,0 l/m 5,6 km/h (1 Bft) O-NO 67 0 min 0,000 mm 0,0 UV-I 0 W/m 4,7 C 5,6 C 9,7 km/h (2 Bft) 95,83 %
31.10.2015 06:26 5,6 C 94 % 1027,8 hPa 0,0 l/m 8,3 km/h (2 Bft) O 86 0 min 0,000 mm 0,0 UV-I 0 W/m 4,7 C 4,0 C 12,9 km/h (3 Bft) 100,00 %
31.10.2015 06:27 5,6 C 94 % 1027,9 hPa 0,0 l/m 5,3 km/h (1 Bft) O-NO 78 0 min 0,000 mm 0,0 UV-I 0 W/m 4,7 C 5,6 C 8,0 km/h (2 Bft) 100,00 %
31.10.2015 06:28 5,6 C 94 % 1027,9 hPa 0,0 l/m 5,7 km/h (1 Bft) O 88 0 min 0,000 mm 0,0 UV-I 0 W/m 4,7 C 5,6 C 8,0 km/h (2 Bft) 100,00 %
31.10.2015 06:29 5,6 C 94 % 1027,9 hPa 0,0 l/m 5,2 km/h (1 Bft) O-NO 71 0 min 0,000 mm 0,0 UV-I 0 W/m 4,7 C 5,6 C 8,0 km/h (2 Bft) 100,00 %
31.10.2015 06:30 5,6 C 94 % 1027,9 hPa 0,0 l/m 6,4 km/h (2 Bft) O 84 0 min 0,000 mm 0,0 UV-I 0 W/m 4,7 C 5,6 C 9,7 km/h (2 Bft) 95,65 %
31.10.2015 06:31 5,6 C 94 % 1027,8 hPa 0,0 l/m 7,7 km/h (2 Bft) O-SO 105 0 min 0,000 mm 0,0 UV-I 0 W/m 4,7 C 4,5 C 12,9 km/h (3 Bft) 100,00 %
31.10.2015 06:32 5,6 C 94 % 1027,9 hPa 0,0 l/m 4,5 km/h (1 Bft) O 100 0 min 0,000 mm 0,0 UV-I 0 W/m 4,7 C 5,6 C 6,4 km/h (2 Bft) 91,67 %
31.10.2015 06:33 5,6 C 94 % 1027,9 hPa 0,0 l/m 4,1 km/h (1 Bft) O-NO 62 0 min 0,000 mm 0,0 UV-I 0 W/m 4,7 C 5,6 C 6,4 km/h (2 Bft) 100,00 %
31.10.2015 06:34 5,6 C 94 % 1027,9 hPa 0,0 l/m 6,0 km/h (2 Bft) O-SO 119 0 min 0,000 mm 0,0 UV-I 0 W/m 4,7 C 5,6 C 9,7 km/h (2 Bft) 100,00 %
31.10.2015 06:35 5,6 C 93 % 1027,9 hPa 0,0 l/m 5,5 km/h (1 Bft) O 96 0 min 0,000 mm 0,0 UV-I 0 W/m 4,6 C 5,6 C 8,0 km/h (2 Bft) 100,00 %
31.10.2015 06:36 5,6 C 93 % 1027,9 hPa 0,0 l/m 5,0 km/h (1 Bft) O-NO 68 0 min 0,000 mm 0,0 UV-I 0 W/m 4,6 C 5,6 C 9,7 km/h (2 Bft) 100,00 %
31.10.2015 06:37 5,6 C 93 % 1027,9 hPa 0,0 l/m 5,6 km/h (1 Bft) O 84 0 min 0,000 mm 0,0 UV-I 0 W/m 4,6 C 5,6 C 8,0 km/h (2 Bft) 96,15 %
31.10.2015 06:38 5,5 C 93 % 1027,9 hPa 0,0 l/m 6,0 km/h (2 Bft) O-NO 68 0 min 0,000 mm 0,0 UV-I 0 W/m 4,5 C 5,5 C 11,3 km/h (2 Bft) 100,00 %
31.10.2015 06:39 5,5 C 93 % 1027,9 hPa 0,0 l/m 4,0 km/h (1 Bft) O 86 0 min 0,000 mm 0,0 UV-I 0 W/m 4,5 C 5,5 C 8,0 km/h (2 Bft) 100,00 %
31.10.2015 06:40 5,5 C 93 % 1027,9 hPa 0,0 l/m 6,1 km/h (2 Bft) O 84 0 min 0,000 mm 0,0 UV-I 0 W/m 4,5 C 5,5 C 9,7 km/h (2 Bft) 100,00 %
31.10.2015 06:41 5,5 C 94 % 1027,9 hPa 0,0 l/m 10,0 km/h (2 Bft) O-NO 63 0 min 0,000 mm 0,0 UV-I 0 W/m 4,6 C 2,6 C 16,1 km/h (3 Bft) 100,00 %
31.10.2015 06:42 5,5 C 94 % 1027,9 hPa 0,0 l/m 10,1 km/h (2 Bft) O-SO 102 0 min 0,000 mm 0,0 UV-I 0 W/m 4,6 C 2,6 C 14,5 km/h (3 Bft) 100,00 %
31.10.2015 06:43 5,5 C 94 % 1027,9 hPa 0,0 l/m 10,0 km/h (2 Bft) O-NO 76 0 min 0,000 mm 0,0 UV-I 3 W/m 4,6 C 2,6 C 14,5 km/h (3 Bft) 100,00 %
31.10.2015 06:44 5,5 C 94 % 1027,9 hPa 0,0 l/m 11,3 km/h (2 Bft) O 101 0 min 0,000 mm 0,0 UV-I 5 W/m 4,6 C 1,8 C 14,5 km/h (3 Bft) 100,00 %
31.10.2015 06:45 5,6 C 94 % 1027,9 hPa 0,0 l/m 7,4 km/h (2 Bft) O-NO 65 0 min 0,000 mm 0,0 UV-I 5 W/m 4,7 C 4,7 C 12,9 km/h (3 Bft) 100,00 %
31.10.2015 06:46 5,6 C 94 % 1028,0 hPa 0,0 l/m 4,3 km/h (1 Bft) NO 51 0 min 0,000 mm 0,0 UV-I 5 W/m 4,7 C 5,6 C 8,0 km/h (2 Bft) 100,00 %
31.10.2015 06:47 5,5 C 93 % 1028,0 hPa 0,0 l/m 4,4 km/h (1 Bft) O 88 0 min 0,000 mm 0,0 UV-I 5 W/m 4,5 C 5,5 C 6,4 km/h (2 Bft) 100,00 %
31.10.2015 06:48 5,5 C 93 % 1028,0 hPa 0,0 l/m 3,3 km/h (1 Bft) O 84 0 min 0,000 mm 0,0 UV-I 5 W/m 4,5 C 5,5 C 6,4 km/h (2 Bft) 100,00 %
31.10.2015 06:49 5,5 C 93 % 1028,0 hPa 0,0 l/m 6,8 km/h (2 Bft) O 86 0 min 0,000 mm 0,0 UV-I 6 W/m 4,5 C 5,2 C 9,7 km/h (2 Bft) 100,00 %
31.10.2015 06:50 5,5 C 93 % 1028,0 hPa 0,0 l/m 6,1 km/h (2 Bft) O-NO 63 0 min 0,000 mm 0,0 UV-I 7 W/m 4,5 C 5,5 C 9,7 km/h (2 Bft) 100,00 %
31.10.2015 06:51 5,5 C 93 % 1028,0 hPa 0,0 l/m 3,9 km/h (1 Bft) O-NO 71 0 min 0,000 mm 0,0 UV-I 7 W/m 4,5 C 5,5 C 8,0 km/h (2 Bft) 100,00 %
31.10.2015 06:52 5,4 C 93 % 1028,0 hPa 0,0 l/m 3,7 km/h (1 Bft) O-SO 105 0 min 0,000 mm 0,0 UV-I 7 W/m 4,4 C 5,4 C 6,4 km/h (2 Bft) 100,00 %
31.10.2015 06:53 5,4 C 93 % 1028,0 hPa 0,0 l/m 3,8 km/h (1 Bft) O 94 0 min 0,000 mm 0,0 UV-I 9 W/m 4,4 C 5,4 C 4,8 km/h (1 Bft) 100,00 %
31.10.2015 06:54 5,4 C 94 % 1028,1 hPa 0,0 l/m 2,8 km/h (1 Bft) O-NO 77 0 min 0,000 mm 0,0 UV-I 10 W/m 4,5 C 5,4 C 4,8 km/h (1 Bft) 100,00 %
31.10.2015 06:55 5,4 C 94 % 1028,0 hPa 0,0 l/m 3,8 km/h (1 Bft) O-SO 113 0 min 0,000 mm 0,0 UV-I 11 W/m 4,5 C 5,4 C 6,4 km/h (2 Bft) 100,00 %
31.10.2015 06:56 5,4 C 94 % 1028,1 hPa 0,0 l/m 8,9 km/h (2 Bft) O 97 0 min 0,000 mm 0,0 UV-I 11 W/m 4,5 C 3,3 C 14,5 km/h (3 Bft) 100,00 %
31.10.2015 06:57 5,4 C 94 % 1028,1 hPa 0,0 l/m 7,1 km/h (2 Bft) O-SO 116 0 min 0,000 mm 0,0 UV-I 11 W/m 4,5 C 4,8 C 11,3 km/h (2 Bft) 100,00 %
31.10.2015 06:58 5,4 C 94 % 1028,1 hPa 0,0 l/m 5,6 km/h (1 Bft) O 84 1 min 0,000 mm 0,0 UV-I 11 W/m 4,5 C 5,4 C 9,7 km/h (2 Bft) 100,00 %
31.10.2015 06:59 5,4 C 94 % 1028,1 hPa 0,0 l/m 5,6 km/h (1 Bft) O-SO 110 1 min 0,000 mm 0,0 UV-I 11 W/m 4,5 C 5,4 C 12,9 km/h (3 Bft) 100,00 %
31.10.2015 07:00 5,4 C 94 % 1028,1 hPa 0,0 l/m 10,7 km/h (2 Bft) O-SO 115 0 min 0,000 mm 0,0 UV-I 12 W/m 4,5 C 2,0 C 12,9 km/h (3 Bft) 100,00 %
31.10.2015 07:01 5,4 C 94 % 1028,1 hPa 0,0 l/m 6,1 km/h (2 Bft) O 95 0 min 0,000 mm 0,0 UV-I 13 W/m 4,5 C 5,4 C 9,7 km/h (2 Bft) 100,00 %
31.10.2015 07:02 5,4 C 94 % 1028,1 hPa 0,0 l/m 11,1 km/h (2 Bft) O 86 0 min 0,000 mm 0,0 UV-I 14 W/m 4,5 C 1,8 C 16,1 km/h (3 Bft) 95,65 %
31.10.2015 07:03 5,5 C 94 % 1028,1 hPa 0,0 l/m 10,9 km/h (2 Bft) O 82 0 min 0,000 mm 0,0 UV-I 16 W/m 4,6 C 2,0 C 14,5 km/h (3 Bft) 100,00 %
31.10.2015 07:04 5,5 C 94 % 1028,1 hPa 0,0 l/m 9,5 km/h (2 Bft) O-NO 73 0 min 0,000 mm 0,0 UV-I 16 W/m 4,6 C 3,0 C 12,9 km/h (3 Bft) 95,65 %
31.10.2015 07:05 5,5 C 94 % 1028,1 hPa 0,0 l/m 6,9 km/h (2 Bft) O 90 0 min 0,000 mm 0,0 UV-I 18 W/m 4,6 C 5,1 C 12,9 km/h (3 Bft) 100,00 %
31.10.2015 07:06 5,6 C 94 % 1028,1 hPa 0,0 l/m 5,2 km/h (1 Bft) O 84 0 min 0,000 mm 0,0 UV-I 18 W/m 4,7 C 5,6 C 9,7 km/h (2 Bft) 100,00 %
31.10.2015 07:07 5,5 C 93 % 1028,2 hPa 0,0 l/m 4,6 km/h (1 Bft) O-SO 103 0 min 0,000 mm 0,0 UV-I 18 W/m 4,5 C 5,5 C 9,7 km/h (2 Bft) 100,00 %
31.10.2015 07:08 5,5 C 93 % 1028,2 hPa 0,0 l/m 7,8 km/h (2 Bft) NO 53 0 min 0,000 mm 0,0 UV-I 19 W/m 4,5 C 4,3 C 12,9 km/h (3 Bft) 100,00 %
31.10.2015 07:09 5,6 C 93 % 1028,2 hPa 0,0 l/m 8,1 km/h (2 Bft) O 92 0 min 0,000 mm 0,0 UV-I 21 W/m 4,6 C 4,2 C 14,5 km/h (3 Bft) 100,00 %
31.10.2015 07:10 5,5 C 94 % 1028,2 hPa 0,0 l/m 6,7 km/h (2 Bft) O-NO 59 0 min 0,000 mm 0,0 UV-I 22 W/m 4,6 C 5,3 C 12,9 km/h (3 Bft) 96,00 %
31.10.2015 07:11 5,6 C 93 % 1028,2 hPa 0,0 l/m 4,7 km/h (1 Bft) O-NO 61 0 min 0,000 mm 0,0 UV-I 25 W/m 4,6 C 5,6 C 9,7 km/h (2 Bft) 100,00 %
31.10.2015 07:12 5,6 C 93 % 1028,2 hPa 0,0 l/m 7,4 km/h (2 Bft) O-NO 72 0 min 0,000 mm 0,0 UV-I 26 W/m 4,6 C 4,7 C 12,9 km/h (3 Bft) 100,00 %
31.10.2015 07:13 5,5 C 93 % 1028,2 hPa 0,0 l/m 7,2 km/h (2 Bft) O-NO 62 0 min 0,000 mm 0,0 UV-I 27 W/m 4,5 C 4,8 C 11,3 km/h (2 Bft) 100,00 %
31.10.2015 07:14 5,6 C 93 % 1028,3 hPa 0,0 l/m 6,8 km/h (2 Bft) O 84 0 min 0,000 mm 0,0 UV-I 30 W/m 4,6 C 5,3 C 14,5 km/h (3 Bft) 100,00 %
31.10.2015 07:15 5,6 C 94 % 1028,3 hPa 0,0 l/m 5,8 km/h (2 Bft) O 88 0 min 0,000 mm 0,0 UV-I 28 W/m 4,7 C 5,6 C 8,0 km/h (2 Bft) 100,00 %
31.10.2015 07:16 5,6 C 93 % 1028,3 hPa 0,0 l/m 4,1 km/h (1 Bft) O 80 0 min 0,000 mm 0,0 UV-I 28 W/m 4,6 C 5,6 C 6,4 km/h (2 Bft) 100,00 %
31.10.2015 07:17 5,6 C 93 % 1028,3 hPa 0,0 l/m 6,7 km/h (2 Bft) NO 38 0 min 0,000 mm 0,0 UV-I 29 W/m 4,6 C 5,4 C 11,3 km/h (2 Bft) 100,00 %
31.10.2015 07:18 5,6 C 93 % 1028,3 hPa 0,0 l/m 6,3 km/h (2 Bft) O 84 0 min 0,000 mm 0,0 UV-I 32 W/m 4,6 C 5,6 C 11,3 km/h (2 Bft) 100,00 %
31.10.2015 07:19 5,6 C 93 % 1028,3 hPa 0,0 l/m 6,7 km/h (2 Bft) O-NO 76 0 min 0,000 mm 0,0 UV-I 33 W/m 4,6 C 5,4 C 12,9 km/h (3 Bft) 95,65 %
31.10.2015 07:20 5,6 C 93 % 1028,3 hPa 0,0 l/m 11,9 km/h (2 Bft) O-NO 78 0 min 0,000 mm 0,0 UV-I 35 W/m 4,6 C 1,5 C 14,5 km/h (3 Bft) 100,00 %
31.10.2015 07:21 5,6 C 94 % 1028,3 hPa 0,0 l/m 8,8 km/h (2 Bft) O-NO 71 0 min 0,000 mm 0,0 UV-I 37 W/m 4,7 C 3,6 C 14,5 km/h (3 Bft) 100,00 %
31.10.2015 07:22 5,6 C 93 % 1028,3 hPa 0,0 l/m 5,0 km/h (1 Bft) O-NO 62 0 min 0,000 mm 0,0 UV-I 41 W/m 4,6 C 5,6 C 8,0 km/h (2 Bft) 100,00 %
31.10.2015 07:23 5,6 C 94 % 1028,3 hPa 0,0 l/m 7,0 km/h (2 Bft) O 83 0 min 0,000 mm 0,0 UV-I 38 W/m 4,7 C 5,1 C 11,3 km/h (2 Bft) 95,65 %
31.10.2015 07:24 5,6 C 93 % 1028,3 hPa 0,0 l/m 7,1 km/h (2 Bft) O-NO 67 0 min 0,000 mm 0,0 UV-I 38 W/m 4,6 C 5,0 C 11,3 km/h (2 Bft) 100,00 %
31.10.2015 07:25 5,6 C 94 % 1028,4 hPa 0,0 l/m 6,1 km/h (2 Bft) O 79 0 min 0,000 mm 0,0 UV-I 40 W/m 4,7 C 5,6 C 9,7 km/h (2 Bft) 100,00 %
31.10.2015 07:26 5,6 C 93 % 1028,3 hPa 0,0 l/m 5,1 km/h (1 Bft) N-NO 19 0 min 0,000 mm 0,0 UV-I 43 W/m 4,6 C 5,6 C 9,7 km/h (2 Bft) 100,00 %
31.10.2015 07:27 5,6 C 93 % 1028,3 hPa 0,0 l/m 9,2 km/h (2 Bft) O-NO 78 0 min 0,000 mm 0,0 UV-I 42 W/m 4,6 C 3,3 C 12,9 km/h (3 Bft) 100,00 %
31.10.2015 07:28 5,6 C 94 % 1028,4 hPa 0,0 l/m 7,8 km/h (2 Bft) O-NO 76 0 min 0,000 mm 0,0 UV-I 44 W/m 4,7 C 4,4 C 12,9 km/h (3 Bft) 100,00 %
31.10.2015 07:29 5,6 C 94 % 1028,3 hPa 0,0 l/m 7,4 km/h (2 Bft) O-NO 57 0 min 0,000 mm 0,0 UV-I 44 W/m 4,7 C 4,7 C 11,3 km/h (2 Bft) 95,83 %
31.10.2015 07:30 5,6 C 94 % 1028,3 hPa 0,0 l/m 7,3 km/h (2 Bft) O-NO 74 0 min 0,000 mm 0,0 UV-I 47 W/m 4,7 C 4,8 C 11,3 km/h (2 Bft) 95,65 %
31.10.2015 07:31 5,6 C 94 % 1028,3 hPa 0,0 l/m 9,7 km/h (2 Bft) O 84 0 min 0,000 mm 0,0 UV-I 52 W/m 4,7 C 2,9 C 16,1 km/h (3 Bft) 100,00 %
31.10.2015 07:32 5,6 C 94 % 1028,3 hPa 0,0 l/m 10,8 km/h (2 Bft) O 94 0 min 0,000 mm 0,0 UV-I 53 W/m 4,7 C 2,2 C 17,7 km/h (3 Bft) 100,00 %
31.10.2015 07:33 5,6 C 94 % 1028,3 hPa 0,0 l/m 8,0 km/h (2 Bft) O-NO 76 0 min 0,000 mm 0,0 UV-I 59 W/m 4,7 C 4,2 C 14,5 km/h (3 Bft) 100,00 %
31.10.2015 07:34 5,6 C 94 % 1028,4 hPa 0,0 l/m 9,5 km/h (2 Bft) O-NO 77 0 min 0,000 mm 0,0 UV-I 60 W/m 4,7 C 3,1 C 16,1 km/h (3 Bft) 100,00 %
31.10.2015 07:35 5,7 C 94 % 1028,4 hPa 0,0 l/m 6,4 km/h (2 Bft) O-NO 76 0 min 0,000 mm 0,0 UV-I 59 W/m 4,8 C 5,7 C 16,1 km/h (3 Bft) 100,00 %
31.10.2015 07:36 5,7 C 93 % 1028,4 hPa 0,0 l/m 7,8 km/h (2 Bft) O 100 0 min 0,000 mm 0,0 UV-I 64 W/m 4,7 C 4,5 C 11,3 km/h (2 Bft) 100,00 %
31.10.2015 07:37 5,7 C 93 % 1028,4 hPa 0,0 l/m 5,5 km/h (1 Bft) O-SO 103 0 min 0,000 mm 0,0 UV-I 64 W/m 4,7 C 5,7 C 12,9 km/h (3 Bft) 95,83 %
31.10.2015 07:38 5,7 C 93 % 1028,4 hPa 0,0 l/m 7,4 km/h (2 Bft) O 99 1 min 0,000 mm 0,0 UV-I 68 W/m 4,7 C 4,8 C 12,9 km/h (3 Bft) 100,00 %
31.10.2015 07:39 5,7 C 93 % 1028,4 hPa 0,0 l/m 5,0 km/h (1 Bft) O-SO 107 0 min 0,000 mm 0,0 UV-I 68 W/m 4,7 C 5,7 C 6,4 km/h (2 Bft) 100,00 %
31.10.2015 07:40 5,7 C 93 % 1028,4 hPa 0,0 l/m 4,4 km/h (1 Bft) O 86 1 min 0,000 mm 0,0 UV-I 73 W/m 4,7 C 5,7 C 6,4 km/h (2 Bft) 100,00 %
31.10.2015 07:41 5,7 C 93 % 1028,4 hPa 0,0 l/m 6,2 km/h (2 Bft) O-NO 63 1 min 0,000 mm 0,0 UV-I 74 W/m 4,7 C 5,7 C 9,7 km/h (2 Bft) 100,00 %
31.10.2015 07:42 5,7 C 93 % 1028,4 hPa 0,0 l/m 5,9 km/h (2 Bft) O 93 1 min 0,000 mm 0,0 UV-I 74 W/m 4,7 C 5,7 C 11,3 km/h (2 Bft) 95,65 %
31.10.2015 07:43 5,7 C 93 % 1028,4 hPa 0,0 l/m 5,0 km/h (1 Bft) O 86 0 min 0,000 mm 0,0 UV-I 72 W/m 4,7 C 5,7 C 11,3 km/h (2 Bft) 100,00 %
31.10.2015 07:44 5,7 C 93 % 1028,5 hPa 0,0 l/m 6,2 km/h (2 Bft) O-NO 71 1 min 0,000 mm 0,0 UV-I 77 W/m 4,7 C 5,7 C 11,3 km/h (2 Bft) 95,65 %
31.10.2015 07:45 5,7 C 93 % 1028,5 hPa 0,0 l/m 7,4 km/h (2 Bft) O-NO 63 0 min 0,000 mm 0,0 UV-I 76 W/m 4,7 C 4,8 C 12,9 km/h (3 Bft) 100,00 %
31.10.2015 07:46 5,7 C 93 % 1028,5 hPa 0,0 l/m 6,2 km/h (2 Bft) O 96 1 min 0,000 mm 0,0 UV-I 79 W/m 4,7 C 5,7 C 9,7 km/h (2 Bft) 100,00 %
31.10.2015 07:47 5,7 C 93 % 1028,4 hPa 0,0 l/m 5,6 km/h (1 Bft) O 97 1 min 0,000 mm 0,0 UV-I 84 W/m 4,7 C 5,7 C 9,7 km/h (2 Bft) 100,00 %
31.10.2015 07:48 5,7 C 93 % 1028,4 hPa 0,0 l/m 8,2 km/h (2 Bft) O-SO 102 1 min 0,000 mm 0,0 UV-I 84 W/m 4,7 C 4,2 C 14,5 km/h (3 Bft) 100,00 %
31.10.2015 07:49 5,8 C 93 % 1028,5 hPa 0,0 l/m 10,0 km/h (2 Bft) O 93 1 min 0,000 mm 0,0 UV-I 87 W/m 4,8 C 3,0 C 16,1 km/h (3 Bft) 95,83 %
31.10.2015 07:50 5,8 C 93 % 1028,5 hPa 0,0 l/m 5,2 km/h (1 Bft) NO 48 1 min 0,000 mm 0,0 UV-I 91 W/m 4,8 C 5,8 C 9,7 km/h (2 Bft) 95,65 %
31.10.2015 07:51 5,8 C 93 % 1028,5 hPa 0,0 l/m 5,6 km/h (1 Bft) O 83 1 min 0,000 mm 0,0 UV-I 91 W/m 4,8 C 5,8 C 8,0 km/h (2 Bft) 100,00 %
31.10.2015 07:52 5,8 C 93 % 1028,5 hPa 0,0 l/m 8,7 km/h (2 Bft) O-NO 64 1 min 0,000 mm 0,0 UV-I 94 W/m 4,8 C 3,9 C 11,3 km/h (2 Bft) 91,67 %
31.10.2015 07:53 5,8 C 93 % 1028,4 hPa 0,0 l/m 8,0 km/h (2 Bft) O 88 1 min 0,000 mm 0,0 UV-I 97 W/m 4,8 C 4,4 C 11,3 km/h (2 Bft) 100,00 %
31.10.2015 07:54 5,8 C 93 % 1028,5 hPa 0,0 l/m 8,5 km/h (2 Bft) O 91 1 min 0,000 mm 0,0 UV-I 101 W/m 4,8 C 4,0 C 14,5 km/h (3 Bft) 100,00 %
31.10.2015 07:55 5,8 C 93 % 1028,5 hPa 0,0 l/m 8,4 km/h (2 Bft) O 93 1 min 0,000 mm 0,0 UV-I 99 W/m 4,8 C 4,1 C 14,5 km/h (3 Bft) 100,00 %
31.10.2015 07:56 5,9 C 93 % 1028,5 hPa 0,0 l/m 9,3 km/h (2 Bft) O 86 1 min 0,000 mm 0,0 UV-I 104 W/m 4,9 C 3,6 C 12,9 km/h (3 Bft) 100,00 %
31.10.2015 07:57 5,9 C 93 % 1028,5 hPa 0,0 l/m 8,9 km/h (2 Bft) O 85 1 min 0,000 mm 0,0 UV-I 104 W/m 4,9 C 3,9 C 17,7 km/h (3 Bft) 95,65 %
31.10.2015 07:58 5,9 C 92 % 1028,5 hPa 0,0 l/m 7,7 km/h (2 Bft) NO 45 1 min 0,000 mm 0,0 UV-I 106 W/m 4,7 C 4,8 C 12,9 km/h (3 Bft) 100,00 %
31.10.2015 07:59 5,9 C 92 % 1028,5 hPa 0,0 l/m 3,8 km/h (1 Bft) O 92 1 min 0,000 mm 0,0 UV-I 107 W/m 4,7 C 5,9 C 9,7 km/h (2 Bft) 95,65 %
31.10.2015 08:00 5,9 C 92 % 1028,5 hPa 0,0 l/m 8,7 km/h (2 Bft) O 90 1 min 0,026 mm 0,0 UV-I 111 W/m 4,7 C 4,0 C 17,7 km/h (3 Bft) 100,00 %
31.10.2015 08:01 6,0 C 92 % 1028,5 hPa 0,0 l/m 8,7 km/h (2 Bft) O 101 1 min 0,000 mm 0,0 UV-I 111 W/m 4,8 C 4,1 C 16,1 km/h (3 Bft) 100,00 %
31.10.2015 08:02 6,0 C 92 % 1028,5 hPa 0,0 l/m 9,4 km/h (2 Bft) O-NO 75 1 min 0,000 mm 0,0 UV-I 116 W/m 4,8 C 3,6 C 12,9 km/h (3 Bft) 100,00 %
31.10.2015 08:03 6,1 C 92 % 1028,5 hPa 0,0 l/m 9,0 km/h (2 Bft) N-NO 25 1 min 0,000 mm 0,0 UV-I 118 W/m 4,9 C 4,0 C 12,9 km/h (3 Bft) 100,00 %
31.10.2015 08:04 6,1 C 92 % 1028,5 hPa 0,0 l/m 5,6 km/h (1 Bft) O 81 1 min 0,000 mm 0,0 UV-I 118 W/m 4,9 C 6,1 C 9,7 km/h (2 Bft) 100,00 %
31.10.2015 08:05 6,1 C 92 % 1028,5 hPa 0,0 l/m 4,5 km/h (1 Bft) O-NO 76 1 min 0,000 mm 0,0 UV-I 119 W/m 4,9 C 6,1 C 9,7 km/h (2 Bft) 100,00 %
31.10.2015 08:06 6,1 C 92 % 1028,5 hPa 0,0 l/m 6,6 km/h (2 Bft) O 90 1 min 0,000 mm 0,0 UV-I 123 W/m 4,9 C 6,0 C 9,7 km/h (2 Bft) 95,65 %
31.10.2015 08:07 6,1 C 92 % 1028,6 hPa 0,0 l/m 6,6 km/h (2 Bft) O-NO 59 1 min 0,000 mm 0,0 UV-I 127 W/m 4,9 C 6,0 C 11,3 km/h (2 Bft) 95,83 %
31.10.2015 08:08 6,2 C 92 % 1028,6 hPa 0,0 l/m 3,8 km/h (1 Bft) O 85 1 min 0,000 mm 0,0 UV-I 125 W/m 5,0 C 6,2 C 6,4 km/h (2 Bft) 95,65 %
31.10.2015 08:09 6,2 C 92 % 1028,7 hPa 0,0 l/m 5,6 km/h (1 Bft) O-NO 71 1 min 0,000 mm 0,0 UV-I 129 W/m 5,0 C 6,2 C 9,7 km/h (2 Bft) 95,83 %
31.10.2015 08:10 6,2 C 92 % 1028,6 hPa 0,0 l/m 6,5 km/h (2 Bft) O-NO 74 1 min 0,000 mm 0,0 UV-I 129 W/m 5,0 C 6,1 C 9,7 km/h (2 Bft) 100,00 %
31.10.2015 08:11 6,2 C 92 % 1028,7 hPa 0,0 l/m 5,6 km/h (1 Bft) O 88 1 min 0,000 mm 0,0 UV-I 130 W/m 5,0 C 6,2 C 9,7 km/h (2 Bft) 100,00 %
31.10.2015 08:12 6,3 C 92 % 1028,7 hPa 0,0 l/m 7,4 km/h (2 Bft) O-NO 76 1 min 0,000 mm 0,0 UV-I 133 W/m 5,1 C 5,5 C 12,9 km/h (3 Bft) 100,00 %
31.10.2015 08:13 6,3 C 91 % 1028,7 hPa 0,0 l/m 6,8 km/h (2 Bft) O-SO 123 1 min 0,000 mm 0,0 UV-I 134 W/m 4,9 C 6,0 C 16,1 km/h (3 Bft) 100,00 %
31.10.2015 08:14 6,3 C 92 % 1028,7 hPa 0,0 l/m 2,1 km/h (1 Bft) O-SO 108 1 min 0,000 mm 0,0 UV-I 134 W/m 5,1 C 6,3 C 4,8 km/h (1 Bft) 95,65 %
31.10.2015 08:15 6,3 C 91 % 1028,8 hPa 0,0 l/m 6,0 km/h (2 Bft) O 101 1 min 0,000 mm 0,0 UV-I 137 W/m 4,9 C 6,3 C 11,3 km/h (2 Bft) 100,00 %
31.10.2015 08:16 6,4 C 91 % 1028,7 hPa 0,0 l/m 6,4 km/h (2 Bft) O 92 1 min 0,000 mm 0,0 UV-I 143 W/m 5,0 C 6,4 C 9,7 km/h (2 Bft) 100,00 %
31.10.2015 08:17 6,4 C 91 % 1028,7 hPa 0,0 l/m 6,6 km/h (2 Bft) O-SO 111 1 min 0,000 mm 0,0 UV-I 144 W/m 5,0 C 6,3 C 9,7 km/h (2 Bft) 100,00 %
31.10.2015 08:18 6,4 C 91 % 1028,7 hPa 0,0 l/m 8,9 km/h (2 Bft) O-NO 67 1 min 0,000 mm 0,0 UV-I 144 W/m 5,0 C 4,4 C 12,9 km/h (3 Bft) 100,00 %
31.10.2015 08:19 6,4 C 91 % 1028,8 hPa 0,0 l/m 7,4 km/h (2 Bft) O-NO 71 1 min 0,000 mm 0,0 UV-I 140 W/m 5,0 C 5,6 C 11,3 km/h (2 Bft) 100,00 %
31.10.2015 08:20 6,4 C 91 % 1028,7 hPa 0,0 l/m 6,1 km/h (2 Bft) O 95 1 min 0,000 mm 0,0 UV-I 150 W/m 5,0 C 6,4 C 9,7 km/h (2 Bft) 100,00 %
31.10.2015 08:21 6,5 C 91 % 1028,7 hPa 0,0 l/m 5,2 km/h (1 Bft) NO 49 1 min 0,000 mm 0,0 UV-I 156 W/m 5,1 C 6,5 C 11,3 km/h (2 Bft) 95,83 %
31.10.2015 08:22 6,5 C 91 % 1028,7 hPa 0,0 l/m 5,9 km/h (2 Bft) O-NO 57 1 min 0,000 mm 0,0 UV-I 154 W/m 5,1 C 6,5 C 9,7 km/h (2 Bft) 95,65 %
31.10.2015 08:23 6,6 C 91 % 1028,7 hPa 0,0 l/m 3,8 km/h (1 Bft) O-SO 107 1 min 0,000 mm 0,0 UV-I 160 W/m 5,2 C 6,6 C 6,4 km/h (2 Bft) 100,00 %
31.10.2015 08:24 6,6 C 91 % 1028,7 hPa 0,0 l/m 7,8 km/h (2 Bft) O 88 1 min 0,000 mm 0,0 UV-I 162 W/m 5,2 C 5,4 C 12,9 km/h (3 Bft) 100,00 %
31.10.2015 08:25 6,6 C 91 % 1028,8 hPa 0,0 l/m 5,8 km/h (2 Bft) O-NO 73 1 min 0,000 mm 0,0 UV-I 162 W/m 5,2 C 6,6 C 8,0 km/h (2 Bft) 100,00 %
31.10.2015 08:26 6,7 C 91 % 1028,7 hPa 0,0 l/m 5,4 km/h (1 Bft) O 93 1 min 0,000 mm 0,0 UV-I 168 W/m 5,3 C 6,7 C 9,7 km/h (2 Bft) 100,00 %
31.10.2015 08:27 6,7 C 91 % 1028,7 hPa 0,0 l/m 6,2 km/h (2 Bft) O-NO 70 1 min 0,000 mm 0,0 UV-I 166 W/m 5,3 C 6,7 C 12,9 km/h (3 Bft) 100,00 %
31.10.2015 08:28 6,7 C 90 % 1028,7 hPa 0,0 l/m 9,4 km/h (2 Bft) O 80 1 min 0,000 mm 0,0 UV-I 169 W/m 5,2 C 4,4 C 12,9 km/h (3 Bft) 100,00 %
31.10.2015 08:29 6,7 C 90 % 1028,6 hPa 0,0 l/m 12,3 km/h (3 Bft) O-NO 77 1 min 0,000 mm 0,0 UV-I 172 W/m 5,2 C 2,5 C 17,7 km/h (3 Bft) 95,65 %
31.10.2015 08:30 6,7 C 90 % 1028,7 hPa 0,0 l/m 9,9 km/h (2 Bft) O 81 1 min 0,000 mm 0,0 UV-I 176 W/m 5,2 C 4,0 C 14,5 km/h (3 Bft) 100,00 %
31.10.2015 08:31 6,8 C 90 % 1028,7 hPa 0,0 l/m 6,1 km/h (2 Bft) O 84 1 min 0,000 mm 0,0 UV-I 178 W/m 5,3 C 6,8 C 8,0 km/h (2 Bft) 95,65 %
31.10.2015 08:32 6,8 C 90 % 1028,7 hPa 0,0 l/m 7,1 km/h (2 Bft) O-NO 76 1 min 0,000 mm 0,0 UV-I 181 W/m 5,3 C 6,2 C 12,9 km/h (3 Bft) 95,83 %
31.10.2015 08:33 6,8 C 90 % 1028,7 hPa 0,0 l/m 6,2 km/h (2 Bft) O-NO 71 1 min 0,000 mm 0,0 UV-I 187 W/m 5,3 C 6,8 C 9,7 km/h (2 Bft) 100,00 %
31.10.2015 08:34 6,8 C 90 % 1028,7 hPa 0,0 l/m 8,9 km/h (2 Bft) O-NO 78 1 min 0,000 mm 0,0 UV-I 184 W/m 5,3 C 4,8 C 12,9 km/h (3 Bft) 100,00 %
31.10.2015 08:35 6,8 C 89 % 1028,7 hPa 0,0 l/m 8,6 km/h (2 Bft) O 80 1 min 0,000 mm 0,0 UV-I 187 W/m 5,1 C 5,0 C 12,9 km/h (3 Bft) 100,00 %
31.10.2015 08:36 6,9 C 89 % 1028,6 hPa 0,0 l/m 11,4 km/h (2 Bft) NO 45 1 min 0,000 mm 0,0 UV-I 191 W/m 5,2 C 3,3 C 17,7 km/h (3 Bft) 100,00 %
31.10.2015 08:37 6,9 C 89 % 1028,6 hPa 0,0 l/m 10,9 km/h (2 Bft) NO 52 1 min 0,000 mm 0,0 UV-I 199 W/m 5,2 C 3,6 C 14,5 km/h (3 Bft) 100,00 %
31.10.2015 08:38 6,9 C 89 % 1028,6 hPa 0,0 l/m 7,1 km/h (2 Bft) O-NO 78 1 min 0,000 mm 0,5 UV-I 198 W/m 5,2 C 6,3 C 11,3 km/h (2 Bft) 95,65 %
31.10.2015 08:39 6,9 C 89 % 1028,6 hPa 0,0 l/m 8,4 km/h (2 Bft) O-NO 71 1 min 0,000 mm 0,5 UV-I 201 W/m 5,2 C 5,3 C 12,9 km/h (3 Bft) 95,83 %
31.10.2015 08:40 6,9 C 89 % 1028,6 hPa 0,0 l/m 10,5 km/h (2 Bft) O 79 1 min 0,000 mm 0,5 UV-I 203 W/m 5,2 C 3,8 C 16,1 km/h (3 Bft) 95,65 %
31.10.2015 08:41 7,0 C 89 % 1028,7 hPa 0,0 l/m 10,5 km/h (2 Bft) O 80 1 min 0,000 mm 0,5 UV-I 205 W/m 5,3 C 4,0 C 14,5 km/h (3 Bft) 100,00 %
31.10.2015 08:42 7,0 C 89 % 1028,6 hPa 0,0 l/m 10,3 km/h (2 Bft) O 84 1 min 0,000 mm 0,5 UV-I 208 W/m 5,3 C 4,1 C 14,5 km/h (3 Bft) 100,00 %
31.10.2015 08:43 7,0 C 88 % 1028,6 hPa 0,0 l/m 9,9 km/h (2 Bft) O-NO 74 1 min 0,000 mm 0,5 UV-I 210 W/m 5,2 C 4,3 C 16,1 km/h (3 Bft) 100,00 %
31.10.2015 08:44 7,1 C 89 % 1028,7 hPa 0,0 l/m 5,6 km/h (1 Bft) SO 141 1 min 0,000 mm 0,5 UV-I 214 W/m 5,4 C 7,1 C 11,3 km/h (2 Bft) 100,00 %
31.10.2015 08:45 7,1 C 89 % 1028,7 hPa 0,0 l/m 7,0 km/h (2 Bft) O-NO 78 1 min 0,000 mm 0,5 UV-I 216 W/m 5,4 C 6,6 C 11,3 km/h (2 Bft) 95,83 %
31.10.2015 08:46 7,1 C 88 % 1028,8 hPa 0,0 l/m 9,8 km/h (2 Bft) O 81 1 min 0,000 mm 0,5 UV-I 219 W/m 5,2 C 4,5 C 16,1 km/h (3 Bft) 100,00 %
31.10.2015 08:47 7,1 C 88 % 1028,8 hPa 0,0 l/m 9,5 km/h (2 Bft) O-NO 57 1 min 0,000 mm 0,5 UV-I 221 W/m 5,2 C 4,7 C 12,9 km/h (3 Bft) 95,83 %
31.10.2015 08:48 7,1 C 88 % 1028,8 hPa 0,0 l/m 9,0 km/h (2 Bft) O-SO 107 1 min 0,000 mm 0,5 UV-I 223 W/m 5,2 C 5,1 C 12,9 km/h (3 Bft) 96,15 %
31.10.2015 08:49 7,2 C 88 % 1028,8 hPa 0,0 l/m 8,5 km/h (2 Bft) O 83 1 min 0,000 mm 0,5 UV-I 227 W/m 5,3 C 5,5 C 12,9 km/h (3 Bft) 95,83 %
31.10.2015 08:50 7,2 C 88 % 1028,8 hPa 0,0 l/m 8,9 km/h (2 Bft) O-SO 105 1 min 0,000 mm 0,5 UV-I 227 W/m 5,3 C 5,2 C 14,5 km/h (3 Bft) 95,65 %
31.10.2015 08:51 7,2 C 88 % 1028,8 hPa 0,0 l/m 7,9 km/h (2 Bft) O 80 1 min 0,000 mm 0,5 UV-I 229 W/m 5,3 C 6,0 C 16,1 km/h (3 Bft) 100,00 %
31.10.2015 08:52 7,2 C 88 % 1028,8 hPa 0,0 l/m 4,6 km/h (1 Bft) NO 44 1 min 0,000 mm 0,6 UV-I 233 W/m 5,3 C 7,2 C 9,7 km/h (2 Bft) 100,00 %
31.10.2015 08:53 7,3 C 88 % 1028,8 hPa 0,0 l/m 6,4 km/h (2 Bft) O-NO 69 1 min 0,000 mm 0,6 UV-I 235 W/m 5,4 C 7,3 C 11,3 km/h (2 Bft) 100,00 %
31.10.2015 08:54 7,3 C 88 % 1028,8 hPa 0,0 l/m 11,8 km/h (2 Bft) O 86 1 min 0,000 mm 0,6 UV-I 236 W/m 5,4 C 3,5 C 14,5 km/h (3 Bft) 100,00 %
31.10.2015 08:55 7,3 C 87 % 1028,8 hPa 0,0 l/m 8,9 km/h (2 Bft) O-SO 119 1 min 0,000 mm 0,6 UV-I 236 W/m 5,3 C 5,4 C 14,5 km/h (3 Bft) 100,00 %
31.10.2015 08:56 7,3 C 87 % 1028,8 hPa 0,0 l/m 11,5 km/h (2 Bft) O-NO 61 1 min 0,000 mm 0,6 UV-I 244 W/m 5,3 C 3,7 C 14,5 km/h (3 Bft) 100,00 %
31.10.2015 08:57 7,3 C 87 % 1028,8 hPa 0,0 l/m 11,8 km/h (2 Bft) O 88 1 min 0,000 mm 0,6 UV-I 245 W/m 5,3 C 3,5 C 17,7 km/h (3 Bft) 100,00 %
31.10.2015 08:58 7,3 C 87 % 1028,8 hPa 0,0 l/m 13,4 km/h (3 Bft) O-NO 67 1 min 0,000 mm 0,6 UV-I 246 W/m 5,3 C 2,7 C 17,7 km/h (3 Bft) 100,00 %
31.10.2015 08:59 7,3 C 87 % 1028,8 hPa 0,0 l/m 11,9 km/h (2 Bft) O 85 1 min 0,000 mm 0,6 UV-I 249 W/m 5,3 C 3,5 C 14,5 km/h (3 Bft) 100,00 %
31.10.2015 09:00 7,3 C 87 % 1028,8 hPa 0,0 l/m 11,2 km/h (2 Bft) NO 40 1 min 0,076 mm 0,6 UV-I 250 W/m 5,3 C 3,9 C 16,1 km/h (3 Bft) 100,00 %
31.10.2015 09:01 7,3 C 87 % 1028,9 hPa 0,0 l/m 9,8 km/h (2 Bft) N-NO 22 1 min 0,000 mm 0,6 UV-I 248 W/m 5,3 C 4,7 C 14,5 km/h (3 Bft) 100,00 %
31.10.2015 09:02 7,3 C 88 % 1028,8 hPa 0,0 l/m 10,8 km/h (2 Bft) O 98 1 min 0,000 mm 0,6 UV-I 256 W/m 5,4 C 4,1 C 16,1 km/h (3 Bft) 95,83 %
31.10.2015 09:03 7,4 C 87 % 1028,8 hPa 0,0 l/m 12,4 km/h (3 Bft) O 82 1 min 0,000 mm 0,7 UV-I 257 W/m 5,4 C 3,3 C 16,1 km/h (3 Bft) 91,30 %
31.10.2015 09:04 7,4 C 86 % 1028,8 hPa 0,0 l/m 14,0 km/h (3 Bft) O-NO 72 1 min 0,000 mm 0,7 UV-I 259 W/m 5,2 C 2,5 C 19,3 km/h (3 Bft) 100,00 %
31.10.2015 09:05 7,4 C 87 % 1028,8 hPa 0,0 l/m 10,1 km/h (2 Bft) O 92 1 min 0,000 mm 0,7 UV-I 261 W/m 5,4 C 4,7 C 14,5 km/h (3 Bft) 95,65 %
31.10.2015 09:06 7,4 C 86 % 1028,8 hPa 0,0 l/m 12,5 km/h (3 Bft) O 94 1 min 0,000 mm 0,7 UV-I 264 W/m 5,2 C 3,2 C 20,9 km/h (4 Bft) 100,00 %
31.10.2015 09:07 7,4 C 86 % 1028,8 hPa 0,0 l/m 12,6 km/h (3 Bft) O 92 1 min 0,000 mm 0,7 UV-I 263 W/m 5,2 C 3,2 C 20,9 km/h (4 Bft) 100,00 %
31.10.2015 09:08 7,5 C 87 % 1028,8 hPa 0,0 l/m 11,8 km/h (2 Bft) O 82 1 min 0,000 mm 0,7 UV-I 267 W/m 5,5 C 3,7 C 17,7 km/h (3 Bft) 100,00 %
31.10.2015 09:09 7,5 C 86 % 1028,9 hPa 0,0 l/m 7,8 km/h (2 Bft) O-NO 77 1 min 0,000 mm 0,7 UV-I 269 W/m 5,3 C 6,4 C 14,5 km/h (3 Bft) 100,00 %
31.10.2015 09:10 7,6 C 87 % 1028,9 hPa 0,0 l/m 7,7 km/h (2 Bft) NO 51 1 min 0,000 mm 0,7 UV-I 270 W/m 5,6 C 6,6 C 14,5 km/h (3 Bft) 100,00 %
31.10.2015 09:11 7,6 C 86 % 1028,9 hPa 0,0 l/m 9,1 km/h (2 Bft) O 93 1 min 0,000 mm 0,7 UV-I 271 W/m 5,4 C 5,5 C 14,5 km/h (3 Bft) 95,65 %
31.10.2015 09:12 7,6 C 86 % 1028,9 hPa 0,0 l/m 9,8 km/h (2 Bft) O 88 1 min 0,000 mm 0,7 UV-I 277 W/m 5,4 C 5,1 C 14,5 km/h (3 Bft) 100,00 %
31.10.2015 09:13 7,7 C 86 % 1028,9 hPa 0,0 l/m 7,6 km/h (2 Bft) O 82 1 min 0,000 mm 0,7 UV-I 278 W/m 5,5 C 6,7 C 11,3 km/h (2 Bft) 100,00 %
31.10.2015 09:14 7,7 C 86 % 1028,9 hPa 0,0 l/m 8,3 km/h (2 Bft) O-NO 68 1 min 0,000 mm 0,8 UV-I 276 W/m 5,5 C 6,2 C 12,9 km/h (3 Bft) 95,83 %
31.10.2015 09:15 7,7 C 86 % 1028,9 hPa 0,0 l/m 8,4 km/h (2 Bft) O-SO 113 1 min 0,000 mm 0,8 UV-I 277 W/m 5,5 C 6,1 C 12,9 km/h (3 Bft) 100,00 %
31.10.2015 09:16 7,7 C 86 % 1028,9 hPa 0,0 l/m 10,1 km/h (2 Bft) O-NO 71 1 min 0,000 mm 0,8 UV-I 283 W/m 5,5 C 5,0 C 16,1 km/h (3 Bft) 100,00 %
31.10.2015 09:17 7,8 C 85 % 1028,9 hPa 0,0 l/m 12,5 km/h (3 Bft) O 96 1 min 0,000 mm 0,8 UV-I 287 W/m 5,4 C 3,7 C 19,3 km/h (3 Bft) 100,00 %
31.10.2015 09:18 7,8 C 85 % 1028,9 hPa 0,0 l/m 12,0 km/h (2 Bft) O-NO 65 1 min 0,000 mm 0,8 UV-I 290 W/m 5,4 C 4,0 C 17,7 km/h (3 Bft) 100,00 %
31.10.2015 09:19 7,8 C 85 % 1028,9 hPa 0,0 l/m 9,2 km/h (2 Bft) O-SO 116 1 min 0,000 mm 0,8 UV-I 293 W/m 5,4 C 5,7 C 14,5 km/h (3 Bft) 100,00 %
31.10.2015 09:20 7,8 C 85 % 1028,9 hPa 0,0 l/m 13,0 km/h (3 Bft) O-NO 78 1 min 0,000 mm 0,8 UV-I 295 W/m 5,4 C 3,4 C 17,7 km/h (3 Bft) 100,00 %
31.10.2015 09:21 7,8 C 85 % 1029,0 hPa 0,0 l/m 11,2 km/h (2 Bft) NO 37 1 min 0,000 mm 0,8 UV-I 294 W/m 5,4 C 4,4 C 16,1 km/h (3 Bft) 100,00 %
31.10.2015 09:22 7,8 C 86 % 1029,0 hPa 0,0 l/m 10,5 km/h (2 Bft) O 82 1 min 0,000 mm 0,8 UV-I 296 W/m 5,6 C 4,9 C 14,5 km/h (3 Bft) 100,00 %
31.10.2015 09:23 7,8 C 85 % 1029,0 hPa 0,0 l/m 13,9 km/h (3 Bft) O-NO 71 1 min 0,000 mm 0,8 UV-I 297 W/m 5,4 C 3,0 C 20,9 km/h (4 Bft) 100,00 %
31.10.2015 09:24 7,8 C 85 % 1029,0 hPa 0,0 l/m 13,7 km/h (3 Bft) O 93 1 min 0,000 mm 0,8 UV-I 299 W/m 5,4 C 3,1 C 17,7 km/h (3 Bft) 95,65 %
31.10.2015 09:25 7,9 C 85 % 1029,0 hPa 0,0 l/m 14,6 km/h (3 Bft) O-NO 78 1 min 0,000 mm 0,9 UV-I 302 W/m 5,5 C 2,8 C 19,3 km/h (3 Bft) 100,00 %
31.10.2015 09:26 7,9 C 84 % 1029,0 hPa 0,0 l/m 13,6 km/h (3 Bft) O 88 1 min 0,000 mm 0,9 UV-I 303 W/m 5,4 C 3,3 C 17,7 km/h (3 Bft) 100,00 %
31.10.2015 09:27 7,9 C 84 % 1029,0 hPa 0,0 l/m 14,2 km/h (3 Bft) O 80 1 min 0,000 mm 0,9 UV-I 304 W/m 5,4 C 3,0 C 19,3 km/h (3 Bft) 95,83 %
31.10.2015 09:28 7,9 C 84 % 1029,0 hPa 0,0 l/m 11,4 km/h (2 Bft) O 88 1 min 0,000 mm 0,9 UV-I 305 W/m 5,4 C 4,4 C 16,1 km/h (3 Bft) 100,00 %
31.10.2015 09:29 8,0 C 84 % 1029,0 hPa 0,0 l/m 10,6 km/h (2 Bft) O-NO 77 1 min 0,000 mm 0,9 UV-I 310 W/m 5,5 C 5,0 C 14,5 km/h (3 Bft) 100,00 %
31.10.2015 09:30 8,1 C 85 % 1029,1 hPa 0,0 l/m 10,1 km/h (2 Bft) O 97 1 min 0,000 mm 0,9 UV-I 313 W/m 5,7 C 5,4 C 12,9 km/h (3 Bft) 95,65 %
31.10.2015 09:31 8,1 C 84 % 1029,0 hPa 0,0 l/m 13,3 km/h (3 Bft) O 80 1 min 0,000 mm 0,9 UV-I 315 W/m 5,6 C 3,6 C 17,7 km/h (3 Bft) 100,00 %
31.10.2015 09:32 8,1 C 84 % 1029,0 hPa 0,0 l/m 14,9 km/h (3 Bft) O 80 1 min 0,000 mm 0,9 UV-I 316 W/m 5,6 C 2,9 C 22,5 km/h (4 Bft) 100,00 %
31.10.2015 09:33 8,2 C 83 % 1029,0 hPa 0,0 l/m 14,8 km/h (3 Bft) O-NO 78 1 min 0,000 mm 0,9 UV-I 315 W/m 5,5 C 3,0 C 19,3 km/h (3 Bft) 95,83 %
31.10.2015 09:34 8,2 C 83 % 1029,0 hPa 0,0 l/m 11,1 km/h (2 Bft) NO 53 1 min 0,000 mm 0,9 UV-I 318 W/m 5,5 C 4,9 C 16,1 km/h (3 Bft) 100,00 %
31.10.2015 09:35 8,2 C 83 % 1029,0 hPa 0,0 l/m 13,5 km/h (3 Bft) O 96 1 min 0,000 mm 0,9 UV-I 320 W/m 5,5 C 3,7 C 20,9 km/h (4 Bft) 100,00 %
31.10.2015 09:36 8,2 C 83 % 1029,0 hPa 0,0 l/m 11,1 km/h (2 Bft) O-SO 104 1 min 0,000 mm 1,0 UV-I 323 W/m 5,5 C 4,9 C 16,1 km/h (3 Bft) 100,00 %
31.10.2015 09:37 8,3 C 84 % 1029,0 hPa 0,0 l/m 11,2 km/h (2 Bft) O-NO 78 1 min 0,000 mm 1,0 UV-I 330 W/m 5,8 C 5,0 C 16,1 km/h (3 Bft) 95,65 %
31.10.2015 09:38 8,3 C 83 % 1029,1 hPa 0,0 l/m 14,6 km/h (3 Bft) O-NO 74 1 min 0,000 mm 1,0 UV-I 329 W/m 5,6 C 3,3 C 22,5 km/h (4 Bft) 100,00 %
31.10.2015 09:39 8,3 C 82 % 1029,0 hPa 0,0 l/m 15,8 km/h (3 Bft) NO 55 1 min 0,000 mm 1,0 UV-I 329 W/m 5,4 C 2,7 C 20,9 km/h (4 Bft) 95,65 %
31.10.2015 09:40 8,3 C 82 % 1029,0 hPa 0,0 l/m 15,4 km/h (3 Bft) O-NO 75 1 min 0,000 mm 1,0 UV-I 334 W/m 5,4 C 2,9 C 24,1 km/h (4 Bft) 100,00 %
31.10.2015 09:41 8,4 C 82 % 1029,0 hPa 0,0 l/m 15,1 km/h (3 Bft) O-NO 71 1 min 0,000 mm 1,0 UV-I 331 W/m 5,5 C 3,2 C 22,5 km/h (4 Bft) 95,65 %
31.10.2015 09:42 8,4 C 82 % 1029,0 hPa 0,0 l/m 12,8 km/h (3 Bft) O-SO 107 1 min 0,000 mm 1,0 UV-I 338 W/m 5,5 C 4,3 C 19,3 km/h (3 Bft) 95,83 %
31.10.2015 09:43 8,4 C 82 % 1029,0 hPa 0,0 l/m 16,3 km/h (3 Bft) O-NO 68 1 min 0,000 mm 1,0 UV-I 337 W/m 5,5 C 2,6 C 19,3 km/h (3 Bft) 100,00 %
31.10.2015 09:44 8,4 C 82 % 1028,9 hPa 0,0 l/m 17,8 km/h (3 Bft) O-NO 74 1 min 0,000 mm 1,0 UV-I 339 W/m 5,5 C 2,0 C 22,5 km/h (4 Bft) 100,00 %
31.10.2015 09:45 8,5 C 82 % 1029,0 hPa 0,0 l/m 11,6 km/h (2 Bft) O 87 1 min 0,000 mm 1,0 UV-I 342 W/m 5,6 C 5,0 C 17,7 km/h (3 Bft) 95,65 %
31.10.2015 09:46 8,6 C 83 % 1029,0 hPa 0,0 l/m 10,5 km/h (2 Bft) O 92 1 min 0,000 mm 1,1 UV-I 345 W/m 5,9 C 5,7 C 20,9 km/h (4 Bft) 100,00 %
31.10.2015 09:47 8,6 C 82 % 1029,0 hPa 0,0 l/m 12,2 km/h (2 Bft) NO 44 1 min 0,000 mm 1,1 UV-I 343 W/m 5,7 C 4,8 C 19,3 km/h (3 Bft) 100,00 %
31.10.2015 09:48 8,6 C 81 % 1029,0 hPa 0,0 l/m 14,4 km/h (3 Bft) O-NO 67 1 min 0,000 mm 1,1 UV-I 346 W/m 5,5 C 3,7 C 19,3 km/h (3 Bft) 96,30 %
31.10.2015 09:49 8,7 C 81 % 1029,0 hPa 0,0 l/m 14,3 km/h (3 Bft) O-NO 59 1 min 0,000 mm 1,1 UV-I 349 W/m 5,6 C 3,9 C 19,3 km/h (3 Bft) 95,65 %
31.10.2015 09:50 8,7 C 81 % 1028,9 hPa 0,0 l/m 11,1 km/h (2 Bft) O 79 1 min 0,000 mm 1,1 UV-I 351 W/m 5,6 C 5,5 C 17,7 km/h (3 Bft) 100,00 %
31.10.2015 09:51 8,8 C 82 % 1029,0 hPa 0,0 l/m 11,0 km/h (2 Bft) O 82 1 min 0,000 mm 1,1 UV-I 353 W/m 5,9 C 5,7 C 19,3 km/h (3 Bft) 100,00 %
31.10.2015 09:52 8,8 C 81 % 1028,9 hPa 0,0 l/m 10,8 km/h (2 Bft) O-SO 111 1 min 0,000 mm 1,1 UV-I 354 W/m 5,7 C 5,8 C 17,7 km/h (3 Bft) 100,00 %
31.10.2015 09:53 8,8 C 82 % 1028,9 hPa 0,0 l/m 8,2 km/h (2 Bft) O 98 1 min 0,000 mm 1,1 UV-I 365 W/m 5,9 C 7,5 C 12,9 km/h (3 Bft) 100,00 %
31.10.2015 09:54 8,9 C 82 % 1028,9 hPa 0,0 l/m 9,9 km/h (2 Bft) O 94 1 min 0,000 mm 1,1 UV-I 360 W/m 6,0 C 6,4 C 16,1 km/h (3 Bft) 100,00 %
31.10.2015 09:55 9,0 C 81 % 1028,8 hPa 0,0 l/m 6,4 km/h (2 Bft) O-SO 103 1 min 0,000 mm 1,1 UV-I 359 W/m 5,9 C 9,0 C 11,3 km/h (2 Bft) 100,00 %
31.10.2015 09:56 9,1 C 81 % 1028,9 hPa 0,0 l/m 13,2 km/h (3 Bft) NO 53 1 min 0,000 mm 1,1 UV-I 362 W/m 6,0 C 4,9 C 16,1 km/h (3 Bft) 100,00 %
31.10.2015 09:57 9,1 C 81 % 1028,8 hPa 0,0 l/m 10,8 km/h (2 Bft) O 93 1 min 0,000 mm 1,2 UV-I 365 W/m 6,0 C 6,1 C 17,7 km/h (3 Bft) 100,00 %
31.10.2015 09:58 9,2 C 81 % 1028,9 hPa 0,0 l/m 9,3 km/h (2 Bft) O-NO 78 1 min 0,000 mm 1,2 UV-I 364 W/m 6,1 C 7,1 C 14,5 km/h (3 Bft) 91,30 %
31.10.2015 09:59 9,2 C 82 % 1028,9 hPa 0,0 l/m 5,9 km/h (2 Bft) O 90 1 min 0,000 mm 1,2 UV-I 366 W/m 6,3 C 9,2 C 14,5 km/h (3 Bft) 100,00 %
31.10.2015 10:00 9,3 C 80 % 1028,9 hPa 0,0 l/m 11,3 km/h (2 Bft) O-NO 69 1 min 0,000 mm 1,2 UV-I 367 W/m 6,0 C 6,1 C 16,1 km/h (3 Bft) 100,00 %
31.10.2015 10:01 9,3 C 80 % 1028,9 hPa 0,0 l/m 8,3 km/h (2 Bft) O 92 1 min 0,152 mm 1,2 UV-I 369 W/m 6,0 C 7,9 C 16,1 km/h (3 Bft) 95,83 %
31.10.2015 10:02 9,3 C 81 % 1028,9 hPa 0,0 l/m 9,1 km/h (2 Bft) O 83 1 min 0,000 mm 1,2 UV-I 371 W/m 6,2 C 7,4 C 12,9 km/h (3 Bft) 100,00 %
31.10.2015 10:03 9,3 C 80 % 1028,9 hPa 0,0 l/m 8,4 km/h (2 Bft) NO 54 1 min 0,000 mm 1,2 UV-I 378 W/m 6,0 C 7,8 C 16,1 km/h (3 Bft) 95,83 %
31.10.2015 10:04 9,4 C 80 % 1028,9 hPa 0,0 l/m 9,3 km/h (2 Bft) O 85 1 min 0,000 mm 1,2 UV-I 375 W/m 6,1 C 7,4 C 14,5 km/h (3 Bft) 100,00 %
31.10.2015 10:05 9,4 C 79 % 1028,9 hPa 0,0 l/m 11,3 km/h (2 Bft) SO 132 1 min 0,000 mm 1,2 UV-I 376 W/m 5,9 C 6,2 C 17,7 km/h (3 Bft) 100,00 %
31.10.2015 10:06 9,4 C 80 % 1028,9 hPa 0,0 l/m 9,3 km/h (2 Bft) O 81 1 min 0,000 mm 1,2 UV-I 376 W/m 6,1 C 7,4 C 14,5 km/h (3 Bft) 100,00 %
31.10.2015 10:07 9,5 C 79 % 1028,9 hPa 0,0 l/m 10,6 km/h (2 Bft) O-NO 67 1 min 0,000 mm 1,2 UV-I 380 W/m 6,0 C 6,7 C 16,1 km/h (3 Bft) 95,83 %
31.10.2015 10:08 9,5 C 79 % 1028,8 hPa 0,0 l/m 9,0 km/h (2 Bft) O 98 1 min 0,000 mm 1,3 UV-I 381 W/m 6,0 C 7,7 C 14,5 km/h (3 Bft) 100,00 %
31.10.2015 10:09 9,6 C 78 % 1028,9 hPa 0,0 l/m 9,1 km/h (2 Bft) O-SO 106 1 min 0,000 mm 1,3 UV-I 380 W/m 6,0 C 7,7 C 14,5 km/h (3 Bft) 100,00 %
31.10.2015 10:10 9,6 C 77 % 1028,9 hPa 0,0 l/m 10,1 km/h (2 Bft) SO 140 1 min 0,000 mm 1,3 UV-I 382 W/m 5,8 C 7,1 C 16,1 km/h (3 Bft) 100,00 %
31.10.2015 10:11 9,5 C 78 % 1028,9 hPa 0,0 l/m 11,7 km/h (2 Bft) O 82 1 min 0,000 mm 1,3 UV-I 387 W/m 5,9 C 6,1 C 16,1 km/h (3 Bft) 100,00 %
31.10.2015 10:12 9,6 C 78 % 1028,9 hPa 0,0 l/m 14,1 km/h (3 Bft) O 94 1 min 0,000 mm 1,3 UV-I 386 W/m 6,0 C 5,0 C 20,9 km/h (4 Bft) 100,00 %
31.10.2015 10:13 9,6 C 77 % 1028,8 hPa 0,0 l/m 16,8 km/h (3 Bft) SO 125 1 min 0,000 mm 1,3 UV-I 388 W/m 5,8 C 3,9 C 22,5 km/h (4 Bft) 100,00 %
31.10.2015 10:14 9,6 C 78 % 1028,8 hPa 0,0 l/m 9,8 km/h (2 Bft) O-SO 105 1 min 0,000 mm 1,3 UV-I 389 W/m 6,0 C 7,3 C 14,5 km/h (3 Bft) 100,00 %
31.10.2015 10:15 9,6 C 78 % 1028,9 hPa 0,0 l/m 7,6 km/h (2 Bft) O 92 1 min 0,000 mm 1,3 UV-I 391 W/m 6,0 C 8,7 C 12,9 km/h (3 Bft) 100,00 %
31.10.2015 10:16 9,6 C 77 % 1028,9 hPa 0,0 l/m 10,6 km/h (2 Bft) O-NO 71 1 min 0,000 mm 1,3 UV-I 392 W/m 5,8 C 6,8 C 16,1 km/h (3 Bft) 100,00 %
31.10.2015 10:17 9,6 C 77 % 1028,9 hPa 0,0 l/m 11,6 km/h (2 Bft) O-NO 72 1 min 0,000 mm 1,3 UV-I 393 W/m 5,8 C 6,3 C 19,3 km/h (3 Bft) 100,00 %
31.10.2015 10:18 9,6 C 78 % 1029,0 hPa 0,0 l/m 10,2 km/h (2 Bft) O 101 1 min 0,000 mm 1,3 UV-I 395 W/m 6,0 C 7,0 C 14,5 km/h (3 Bft) 100,00 %
31.10.2015 10:19 9,7 C 78 % 1029,0 hPa 0,0 l/m 10,6 km/h (2 Bft) O-SO 115 1 min 0,000 mm 1,3 UV-I 394 W/m 6,1 C 6,9 C 16,1 km/h (3 Bft) 95,65 %
31.10.2015 10:20 9,7 C 77 % 1029,0 hPa 0,0 l/m 10,6 km/h (2 Bft) O 93 1 min 0,000 mm 1,3 UV-I 395 W/m 5,9 C 6,9 C 14,5 km/h (3 Bft) 100,00 %
31.10.2015 10:21 9,7 C 77 % 1029,0 hPa 0,0 l/m 8,9 km/h (2 Bft) O-SO 110 1 min 0,000 mm 1,3 UV-I 398 W/m 5,9 C 7,9 C 14,5 km/h (3 Bft) 100,00 %
31.10.2015 10:22 9,7 C 78 % 1029,0 hPa 0,0 l/m 8,2 km/h (2 Bft) O 92 1 min 0,000 mm 1,4 UV-I 399 W/m 6,1 C 8,4 C 14,5 km/h (3 Bft) 100,00 %
31.10.2015 10:23 9,7 C 77 % 1028,9 hPa 0,0 l/m 12,2 km/h (2 Bft) O-NO 61 1 min 0,000 mm 1,4 UV-I 399 W/m 5,9 C 6,1 C 19,3 km/h (3 Bft) 100,00 %
31.10.2015 10:24 9,8 C 77 % 1028,9 hPa 0,0 l/m 7,6 km/h (2 Bft) N-NO 22 1 min 0,000 mm 1,4 UV-I 401 W/m 6,0 C 8,9 C 14,5 km/h (3 Bft) 96,30 %
31.10.2015 10:25 9,8 C 77 % 1029,0 hPa 0,0 l/m 9,5 km/h (2 Bft) O-NO 68 1 min 0,000 mm 1,4 UV-I 402 W/m 6,0 C 7,7 C 12,9 km/h (3 Bft) 92,86 %
31.10.2015 10:26 9,8 C 77 % 1029,0 hPa 0,0 l/m 11,5 km/h (2 Bft) O-NO 71 1 min 0,000 mm 1,4 UV-I 405 W/m 6,0 C 6,5 C 17,7 km/h (3 Bft) 100,00 %
31.10.2015 10:27 9,8 C 78 % 1029,0 hPa 0,0 l/m 9,8 km/h (2 Bft) O-NO 67 1 min 0,000 mm 1,4 UV-I 406 W/m 6,1 C 7,5 C 14,5 km/h (3 Bft) 100,00 %
31.10.2015 10:28 9,8 C 77 % 1029,0 hPa 0,0 l/m 9,5 km/h (2 Bft) O-NO 77 1 min 0,000 mm 1,4 UV-I 408 W/m 6,0 C 7,7 C 12,9 km/h (3 Bft) 100,00 %
31.10.2015 10:29 9,9 C 77 % 1029,0 hPa 0,0 l/m 9,1 km/h (2 Bft) O-NO 74 1 min 0,000 mm 1,4 UV-I 405 W/m 6,1 C 8,0 C 14,5 km/h (3 Bft) 100,00 %
31.10.2015 10:30 9,9 C 77 % 1028,9 hPa 0,0 l/m 12,0 km/h (2 Bft) O 96 1 min 0,000 mm 1,4 UV-I 411 W/m 6,1 C 6,4 C 16,1 km/h (3 Bft) 100,00 %
31.10.2015 10:31 9,9 C 76 % 1028,9 hPa 0,0 l/m 9,0 km/h (2 Bft) O 101 1 min 0,000 mm 1,4 UV-I 416 W/m 5,9 C 8,1 C 14,5 km/h (3 Bft) 95,65 %
31.10.2015 10:32 9,9 C 76 % 1029,0 hPa 0,0 l/m 10,2 km/h (2 Bft) O 96 1 min 0,000 mm 1,4 UV-I 416 W/m 5,9 C 7,4 C 17,7 km/h (3 Bft) 100,00 %
31.10.2015 10:33 10,0 C 77 % 1029,0 hPa 0,0 l/m 9,3 km/h (2 Bft) O-NO 67 1 min 0,000 mm 1,4 UV-I 413 W/m 6,2 C 8,0 C 12,9 km/h (3 Bft) 95,65 %
31.10.2015 10:34 10,0 C 77 % 1029,0 hPa 0,0 l/m 10,5 km/h (2 Bft) O 82 1 min 0,000 mm 1,4 UV-I 414 W/m 6,2 C 7,3 C 14,5 km/h (3 Bft) 91,67 %
31.10.2015 10:35 10,1 C 77 % 1028,9 hPa 0,0 l/m 8,0 km/h (2 Bft) O-NO 69 1 min 0,000 mm 1,4 UV-I 412 W/m 6,3 C 9,0 C 16,1 km/h (3 Bft) 100,00 %
31.10.2015 10:36 10,1 C 77 % 1028,9 hPa 0,0 l/m 12,0 km/h (2 Bft) O-NO 63 1 min 0,000 mm 1,5 UV-I 416 W/m 6,3 C 6,6 C 19,3 km/h (3 Bft) 100,00 %
31.10.2015 10:37 10,1 C 76 % 1028,9 hPa 0,0 l/m 10,9 km/h (2 Bft) O 80 1 min 0,000 mm 1,5 UV-I 416 W/m 6,1 C 7,2 C 17,7 km/h (3 Bft) 100,00 %
31.10.2015 10:38 10,1 C 76 % 1028,9 hPa 0,0 l/m 10,8 km/h (2 Bft) O 90 1 min 0,000 mm 1,5 UV-I 419 W/m 6,1 C 7,3 C 19,3 km/h (3 Bft) 100,00 %
31.10.2015 10:39 10,1 C 76 % 1028,9 hPa 0,0 l/m 11,9 km/h (2 Bft) NO 51 1 min 0,000 mm 1,5 UV-I 422 W/m 6,1 C 6,7 C 19,3 km/h (3 Bft) 100,00 %
31.10.2015 10:40 10,2 C 76 % 1028,9 hPa 0,0 l/m 13,1 km/h (3 Bft) O-NO 68 1 min 0,000 mm 1,5 UV-I 424 W/m 6,2 C 6,2 C 19,3 km/h (3 Bft) 100,00 %
31.10.2015 10:41 10,2 C 76 % 1028,9 hPa 0,0 l/m 12,6 km/h (3 Bft) O 86 1 min 0,000 mm 1,5 UV-I 429 W/m 6,2 C 6,5 C 16,1 km/h (3 Bft) 96,30 %
31.10.2015 10:42 10,2 C 75 % 1028,9 hPa 0,0 l/m 11,6 km/h (2 Bft) O-SO 103 1 min 0,000 mm 1,5 UV-I 428 W/m 6,0 C 6,9 C 17,7 km/h (3 Bft) 95,65 %
31.10.2015 10:43 10,3 C 76 % 1028,9 hPa 0,0 l/m 10,4 km/h (2 Bft) O-NO 61 1 min 0,000 mm 1,5 UV-I 428 W/m 6,3 C 7,7 C 16,1 km/h (3 Bft) 100,00 %
31.10.2015 10:44 10,3 C 75 % 1028,9 hPa 0,0 l/m 13,2 km/h (3 Bft) O 85 1 min 0,000 mm 1,5 UV-I 426 W/m 6,1 C 6,3 C 19,3 km/h (3 Bft) 100,00 %
31.10.2015 10:45 10,3 C 75 % 1028,9 hPa 0,0 l/m 12,3 km/h (3 Bft) O 84 1 min 0,000 mm 1,5 UV-I 425 W/m 6,1 C 6,7 C 16,1 km/h (3 Bft) 100,00 %
31.10.2015 10:46 10,4 C 75 % 1028,9 hPa 0,0 l/m 10,8 km/h (2 Bft) O 90 1 min 0,000 mm 1,5 UV-I 426 W/m 6,2 C 7,6 C 16,1 km/h (3 Bft) 95,65 %
31.10.2015 10:47 10,4 C 75 % 1028,9 hPa 0,0 l/m 12,5 km/h (3 Bft) O 82 1 min 0,000 mm 1,5 UV-I 430 W/m 6,2 C 6,7 C 16,1 km/h (3 Bft) 100,00 %
31.10.2015 10:48 10,4 C 74 % 1028,9 hPa 0,0 l/m 9,7 km/h (2 Bft) O 90 1 min 0,000 mm 1,5 UV-I 428 W/m 6,0 C 8,2 C 12,9 km/h (3 Bft) 91,30 %
31.10.2015 10:49 10,4 C 76 % 1028,9 hPa 0,0 l/m 10,8 km/h (2 Bft) O-NO 75 1 min 0,000 mm 1,5 UV-I 432 W/m 6,4 C 7,6 C 16,1 km/h (3 Bft) 100,00 %
31.10.2015 10:50 10,6 C 75 % 1029,0 hPa 0,0 l/m 8,1 km/h (2 Bft) O 94 1 min 0,000 mm 1,6 UV-I 437 W/m 6,4 C 9,4 C 11,3 km/h (2 Bft) 91,30 %
31.10.2015 10:51 10,6 C 75 % 1028,9 hPa 0,0 l/m 8,8 km/h (2 Bft) O 95 1 min 0,000 mm 1,6 UV-I 435 W/m 6,4 C 9,0 C 12,9 km/h (3 Bft) 91,67 %
31.10.2015 10:52 10,7 C 74 % 1028,9 hPa 0,0 l/m 10,5 km/h (2 Bft) O 80 1 min 0,000 mm 1,6 UV-I 431 W/m 6,3 C 8,1 C 16,1 km/h (3 Bft) 95,65 %
31.10.2015 10:53 10,7 C 73 % 1028,8 hPa 0,0 l/m 11,3 km/h (2 Bft) NO 56 1 min 0,000 mm 1,6 UV-I 434 W/m 6,1 C 7,7 C 14,5 km/h (3 Bft) 95,83 %
31.10.2015 10:54 10,7 C 73 % 1028,9 hPa 0,0 l/m 11,8 km/h (2 Bft) O 80 1 min 0,000 mm 1,6 UV-I 436 W/m 6,1 C 7,4 C 16,1 km/h (3 Bft) 100,00 %
31.10.2015 10:55 10,7 C 73 % 1028,9 hPa 0,0 l/m 9,3 km/h (2 Bft) O-NO 61 1 min 0,000 mm 1,6 UV-I 437 W/m 6,1 C 8,8 C 14,5 km/h (3 Bft) 100,00 %
31.10.2015 10:56 10,7 C 73 % 1028,9 hPa 0,0 l/m 6,4 km/h (2 Bft) NO 43 1 min 0,000 mm 1,6 UV-I 435 W/m 6,1 C 10,7 C 12,9 km/h (3 Bft) 95,65 %
31.10.2015 10:57 10,8 C 73 % 1028,9 hPa 0,0 l/m 9,7 km/h (2 Bft) O-NO 76 1 min 0,000 mm 1,6 UV-I 434 W/m 6,2 C 8,6 C 14,5 km/h (3 Bft) 100,00 %
31.10.2015 10:58 10,8 C 74 % 1029,0 hPa 0,0 l/m 10,9 km/h (2 Bft) NO 49 1 min 0,000 mm 1,6 UV-I 444 W/m 6,4 C 8,0 C 17,7 km/h (3 Bft) 100,00 %
31.10.2015 10:59 10,8 C 73 % 1028,9 hPa 0,0 l/m 9,9 km/h (2 Bft) O 80 1 min 0,000 mm 1,6 UV-I 438 W/m 6,2 C 8,5 C 14,5 km/h (3 Bft) 100,00 %
31.10.2015 11:00 10,9 C 73 % 1029,0 hPa 0,0 l/m 12,3 km/h (3 Bft) O-SO 108 1 min 0,000 mm 1,6 UV-I 439 W/m 6,3 C 7,4 C 14,5 km/h (3 Bft) 95,83 %
31.10.2015 11:01 10,9 C 74 % 1029,0 hPa 0,0 l/m 6,0 km/h (2 Bft) O 100 1 min 0,203 mm 1,6 UV-I 441 W/m 6,5 C 10,9 C 12,9 km/h (3 Bft) 100,00 %
31.10.2015 11:02 11,0 C 74 % 1028,9 hPa 0,0 l/m 5,2 km/h (1 Bft) N-NO 29 1 min 0,001 mm 1,6 UV-I 442 W/m 6,5 C 11,0 C 11,3 km/h (2 Bft) 95,83 %
31.10.2015 11:03 11,1 C 75 % 1028,9 hPa 0,0 l/m 7,6 km/h (2 Bft) O 96 1 min 0,000 mm 1,6 UV-I 444 W/m 6,8 C 10,3 C 11,3 km/h (2 Bft) 100,00 %
31.10.2015 11:04 11,2 C 73 % 1028,9 hPa 0,0 l/m 10,6 km/h (2 Bft) O-NO 64 1 min 0,000 mm 1,6 UV-I 439 W/m 6,5 C 8,6 C 16,1 km/h (3 Bft) 95,83 %
31.10.2015 11:05 11,2 C 72 % 1029,0 hPa 0,0 l/m 10,4 km/h (2 Bft) O-NO 77 1 min 0,000 mm 1,6 UV-I 442 W/m 6,3 C 8,7 C 17,7 km/h (3 Bft) 95,65 %
31.10.2015 11:06 11,2 C 72 % 1029,0 hPa 0,0 l/m 10,7 km/h (2 Bft) O 91 1 min 0,000 mm 1,6 UV-I 443 W/m 6,3 C 8,5 C 17,7 km/h (3 Bft) 100,00 %
31.10.2015 11:07 11,1 C 72 % 1028,9 hPa 0,0 l/m 11,9 km/h (2 Bft) O 94 1 min 0,000 mm 1,6 UV-I 444 W/m 6,2 C 7,8 C 19,3 km/h (3 Bft) 100,00 %
31.10.2015 11:08 11,1 C 72 % 1028,9 hPa 0,0 l/m 8,7 km/h (2 Bft) O-SO 102 1 min 0,000 mm 1,7 UV-I 446 W/m 6,2 C 9,6 C 14,5 km/h (3 Bft) 95,83 %
31.10.2015 11:09 11,1 C 72 % 1028,9 hPa 0,0 l/m 9,3 km/h (2 Bft) O 84 1 min 0,000 mm 1,6 UV-I 446 W/m 6,2 C 9,2 C 14,5 km/h (3 Bft) 95,65 %
31.10.2015 11:10 11,2 C 73 % 1028,9 hPa 0,0 l/m 8,1 km/h (2 Bft) O-SO 102 1 min 0,000 mm 1,7 UV-I 446 W/m 6,5 C 10,0 C 14,5 km/h (3 Bft) 100,00 %
31.10.2015 11:11 11,2 C 72 % 1028,9 hPa 0,0 l/m 9,6 km/h (2 Bft) O 90 1 min 0,000 mm 1,7 UV-I 446 W/m 6,3 C 9,1 C 14,5 km/h (3 Bft) 92,00 %
31.10.2015 11:12 11,2 C 72 % 1028,9 hPa 0,0 l/m 11,6 km/h (2 Bft) O 84 1 min 0,000 mm 1,7 UV-I 446 W/m 6,3 C 8,1 C 16,1 km/h (3 Bft) 100,00 %
31.10.2015 11:13 11,2 C 72 % 1028,9 hPa 0,0 l/m 13,1 km/h (3 Bft) O 97 1 min 0,000 mm 1,7 UV-I 446 W/m 6,3 C 7,4 C 17,7 km/h (3 Bft) 95,65 %
31.10.2015 11:14 11,2 C 72 % 1029,0 hPa 0,0 l/m 11,3 km/h (2 Bft) O-NO 59 1 min 0,000 mm 1,7 UV-I 448 W/m 6,3 C 8,2 C 14,5 km/h (3 Bft) 100,00 %
31.10.2015 11:15 11,2 C 72 % 1028,9 hPa 0,0 l/m 7,8 km/h (2 Bft) O 82 1 min 0,000 mm 1,7 UV-I 450 W/m 6,3 C 10,2 C 14,5 km/h (3 Bft) 95,65 %
31.10.2015 11:16 11,3 C 73 % 1028,9 hPa 0,0 l/m 7,0 km/h (2 Bft) O-NO 69 1 min 0,000 mm 1,7 UV-I 450 W/m 6,6 C 10,9 C 11,3 km/h (2 Bft) 100,00 %
31.10.2015 11:17 11,4 C 73 % 1028,9 hPa 0,0 l/m 8,9 km/h (2 Bft) O 85 1 min 0,000 mm 1,7 UV-I 451 W/m 6,7 C 9,8 C 14,5 km/h (3 Bft) 100,00 %
31.10.2015 11:18 11,4 C 73 % 1028,9 hPa 0,0 l/m 6,9 km/h (2 Bft) O-SO 102 1 min 0,000 mm 1,7 UV-I 451 W/m 6,7 C 11,1 C 11,3 km/h (2 Bft) 95,65 %
31.10.2015 11:19 11,6 C 71 % 1028,9 hPa 0,0 l/m 13,6 km/h (3 Bft) O 99 1 min 0,000 mm 1,7 UV-I 449 W/m 6,5 C 7,6 C 17,7 km/h (3 Bft) 95,83 %
31.10.2015 11:20 11,6 C 70 % 1028,9 hPa 0,0 l/m 9,5 km/h (2 Bft) N-NO 29 1 min 0,000 mm 1,7 UV-I 451 W/m 6,3 C 9,6 C 16,1 km/h (3 Bft) 100,00 %
31.10.2015 11:21 11,6 C 70 % 1028,9 hPa 0,0 l/m 14,6 km/h (3 Bft) O 99 1 min 0,000 mm 1,7 UV-I 450 W/m 6,3 C 7,2 C 17,7 km/h (3 Bft) 100,00 %
31.10.2015 11:22 11,6 C 69 % 1028,9 hPa 0,0 l/m 12,5 km/h (3 Bft) O 83 1 min 0,000 mm 1,7 UV-I 454 W/m 6,1 C 8,1 C 17,7 km/h (3 Bft) 95,65 %
31.10.2015 11:23 11,7 C 70 % 1028,9 hPa 0,0 l/m 12,1 km/h (2 Bft) O-NO 77 1 min 0,000 mm 1,7 UV-I 453 W/m 6,4 C 8,4 C 19,3 km/h (3 Bft) 100,00 %
31.10.2015 11:24 11,7 C 69 % 1028,9 hPa 0,0 l/m 15,8 km/h (3 Bft) O-NO 74 1 min 0,000 mm 1,7 UV-I 454 W/m 6,2 C 6,9 C 22,5 km/h (4 Bft) 95,65 %
31.10.2015 11:25 11,7 C 69 % 1028,9 hPa 0,0 l/m 13,2 km/h (3 Bft) O 88 1 min 0,000 mm 1,7 UV-I 452 W/m 6,2 C 7,9 C 17,7 km/h (3 Bft) 100,00 %
31.10.2015 11:26 11,7 C 68 % 1028,9 hPa 0,0 l/m 12,3 km/h (3 Bft) O 80 1 min 0,000 mm 1,7 UV-I 452 W/m 6,0 C 8,3 C 19,3 km/h (3 Bft) 95,65 %
31.10.2015 11:27 11,7 C 69 % 1028,9 hPa 0,0 l/m 15,2 km/h (3 Bft) O 92 1 min 0,000 mm 1,7 UV-I 453 W/m 6,2 C 7,1 C 20,9 km/h (4 Bft) 95,83 %
31.10.2015 11:28 11,7 C 69 % 1028,9 hPa 0,0 l/m 11,2 km/h (2 Bft) O 84 1 min 0,000 mm 1,7 UV-I 459 W/m 6,2 C 8,9 C 14,5 km/h (3 Bft) 100,00 %
31.10.2015 11:29 11,7 C 70 % 1028,9 hPa 0,0 l/m 10,5 km/h (2 Bft) O-NO 71 1 min 0,000 mm 1,7 UV-I 458 W/m 6,4 C 9,2 C 14,5 km/h (3 Bft) 100,00 %
31.10.2015 11:30 11,8 C 68 % 1028,8 hPa 0,0 l/m 11,5 km/h (2 Bft) O 96 1 min 0,000 mm 1,7 UV-I 457 W/m 6,1 C 8,8 C 16,1 km/h (3 Bft) 100,00 %
31.10.2015 11:31 11,8 C 68 % 1028,8 hPa 0,0 l/m 11,3 km/h (2 Bft) O-NO 78 1 min 0,000 mm 1,7 UV-I 457 W/m 6,1 C 8,9 C 17,7 km/h (3 Bft) 100,00 %
31.10.2015 11:32 11,9 C 69 % 1028,9 hPa 0,0 l/m 9,7 km/h (2 Bft) O 84 1 min 0,000 mm 1,7 UV-I 457 W/m 6,4 C 9,9 C 16,1 km/h (3 Bft) 95,83 %
31.10.2015 11:33 11,9 C 68 % 1028,9 hPa 0,0 l/m 10,1 km/h (2 Bft) O 101 1 min 0,000 mm 1,7 UV-I 460 W/m 6,2 C 9,6 C 16,1 km/h (3 Bft) 95,65 %
31.10.2015 11:34 12,0 C 67 % 1028,9 hPa 0,0 l/m 14,8 km/h (3 Bft) O-NO 61 1 min 0,000 mm 1,7 UV-I 458 W/m 6,1 C 7,6 C 19,3 km/h (3 Bft) 95,83 %
31.10.2015 11:35 12,0 C 68 % 1028,8 hPa 0,0 l/m 14,8 km/h (3 Bft) O-NO 59 1 min 0,000 mm 1,7 UV-I 459 W/m 6,3 C 7,6 C 22,5 km/h (4 Bft) 95,65 %
31.10.2015 11:36 12,0 C 67 % 1028,9 hPa 0,0 l/m 18,0 km/h (3 Bft) O 100 1 min 0,000 mm 1,7 UV-I 460 W/m 6,1 C 6,5 C 25,7 km/h (4 Bft) 100,00 %
31.10.2015 11:37 12,1 C 67 % 1028,8 hPa 0,0 l/m 15,2 km/h (3 Bft) O-NO 66 1 min 0,000 mm 1,7 UV-I 462 W/m 6,2 C 7,6 C 19,3 km/h (3 Bft) 92,31 %
31.10.2015 11:38 12,1 C 68 % 1028,8 hPa 0,0 l/m 12,5 km/h (3 Bft) O-NO 78 1 min 0,000 mm 1,7 UV-I 459 W/m 6,4 C 8,7 C 17,7 km/h (3 Bft) 100,00 %
31.10.2015 11:39 12,1 C 67 % 1028,8 hPa 0,0 l/m 16,1 km/h (3 Bft) O-NO 75 1 min 0,000 mm 1,7 UV-I 462 W/m 6,2 C 7,3 C 22,5 km/h (4 Bft) 100,00 %
31.10.2015 11:40 12,1 C 67 % 1028,8 hPa 0,0 l/m 18,0 km/h (3 Bft) O 90 1 min 0,000 mm 1,7 UV-I 460 W/m 6,2 C 6,6 C 27,4 km/h (4 Bft) 100,00 %
31.10.2015 11:41 12,1 C 67 % 1028,8 hPa 0,0 l/m 16,2 km/h (3 Bft) O-NO 76 1 min 0,000 mm 1,7 UV-I 461 W/m 6,2 C 7,2 C 22,5 km/h (4 Bft) 100,00 %
31.10.2015 11:42 12,1 C 68 % 1028,7 hPa 0,0 l/m 13,1 km/h (3 Bft) O-NO 58 1 min 0,000 mm 1,7 UV-I 461 W/m 6,4 C 8,4 C 20,9 km/h (4 Bft) 100,00 %
31.10.2015 11:43 12,1 C 67 % 1028,7 hPa 0,0 l/m 13,8 km/h (3 Bft) O 84 1 min 0,000 mm 1,7 UV-I 461 W/m 6,2 C 8,2 C 20,9 km/h (4 Bft) 100,00 %
31.10.2015 11:44 12,2 C 67 % 1028,8 hPa 0,0 l/m 15,2 km/h (3 Bft) O 84 1 min 0,000 mm 1,7 UV-I 461 W/m 6,3 C 7,7 C 25,7 km/h (4 Bft) 100,00 %
31.10.2015 11:45 12,2 C 67 % 1028,7 hPa 0,0 l/m 18,8 km/h (3 Bft) O 85 1 min 0,000 mm 1,7 UV-I 462 W/m 6,3 C 6,5 C 24,1 km/h (4 Bft) 95,65 %
31.10.2015 11:46 12,2 C 66 % 1028,8 hPa 0,0 l/m 16,8 km/h (3 Bft) NO 38 1 min 0,000 mm 1,7 UV-I 461 W/m 6,0 C 7,1 C 22,5 km/h (4 Bft) 100,00 %
31.10.2015 11:47 12,2 C 67 % 1028,8 hPa 0,0 l/m 17,3 km/h (3 Bft) O 85 1 min 0,000 mm 1,7 UV-I 462 W/m 6,3 C 7,0 C 22,5 km/h (4 Bft) 95,65 %
31.10.2015 11:48 12,2 C 68 % 1028,7 hPa 0,0 l/m 12,9 km/h (3 Bft) O 98 1 min 0,000 mm 1,7 UV-I 462 W/m 6,5 C 8,6 C 17,7 km/h (3 Bft) 100,00 %
31.10.2015 11:49 12,2 C 68 % 1028,7 hPa 0,0 l/m 13,5 km/h (3 Bft) O-SO 109 1 min 0,000 mm 1,7 UV-I 461 W/m 6,5 C 8,4 C 20,9 km/h (4 Bft) 100,00 %
31.10.2015 11:50 12,3 C 68 % 1028,8 hPa 0,0 l/m 10,7 km/h (2 Bft) O 85 1 min 0,000 mm 1,7 UV-I 461 W/m 6,6 C 9,8 C 19,3 km/h (3 Bft) 100,00 %
31.10.2015 11:51 12,3 C 68 % 1028,8 hPa 0,0 l/m 14,4 km/h (3 Bft) O 86 1 min 0,000 mm 1,7 UV-I 461 W/m 6,6 C 8,2 C 17,7 km/h (3 Bft) 100,00 %
31.10.2015 11:52 12,3 C 68 % 1028,8 hPa 0,0 l/m 13,4 km/h (3 Bft) O-NO 64 1 min 0,000 mm 1,7 UV-I 462 W/m 6,6 C 8,6 C 20,9 km/h (4 Bft) 100,00 %
31.10.2015 11:53 12,4 C 68 % 1028,8 hPa 0,0 l/m 13,4 km/h (3 Bft) O-NO 71 1 min 0,000 mm 1,8 UV-I 462 W/m 6,7 C 8,7 C 20,9 km/h (4 Bft) 95,65 %
31.10.2015 11:54 12,4 C 68 % 1028,8 hPa 0,0 l/m 11,9 km/h (2 Bft) O 80 1 min 0,000 mm 1,7 UV-I 461 W/m 6,7 C 9,3 C 17,7 km/h (3 Bft) 100,00 %
31.10.2015 11:55 12,4 C 69 % 1028,8 hPa 0,0 l/m 13,1 km/h (3 Bft) O-SO 103 1 min 0,000 mm 1,7 UV-I 462 W/m 6,9 C 8,8 C 19,3 km/h (3 Bft) 91,30 %
31.10.2015 11:56 12,5 C 69 % 1028,9 hPa 0,0 l/m 14,6 km/h (3 Bft) O 87 1 min 0,000 mm 1,7 UV-I 462 W/m 7,0 C 8,3 C 19,3 km/h (3 Bft) 100,00 %
31.10.2015 11:57 12,5 C 67 % 1028,8 hPa 0,0 l/m 14,7 km/h (3 Bft) O 99 1 min 0,000 mm 1,7 UV-I 461 W/m 6,5 C 8,3 C 17,7 km/h (3 Bft) 100,00 %
31.10.2015 11:58 12,5 C 66 % 1028,8 hPa 0,0 l/m 17,6 km/h (3 Bft) O-NO 62 1 min 0,000 mm 1,7 UV-I 461 W/m 6,3 C 7,3 C 24,1 km/h (4 Bft) 100,00 %
31.10.2015 11:59 12,5 C 66 % 1028,7 hPa 0,0 l/m 17,1 km/h (3 Bft) O-NO 71 1 min 0,000 mm 1,7 UV-I 462 W/m 6,3 C 7,4 C 24,1 km/h (4 Bft) 100,00 %
31.10.2015 12:00 12,6 C 67 % 1028,6 hPa 0,0 l/m 16,2 km/h (3 Bft) O-NO 76 1 min 0,000 mm 1,7 UV-I 463 W/m 6,6 C 7,9 C 25,7 km/h (4 Bft) 95,65 %
31.10.2015 12:01 12,6 C 67 % 1028,6 hPa 0,0 l/m 17,8 km/h (3 Bft) O-NO 74 1 min 0,254 mm 1,7 UV-I 462 W/m 6,6 C 7,3 C 22,5 km/h (4 Bft) 100,00 %
31.10.2015 12:02 12,6 C 67 % 1028,6 hPa 0,0 l/m 17,1 km/h (3 Bft) O-NO 67 1 min 0,000 mm 1,7 UV-I 462 W/m 6,6 C 7,5 C 24,1 km/h (4 Bft) 100,00 %
31.10.2015 12:03 12,6 C 66 % 1028,6 hPa 0,0 l/m 13,0 km/h (3 Bft) O 79 1 min 0,000 mm 1,7 UV-I 462 W/m 6,4 C 9,1 C 19,3 km/h (3 Bft) 100,00 %
31.10.2015 12:04 12,6 C 67 % 1028,6 hPa 0,0 l/m 13,3 km/h (3 Bft) O-NO 72 1 min 0,000 mm 1,7 UV-I 462 W/m 6,6 C 9,0 C 17,7 km/h (3 Bft) 100,00 %
31.10.2015 12:05 12,7 C 67 % 1028,6 hPa 0,0 l/m 15,9 km/h (3 Bft) O-SO 102 1 min 0,000 mm 1,7 UV-I 461 W/m 6,7 C 8,1 C 24,1 km/h (4 Bft) 100,00 %
31.10.2015 12:06 12,7 C 66 % 1028,6 hPa 0,0 l/m 15,0 km/h (3 Bft) O 89 1 min 0,000 mm 1,7 UV-I 462 W/m 6,5 C 8,4 C 22,5 km/h (4 Bft) 95,65 %
31.10.2015 12:07 12,7 C 67 % 1028,6 hPa 0,0 l/m 12,9 km/h (3 Bft) O-NO 77 1 min 0,000 mm 1,7 UV-I 462 W/m 6,7 C 9,2 C 20,9 km/h (4 Bft) 100,00 %
31.10.2015 12:08 12,7 C 67 % 1028,6 hPa 0,0 l/m 13,0 km/h (3 Bft) O-NO 66 1 min 0,000 mm 1,7 UV-I 461 W/m 6,7 C 9,2 C 17,7 km/h (3 Bft) 100,00 %
31.10.2015 12:09 12,8 C 67 % 1028,6 hPa 0,0 l/m 16,2 km/h (3 Bft) O 88 1 min 0,000 mm 1,7 UV-I 461 W/m 6,8 C 8,1 C 20,9 km/h (4 Bft) 100,00 %
31.10.2015 12:10 12,8 C 66 % 1028,6 hPa 0,0 l/m 12,8 km/h (3 Bft) O 99 1 min 0,000 mm 1,7 UV-I 460 W/m 6,6 C 9,4 C 20,9 km/h (4 Bft) 100,00 %
31.10.2015 12:11 12,8 C 66 % 1028,6 hPa 0,0 l/m 16,6 km/h (3 Bft) O-NO 69 1 min 0,000 mm 1,7 UV-I 461 W/m 6,6 C 8,0 C 22,5 km/h (4 Bft) 95,65 %
31.10.2015 12:12 12,9 C 67 % 1028,6 hPa 0,0 l/m 13,4 km/h (3 Bft) O-SO 105 1 min 0,000 mm 1,7 UV-I 461 W/m 6,9 C 9,3 C 22,5 km/h (4 Bft) 100,00 %
31.10.2015 12:13 12,9 C 66 % 1028,5 hPa 0,0 l/m 11,9 km/h (2 Bft) O 101 1 min 0,000 mm 1,7 UV-I 458 W/m 6,7 C 9,9 C 14,5 km/h (3 Bft) 100,00 %
31.10.2015 12:14 12,9 C 67 % 1028,5 hPa 0,0 l/m 12,0 km/h (2 Bft) O-NO 71 1 min 0,000 mm 1,7 UV-I 460 W/m 6,9 C 9,9 C 19,3 km/h (3 Bft) 100,00 %
31.10.2015 12:15 13,1 C 67 % 1028,5 hPa 0,0 l/m 8,3 km/h (2 Bft) O 95 1 min 0,000 mm 1,7 UV-I 457 W/m 7,1 C 11,9 C 14,5 km/h (3 Bft) 100,00 %
31.10.2015 12:16 13,1 C 67 % 1028,5 hPa 0,0 l/m 16,8 km/h (3 Bft) O-SO 111 1 min 0,000 mm 1,7 UV-I 457 W/m 7,1 C 8,3 C 22,5 km/h (4 Bft) 100,00 %
31.10.2015 12:17 13,1 C 66 % 1028,5 hPa 0,0 l/m 15,7 km/h (3 Bft) O 100 1 min 0,000 mm 1,7 UV-I 458 W/m 6,9 C 8,6 C 20,9 km/h (4 Bft) 100,00 %
31.10.2015 12:18 13,1 C 66 % 1028,6 hPa 0,0 l/m 11,5 km/h (2 Bft) O-NO 70 1 min 0,000 mm 1,7 UV-I 458 W/m 6,9 C 10,3 C 16,1 km/h (3 Bft) 100,00 %
31.10.2015 12:19 13,2 C 67 % 1028,5 hPa 0,0 l/m 12,9 km/h (3 Bft) O 88 1 min 0,000 mm 1,7 UV-I 459 W/m 7,2 C 9,8 C 20,9 km/h (4 Bft) 100,00 %
31.10.2015 12:20 13,2 C 66 % 1028,5 hPa 0,0 l/m 16,2 km/h (3 Bft) O 95 1 min 0,000 mm 1,7 UV-I 457 W/m 7,0 C 8,6 C 19,3 km/h (3 Bft) 100,00 %
31.10.2015 12:21 13,2 C 66 % 1028,5 hPa 0,0 l/m 15,8 km/h (3 Bft) O 91 1 min 0,000 mm 1,7 UV-I 456 W/m 7,0 C 8,7 C 20,9 km/h (4 Bft) 100,00 %
31.10.2015 12:22 13,2 C 67 % 1028,5 hPa 0,0 l/m 13,9 km/h (3 Bft) NO 51 1 min 0,000 mm 1,7 UV-I 458 W/m 7,2 C 9,4 C 22,5 km/h (4 Bft) 100,00 %
31.10.2015 12:23 13,2 C 66 % 1028,5 hPa 0,0 l/m 18,6 km/h (3 Bft) O-SO 106 1 min 0,000 mm 1,7 UV-I 456 W/m 7,0 C 7,8 C 25,7 km/h (4 Bft) 100,00 %
31.10.2015 12:24 13,2 C 65 % 1028,5 hPa 0,0 l/m 16,6 km/h (3 Bft) O 93 1 min 0,000 mm 1,7 UV-I 456 W/m 6,8 C 8,5 C 24,1 km/h (4 Bft) 100,00 %
31.10.2015 12:25 13,2 C 66 % 1028,4 hPa 0,0 l/m 13,2 km/h (3 Bft) O-NO 66 1 min 0,000 mm 1,7 UV-I 455 W/m 7,0 C 9,7 C 16,1 km/h (3 Bft) 100,00 %
31.10.2015 12:26 13,2 C 66 % 1028,5 hPa 0,0 l/m 17,1 km/h (3 Bft) O-NO 63 1 min 0,000 mm 1,7 UV-I 455 W/m 7,0 C 8,3 C 27,4 km/h (4 Bft) 100,00 %
31.10.2015 12:27 13,3 C 65 % 1028,4 hPa 0,0 l/m 12,3 km/h (3 Bft) O 87 1 min 0,000 mm 1,7 UV-I 454 W/m 6,9 C 10,2 C 19,3 km/h (3 Bft) 95,65 %
31.10.2015 12:28 13,3 C 66 % 1028,4 hPa 0,0 l/m 9,2 km/h (2 Bft) NO 55 1 min 0,000 mm 1,7 UV-I 453 W/m 7,1 C 11,7 C 19,3 km/h (3 Bft) 100,00 %
31.10.2015 12:29 13,3 C 67 % 1028,4 hPa 0,0 l/m 11,2 km/h (2 Bft) O-NO 71 1 min 0,000 mm 1,7 UV-I 452 W/m 7,3 C 10,7 C 16,1 km/h (3 Bft) 100,00 %
31.10.2015 12:30 13,4 C 65 % 1028,5 hPa 0,0 l/m 15,0 km/h (3 Bft) O 88 1 min 0,000 mm 1,7 UV-I 452 W/m 7,0 C 9,3 C 20,9 km/h (4 Bft) 100,00 %
31.10.2015 12:31 13,4 C 64 % 1028,5 hPa 0,0 l/m 17,2 km/h (3 Bft) O 81 1 min 0,000 mm 1,7 UV-I 452 W/m 6,7 C 8,5 C 22,5 km/h (4 Bft) 100,00 %
31.10.2015 12:32 13,4 C 65 % 1028,5 hPa 0,0 l/m 15,7 km/h (3 Bft) O-SO 111 1 min 0,000 mm 1,7 UV-I 451 W/m 7,0 C 9,0 C 22,5 km/h (4 Bft) 95,65 %
31.10.2015 12:33 13,4 C 65 % 1028,5 hPa 0,0 l/m 10,8 km/h (2 Bft) O 81 1 min 0,000 mm 1,6 UV-I 448 W/m 7,0 C 11,0 C 12,9 km/h (3 Bft) 95,83 %
31.10.2015 12:34 13,5 C 66 % 1028,5 hPa 0,0 l/m 11,7 km/h (2 Bft) O 95 1 min 0,000 mm 1,6 UV-I 449 W/m 7,3 C 10,7 C 16,1 km/h (3 Bft) 100,00 %
31.10.2015 12:35 13,5 C 65 % 1028,5 hPa 0,0 l/m 12,3 km/h (3 Bft) O 100 1 min 0,000 mm 1,6 UV-I 448 W/m 7,1 C 10,4 C 16,1 km/h (3 Bft) 100,00 %
31.10.2015 12:36 13,6 C 65 % 1028,5 hPa 0,0 l/m 11,1 km/h (2 Bft) O 81 1 min 0,000 mm 1,6 UV-I 449 W/m 7,1 C 11,1 C 17,7 km/h (3 Bft) 100,00 %
31.10.2015 12:37 13,6 C 65 % 1028,5 hPa 0,0 l/m 11,9 km/h (2 Bft) O-SO 105 1 min 0,000 mm 1,6 UV-I 446 W/m 7,1 C 10,7 C 16,1 km/h (3 Bft) 100,00 %
31.10.2015 12:38 13,7 C 65 % 1028,5 hPa 0,0 l/m 7,6 km/h (2 Bft) O-SO 103 1 min 0,000 mm 1,6 UV-I 446 W/m 7,2 C 13,0 C 14,5 km/h (3 Bft) 95,65 %
31.10.2015 12:39 13,7 C 65 % 1028,5 hPa 0,0 l/m 6,9 km/h (2 Bft) N-NO 30 1 min 0,000 mm 1,6 UV-I 446 W/m 7,2 C 13,4 C 12,9 km/h (3 Bft) 95,83 %
31.10.2015 12:40 13,8 C 64 % 1028,5 hPa 0,0 l/m 14,2 km/h (3 Bft) O 90 1 min 0,000 mm 1,6 UV-I 447 W/m 7,1 C 10,0 C 24,1 km/h (4 Bft) 100,00 %
31.10.2015 12:42 13,8 C 62 % 1028,4 hPa 0,0 l/m 11,3 km/h (2 Bft) O-NO 74 2 min 0,000 mm 1,6 UV-I 448 W/m 6,6 C 11,2 C 11,3 km/h (2 Bft) 98,77 %
31.10.2015 12:45 14,1 C 64 % 1028,4 hPa 0,0 l/m 11,3 km/h (2 Bft) O 90 3 min 0,000 mm 1,6 UV-I 445 W/m 7,4 C 11,5 C 20,9 km/h (4 Bft) 100,00 %
31.10.2015 12:49 14,2 C 63 % 1028,4 hPa 0,0 l/m 8,0 km/h (2 Bft) O-SO 123 4 min 0,000 mm 1,6 UV-I 441 W/m 7,3 C 13,3 C 12,9 km/h (3 Bft) 100,00 %
31.10.2015 12:50 14,2 C 64 % 1028,4 hPa 0,0 l/m 9,3 km/h (2 Bft) SO 127 1 min 0,000 mm 1,6 UV-I 440 W/m 7,5 C 12,6 C 16,1 km/h (3 Bft) 100,00 %
31.10.2015 12:51 14,3 C 63 % 1028,4 hPa 0,0 l/m 13,1 km/h (3 Bft) O-SO 103 1 min 0,000 mm 1,6 UV-I 439 W/m 7,4 C 11,0 C 19,3 km/h (3 Bft) 100,00 %
31.10.2015 12:52 14,3 C 62 % 1028,4 hPa 0,0 l/m 11,7 km/h (2 Bft) O-NO 78 1 min 0,000 mm 1,6 UV-I 439 W/m 7,1 C 11,6 C 16,1 km/h (3 Bft) 100,00 %
31.10.2015 12:53 14,3 C 61 % 1028,4 hPa 0,0 l/m 13,3 km/h (3 Bft) O-NO 74 1 min 0,000 mm 1,6 UV-I 437 W/m 6,9 C 11,0 C 24,1 km/h (4 Bft) 100,00 %
31.10.2015 12:54 14,3 C 60 % 1028,2 hPa 0,0 l/m 16,2 km/h (3 Bft) N 11 1 min 0,000 mm 1,5 UV-I 436 W/m 6,6 C 9,9 C 24,1 km/h (4 Bft) 100,00 %
31.10.2015 12:55 14,3 C 60 % 1028,3 hPa 0,0 l/m 15,5 km/h (3 Bft) O 90 1 min 0,000 mm 1,5 UV-I 436 W/m 6,6 C 10,2 C 20,9 km/h (4 Bft) 100,00 %
31.10.2015 12:56 14,3 C 60 % 1028,3 hPa 0,0 l/m 17,5 km/h (3 Bft) O-NO 63 1 min 0,000 mm 1,5 UV-I 434 W/m 6,6 C 9,5 C 25,7 km/h (4 Bft) 100,00 %
31.10.2015 12:57 14,3 C 60 % 1028,2 hPa 0,0 l/m 14,6 km/h (3 Bft) O-NO 67 1 min 0,000 mm 1,5 UV-I 433 W/m 6,6 C 10,5 C 19,3 km/h (3 Bft) 100,00 %
31.10.2015 12:58 14,3 C 60 % 1028,2 hPa 0,0 l/m 15,5 km/h (3 Bft) NO 36 1 min 0,000 mm 1,5 UV-I 432 W/m 6,6 C 10,2 C 22,5 km/h (4 Bft) 100,00 %
31.10.2015 12:59 14,4 C 61 % 1028,3 hPa 0,0 l/m 9,5 km/h (2 Bft) O-NO 66 1 min 0,000 mm 1,5 UV-I 431 W/m 7,0 C 12,7 C 19,3 km/h (3 Bft) 100,00 %
31.10.2015 13:00 14,4 C 61 % 1028,3 hPa 0,0 l/m 11,1 km/h (2 Bft) O-NO 75 1 min 0,000 mm 1,5 UV-I 432 W/m 7,0 C 12,0 C 14,5 km/h (3 Bft) 100,00 %
31.10.2015 13:01 14,4 C 62 % 1028,3 hPa 0,0 l/m 10,7 km/h (2 Bft) O-NO 64 1 min 0,279 mm 1,5 UV-I 431 W/m 7,2 C 12,1 C 16,1 km/h (3 Bft) 96,30 %
31.10.2015 13:02 14,4 C 63 % 1028,3 hPa 0,0 l/m 6,4 km/h (2 Bft) O-NO 78 1 min 0,000 mm 1,5 UV-I 428 W/m 7,4 C 14,4 C 11,3 km/h (2 Bft) 100,00 %
31.10.2015 13:05 14,6 C 62 % 1028,2 hPa 0,0 l/m 8,0 km/h (2 Bft) O 90 3 min 0,000 mm 1,5 UV-I 428 W/m 7,4 C 13,7 C 16,1 km/h (3 Bft) 100,00 %
31.10.2015 13:06 14,6 C 63 % 1028,2 hPa 0,0 l/m 7,8 km/h (2 Bft) O-SO 103 1 min 0,000 mm 1,5 UV-I 426 W/m 7,6 C 13,8 C 14,5 km/h (3 Bft) 100,00 %
31.10.2015 13:07 14,6 C 63 % 1028,2 hPa 0,0 l/m 8,0 km/h (2 Bft) NO 49 1 min 0,000 mm 1,5 UV-I 424 W/m 7,6 C 13,7 C 14,5 km/h (3 Bft) 100,00 %
31.10.2015 13:08 14,6 C 63 % 1028,2 hPa 0,0 l/m 8,7 km/h (2 Bft) O 95 1 min 0,000 mm 1,4 UV-I 422 W/m 7,6 C 13,3 C 14,5 km/h (3 Bft) 96,15 %
31.10.2015 13:09 14,7 C 64 % 1028,2 hPa 0,0 l/m 9,4 km/h (2 Bft) O 82 1 min 0,000 mm 1,4 UV-I 421 W/m 8,0 C 13,1 C 16,1 km/h (3 Bft) 100,00 %
31.10.2015 13:10 14,7 C 62 % 1028,2 hPa 0,0 l/m 11,3 km/h (2 Bft) O 92 1 min 0,000 mm 1,4 UV-I 419 W/m 7,5 C 12,2 C 19,3 km/h (3 Bft) 100,00 %
31.10.2015 13:11 14,6 C 62 % 1028,2 hPa 0,0 l/m 14,1 km/h (3 Bft) O 99 1 min 0,000 mm 1,4 UV-I 418 W/m 7,4 C 11,0 C 19,3 km/h (3 Bft) 100,00 %
31.10.2015 13:12 14,6 C 62 % 1028,2 hPa 0,0 l/m 10,5 km/h (2 Bft) O-NO 71 1 min 0,000 mm 1,4 UV-I 418 W/m 7,4 C 12,4 C 14,5 km/h (3 Bft) 100,00 %
31.10.2015 13:13 14,6 C 63 % 1028,1 hPa 0,0 l/m 9,9 km/h (2 Bft) NO 44 1 min 0,000 mm 1,4 UV-I 417 W/m 7,6 C 12,7 C 16,1 km/h (3 Bft) 96,15 %
31.10.2015 13:14 14,6 C 62 % 1028,1 hPa 0,0 l/m 11,3 km/h (2 Bft) NO 54 1 min 0,000 mm 1,4 UV-I 415 W/m 7,4 C 12,1 C 16,1 km/h (3 Bft) 100,00 %
31.10.2015 13:15 14,6 C 62 % 1028,1 hPa 0,0 l/m 8,3 km/h (2 Bft) O-NO 74 1 min 0,000 mm 1,4 UV-I 414 W/m 7,4 C 13,5 C 16,1 km/h (3 Bft) 100,00 %
31.10.2015 13:16 14,6 C 64 % 1028,1 hPa 0,0 l/m 8,0 km/h (2 Bft) O 84 1 min 0,000 mm 1,4 UV-I 413 W/m 7,9 C 13,7 C 14,5 km/h (3 Bft) 100,00 %
31.10.2015 13:17 14,7 C 63 % 1028,1 hPa 0,0 l/m 9,4 km/h (2 Bft) O 86 1 min 0,000 mm 1,4 UV-I 411 W/m 7,7 C 13,1 C 16,1 km/h (3 Bft) 100,00 %
31.10.2015 13:18 14,7 C 62 % 1028,1 hPa 0,0 l/m 9,0 km/h (2 Bft) O 92 1 min 0,000 mm 1,4 UV-I 410 W/m 7,5 C 13,3 C 16,1 km/h (3 Bft) 100,00 %
31.10.2015 13:19 14,7 C 62 % 1028,1 hPa 0,0 l/m 10,6 km/h (2 Bft) N-NO 19 1 min 0,000 mm 1,4 UV-I 408 W/m 7,5 C 12,5 C 16,1 km/h (3 Bft) 100,00 %
31.10.2015 13:20 14,7 C 62 % 1028,1 hPa 0,0 l/m 7,2 km/h (2 Bft) O-NO 71 1 min 0,000 mm 1,3 UV-I 407 W/m 7,5 C 14,2 C 12,9 km/h (3 Bft) 95,83 %
31.10.2015 13:21 14,8 C 63 % 1028,1 hPa 0,0 l/m 5,2 km/h (1 Bft) O-NO 71 1 min 0,000 mm 1,3 UV-I 406 W/m 7,8 C 14,8 C 8,0 km/h (2 Bft) 92,86 %
31.10.2015 13:22 14,8 C 63 % 1028,1 hPa 0,0 l/m 8,4 km/h (2 Bft) N-NO 26 1 min 0,000 mm 1,3 UV-I 406 W/m 7,8 C 13,7 C 14,5 km/h (3 Bft) 100,00 %
31.10.2015 13:23 14,8 C 62 % 1028,0 hPa 0,0 l/m 12,6 km/h (3 Bft) O-NO 61 1 min 0,000 mm 1,3 UV-I 404 W/m 7,6 C 11,8 C 17,7 km/h (3 Bft) 100,00 %
31.10.2015 13:24 14,8 C 63 % 1028,0 hPa 0,0 l/m 9,1 km/h (2 Bft) O-NO 78 1 min 0,000 mm 1,3 UV-I 403 W/m 7,8 C 13,3 C 11,3 km/h (2 Bft) 100,00 %
31.10.2015 13:25 14,8 C 63 % 1028,0 hPa 0,0 l/m 8,3 km/h (2 Bft) O 94 1 min 0,000 mm 1,3 UV-I 401 W/m 7,8 C 13,7 C 16,1 km/h (3 Bft) 100,00 %
31.10.2015 13:26 14,8 C 63 % 1028,0 hPa 0,0 l/m 12,7 km/h (3 Bft) O 92 1 min 0,000 mm 1,3 UV-I 399 W/m 7,8 C 11,8 C 20,9 km/h (4 Bft) 100,00 %
31.10.2015 13:27 14,8 C 61 % 1028,0 hPa 0,0 l/m 14,4 km/h (3 Bft) O-SO 109 1 min 0,000 mm 1,3 UV-I 399 W/m 7,4 C 11,2 C 20,9 km/h (4 Bft) 96,15 %
31.10.2015 13:28 14,8 C 61 % 1028,0 hPa 0,0 l/m 12,9 km/h (3 Bft) O-NO 78 1 min 0,000 mm 1,3 UV-I 398 W/m 7,4 C 11,7 C 17,7 km/h (3 Bft) 100,00 %
31.10.2015 13:29 14,8 C 62 % 1028,0 hPa 0,0 l/m 10,8 km/h (2 Bft) O-NO 75 1 min 0,000 mm 1,3 UV-I 396 W/m 7,6 C 12,5 C 14,5 km/h (3 Bft) 100,00 %
31.10.2015 13:30 14,8 C 62 % 1028,0 hPa 0,0 l/m 11,3 km/h (2 Bft) O-NO 76 1 min 0,000 mm 1,3 UV-I 394 W/m 7,6 C 12,3 C 14,5 km/h (3 Bft) 96,15 %
31.10.2015 13:31 14,8 C 62 % 1028,0 hPa 0,0 l/m 13,9 km/h (3 Bft) O 101 1 min 0,000 mm 1,3 UV-I 392 W/m 7,6 C 11,3 C 20,9 km/h (4 Bft) 100,00 %
31.10.2015 13:32 14,8 C 60 % 1028,0 hPa 0,0 l/m 15,2 km/h (3 Bft) N-NO 25 1 min 0,000 mm 1,3 UV-I 391 W/m 7,1 C 10,9 C 20,9 km/h (4 Bft) 100,00 %
31.10.2015 13:33 14,8 C 61 % 1028,0 hPa 0,0 l/m 12,6 km/h (3 Bft) O 82 1 min 0,000 mm 1,3 UV-I 389 W/m 7,4 C 11,8 C 17,7 km/h (3 Bft) 100,00 %
31.10.2015 13:34 14,8 C 60 % 1027,9 hPa 0,0 l/m 13,8 km/h (3 Bft) O-NO 76 1 min 0,000 mm 1,2 UV-I 391 W/m 7,1 C 11,4 C 17,7 km/h (3 Bft) 100,00 %
31.10.2015 13:35 14,8 C 60 % 1027,9 hPa 0,0 l/m 16,4 km/h (3 Bft) NO 53 1 min 0,000 mm 1,2 UV-I 388 W/m 7,1 C 10,5 C 22,5 km/h (4 Bft) 100,00 %
31.10.2015 13:36 14,8 C 61 % 1027,9 hPa 0,0 l/m 12,8 km/h (3 Bft) O 90 1 min 0,000 mm 1,2 UV-I 385 W/m 7,4 C 11,7 C 19,3 km/h (3 Bft) 100,00 %
31.10.2015 13:37 14,8 C 62 % 1027,9 hPa 0,0 l/m 12,8 km/h (3 Bft) O 92 1 min 0,000 mm 1,2 UV-I 382 W/m 7,6 C 11,7 C 17,7 km/h (3 Bft) 100,00 %
31.10.2015 13:38 14,8 C 61 % 1027,9 hPa 0,0 l/m 13,4 km/h (3 Bft) O-NO 57 1 min 0,000 mm 1,2 UV-I 381 W/m 7,4 C 11,5 C 20,9 km/h (4 Bft) 92,86 %
31.10.2015 13:39 14,8 C 63 % 1027,9 hPa 0,0 l/m 5,9 km/h (2 Bft) O 86 1 min 0,000 mm 1,2 UV-I 380 W/m 7,8 C 14,8 C 17,7 km/h (3 Bft) 95,83 %
31.10.2015 13:40 14,8 C 61 % 1027,9 hPa 0,0 l/m 10,0 km/h (2 Bft) O 85 1 min 0,000 mm 1,2 UV-I 378 W/m 7,4 C 12,9 C 16,1 km/h (3 Bft) 100,00 %
31.10.2015 13:41 14,8 C 62 % 1027,9 hPa 0,0 l/m 12,6 km/h (3 Bft) O-SO 103 1 min 0,000 mm 1,2 UV-I 376 W/m 7,6 C 11,8 C 17,7 km/h (3 Bft) 100,00 %
31.10.2015 13:42 14,8 C 62 % 1027,9 hPa 0,0 l/m 9,5 km/h (2 Bft) O-SO 109 1 min 0,000 mm 1,2 UV-I 376 W/m 7,6 C 13,1 C 14,5 km/h (3 Bft) 96,15 %
31.10.2015 13:43 14,8 C 63 % 1028,0 hPa 0,0 l/m 10,6 km/h (2 Bft) O-NO 68 1 min 0,000 mm 1,2 UV-I 372 W/m 7,8 C 12,6 C 19,3 km/h (3 Bft) 100,00 %
31.10.2015 13:44 14,9 C 62 % 1028,0 hPa 0,0 l/m 12,6 km/h (3 Bft) O 89 1 min 0,000 mm 1,1 UV-I 371 W/m 7,7 C 11,9 C 17,7 km/h (3 Bft) 100,00 %
31.10.2015 13:45 14,9 C 62 % 1028,0 hPa 0,0 l/m 8,8 km/h (2 Bft) O 84 1 min 0,000 mm 1,1 UV-I 371 W/m 7,7 C 13,6 C 16,1 km/h (3 Bft) 100,00 %
31.10.2015 13:46 14,9 C 62 % 1028,0 hPa 0,0 l/m 9,5 km/h (2 Bft) O 86 1 min 0,000 mm 1,1 UV-I 370 W/m 7,7 C 13,2 C 16,1 km/h (3 Bft) 100,00 %
31.10.2015 13:47 14,9 C 61 % 1028,0 hPa 0,0 l/m 11,1 km/h (2 Bft) O-NO 65 1 min 0,000 mm 1,1 UV-I 366 W/m 7,4 C 12,5 C 16,1 km/h (3 Bft) 100,00 %
31.10.2015 13:48 15,0 C 62 % 1027,9 hPa 0,0 l/m 8,1 km/h (2 Bft) O-SO 103 1 min 0,000 mm 1,1 UV-I 346 W/m 7,8 C 14,0 C 14,5 km/h (3 Bft) 100,00 %
31.10.2015 13:49 15,0 C 62 % 1027,9 hPa 0,0 l/m 10,4 km/h (2 Bft) NO 37 1 min 0,000 mm 1,1 UV-I 296 W/m 7,8 C 12,9 C 16,1 km/h (3 Bft) 100,00 %
31.10.2015 13:50 15,1 C 61 % 1027,9 hPa 0,0 l/m 9,7 km/h (2 Bft) O-SO 114 1 min 0,000 mm 1,1 UV-I 362 W/m 7,6 C 13,4 C 12,9 km/h (3 Bft) 100,00 %
31.10.2015 13:51 15,1 C 61 % 1027,9 hPa 0,0 l/m 4,6 km/h (1 Bft) NO 53 1 min 0,000 mm 1,1 UV-I 361 W/m 7,6 C 15,1 C 8,0 km/h (2 Bft) 100,00 %
31.10.2015 13:52 15,1 C 61 % 1027,9 hPa 0,0 l/m 12,8 km/h (3 Bft) O-NO 70 1 min 0,000 mm 1,1 UV-I 359 W/m 7,6 C 12,1 C 17,7 km/h (3 Bft) 96,15 %
31.10.2015 13:53 15,1 C 61 % 1027,9 hPa 0,0 l/m 12,5 km/h (3 Bft) O-NO 75 1 min 0,000 mm 1,1 UV-I 357 W/m 7,6 C 12,2 C 17,7 km/h (3 Bft) 100,00 %
31.10.2015 13:54 15,1 C 60 % 1027,9 hPa 0,0 l/m 10,1 km/h (2 Bft) O 100 1 min 0,000 mm 1,1 UV-I 355 W/m 7,4 C 13,2 C 14,5 km/h (3 Bft) 100,00 %
31.10.2015 13:55 15,1 C 61 % 1027,9 hPa 0,0 l/m 10,7 km/h (2 Bft) O-NO 70 1 min 0,000 mm 1,0 UV-I 353 W/m 7,6 C 12,9 C 16,1 km/h (3 Bft) 95,83 %
31.10.2015 13:56 15,1 C 61 % 1027,9 hPa 0,0 l/m 11,2 km/h (2 Bft) O 93 1 min 0,000 mm 1,0 UV-I 351 W/m 7,6 C 12,7 C 14,5 km/h (3 Bft) 100,00 %
31.10.2015 13:57 15,1 C 61 % 1027,9 hPa 0,0 l/m 10,7 km/h (2 Bft) O-NO 74 1 min 0,000 mm 1,0 UV-I 350 W/m 7,6 C 12,9 C 17,7 km/h (3 Bft) 100,00 %
31.10.2015 13:58 15,1 C 60 % 1027,9 hPa 0,0 l/m 13,0 km/h (3 Bft) O 82 1 min 0,000 mm 1,0 UV-I 348 W/m 7,4 C 12,0 C 17,7 km/h (3 Bft) 100,00 %
31.10.2015 13:59 15,1 C 59 % 1027,9 hPa 0,0 l/m 12,6 km/h (3 Bft) O-NO 76 1 min 0,000 mm 1,0 UV-I 346 W/m 7,1 C 12,2 C 17,7 km/h (3 Bft) 100,00 %
31.10.2015 14:00 15,1 C 60 % 1027,9 hPa 0,0 l/m 7,6 km/h (2 Bft) O 94 1 min 0,000 mm 1,0 UV-I 344 W/m 7,4 C 14,4 C 14,5 km/h (3 Bft) 100,00 %
31.10.2015 14:01 15,1 C 61 % 1027,9 hPa 0,0 l/m 11,3 km/h (2 Bft) O-NO 58 1 min 0,254 mm 1,0 UV-I 343 W/m 7,6 C 12,7 C 19,3 km/h (3 Bft) 100,00 %
31.10.2015 14:02 15,1 C 60 % 1028,0 hPa 0,0 l/m 12,8 km/h (3 Bft) O-NO 74 1 min 0,000 mm 1,0 UV-I 343 W/m 7,4 C 12,1 C 27,4 km/h (4 Bft) 100,00 %
31.10.2015 14:03 15,1 C 59 % 1027,9 hPa 0,0 l/m 13,8 km/h (3 Bft) O-NO 78 1 min 0,000 mm 1,0 UV-I 340 W/m 7,1 C 11,7 C 20,9 km/h (4 Bft) 100,00 %
31.10.2015 14:04 15,1 C 58 % 1027,9 hPa 0,0 l/m 17,3 km/h (3 Bft) O 82 1 min 0,000 mm 0,9 UV-I 338 W/m 6,9 C 10,6 C 27,4 km/h (4 Bft) 100,00 %
31.10.2015 14:05 15,1 C 59 % 1027,9 hPa 0,0 l/m 10,8 km/h (2 Bft) O-SO 111 1 min 0,000 mm 0,9 UV-I 336 W/m 7,1 C 12,9 C 17,7 km/h (3 Bft) 98,84 %
31.10.2015 14:06 15,1 C 60 % 1027,9 hPa 0,0 l/m 8,7 km/h (2 Bft) O 80 1 min 0,000 mm 0,9 UV-I 335 W/m 7,4 C 13,8 C 14,5 km/h (3 Bft) 100,00 %
31.10.2015 14:07 15,1 C 60 % 1027,9 hPa 0,0 l/m 7,0 km/h (2 Bft) O 86 1 min 0,000 mm 0,9 UV-I 332 W/m 7,4 C 14,8 C 11,3 km/h (2 Bft) 100,00 %
31.10.2015 14:08 15,1 C 60 % 1027,9 hPa 0,0 l/m 10,7 km/h (2 Bft) N-NW 342 1 min 0,000 mm 0,9 UV-I 331 W/m 7,4 C 12,9 C 14,5 km/h (3 Bft) 100,00 %
31.10.2015 14:09 15,1 C 59 % 1027,9 hPa 0,0 l/m 9,3 km/h (2 Bft) O-NO 61 1 min 0,000 mm 0,9 UV-I 323 W/m 7,1 C 13,6 C 16,1 km/h (3 Bft) 96,15 %
31.10.2015 14:10 15,1 C 59 % 1027,9 hPa 0,0 l/m 12,7 km/h (3 Bft) O-SO 117 1 min 0,000 mm 0,9 UV-I 327 W/m 7,1 C 12,1 C 19,3 km/h (3 Bft) 95,83 %
31.10.2015 14:11 15,1 C 59 % 1027,9 hPa 0,0 l/m 11,7 km/h (2 Bft) O-NO 72 1 min 0,000 mm 0,9 UV-I 332 W/m 7,1 C 12,5 C 16,1 km/h (3 Bft) 100,00 %
31.10.2015 14:12 15,1 C 59 % 1027,9 hPa 0,0 l/m 13,1 km/h (3 Bft) O 84 1 min 0,000 mm 0,9 UV-I 322 W/m 7,1 C 12,0 C 19,3 km/h (3 Bft) 100,00 %
31.10.2015 14:13 15,1 C 59 % 1027,9 hPa 0,0 l/m 11,3 km/h (2 Bft) N-NO 22 1 min 0,000 mm 0,9 UV-I 321 W/m 7,1 C 12,7 C 19,3 km/h (3 Bft) 100,00 %
31.10.2015 14:14 15,1 C 60 % 1027,9 hPa 0,0 l/m 14,0 km/h (3 Bft) O-NO 68 1 min 0,000 mm 0,9 UV-I 320 W/m 7,4 C 11,6 C 19,3 km/h (3 Bft) 100,00 %
31.10.2015 14:15 15,1 C 60 % 1027,9 hPa 0,0 l/m 8,2 km/h (2 Bft) O 92 1 min 0,000 mm 0,8 UV-I 317 W/m 7,4 C 14,1 C 12,9 km/h (3 Bft) 100,00 %
31.10.2015 14:16 15,1 C 59 % 1028,0 hPa 0,0 l/m 9,8 km/h (2 Bft) O 99 1 min 0,000 mm 0,8 UV-I 315 W/m 7,1 C 13,3 C 17,7 km/h (3 Bft) 95,65 %
31.10.2015 14:17 15,1 C 60 % 1028,0 hPa 0,0 l/m 10,6 km/h (2 Bft) O-NO 73 1 min 0,000 mm 0,8 UV-I 314 W/m 7,4 C 13,0 C 17,7 km/h (3 Bft) 100,00 %
31.10.2015 14:18 15,1 C 59 % 1028,0 hPa 0,0 l/m 16,3 km/h (3 Bft) O 87 1 min 0,000 mm 0,8 UV-I 311 W/m 7,1 C 10,9 C 22,5 km/h (4 Bft) 100,00 %
31.10.2015 14:19 15,1 C 58 % 1028,0 hPa 0,0 l/m 9,4 km/h (2 Bft) O 86 1 min 0,000 mm 0,8 UV-I 310 W/m 6,9 C 13,5 C 14,5 km/h (3 Bft) 100,00 %
31.10.2015 14:20 15,1 C 60 % 1028,0 hPa 0,0 l/m 5,2 km/h (1 Bft) SO 133 1 min 0,000 mm 0,8 UV-I 308 W/m 7,4 C 15,1 C 9,7 km/h (2 Bft) 100,00 %
31.10.2015 14:21 15,1 C 60 % 1028,0 hPa 0,0 l/m 7,8 km/h (2 Bft) O 94 1 min 0,000 mm 0,8 UV-I 305 W/m 7,4 C 14,3 C 16,1 km/h (3 Bft) 100,00 %
31.10.2015 14:22 15,1 C 59 % 1028,0 hPa 0,0 l/m 10,2 km/h (2 Bft) O-NO 65 1 min 0,000 mm 0,8 UV-I 302 W/m 7,1 C 13,1 C 17,7 km/h (3 Bft) 100,00 %
31.10.2015 14:23 15,1 C 59 % 1028,0 hPa 0,0 l/m 5,4 km/h (1 Bft) N-NO 28 1 min 0,000 mm 0,8 UV-I 302 W/m 7,1 C 15,1 C 14,5 km/h (3 Bft) 100,00 %
31.10.2015 14:24 15,2 C 59 % 1028,0 hPa 0,0 l/m 9,5 km/h (2 Bft) O 95 1 min 0,000 mm 0,8 UV-I 296 W/m 7,2 C 13,6 C 12,9 km/h (3 Bft) 100,00 %
31.10.2015 14:25 15,2 C 59 % 1028,0 hPa 0,0 l/m 5,5 km/h (1 Bft) N-NO 33 1 min 0,000 mm 0,8 UV-I 291 W/m 7,2 C 15,2 C 11,3 km/h (2 Bft) 100,00 %
31.10.2015 14:26 15,2 C 57 % 1028,0 hPa 0,0 l/m 13,4 km/h (3 Bft) NO 34 1 min 0,000 mm 0,7 UV-I 296 W/m 6,7 C 12,0 C 22,5 km/h (4 Bft) 100,00 %
31.10.2015 14:27 15,2 C 58 % 1028,0 hPa 0,0 l/m 17,1 km/h (3 Bft) O-NO 76 1 min 0,000 mm 0,7 UV-I 294 W/m 7,0 C 10,8 C 22,5 km/h (4 Bft) 100,00 %
31.10.2015 14:28 15,2 C 58 % 1027,9 hPa 0,0 l/m 16,7 km/h (3 Bft) N-NO 31 1 min 0,000 mm 0,7 UV-I 294 W/m 7,0 C 10,9 C 22,5 km/h (4 Bft) 100,00 %
31.10.2015 14:29 15,1 C 58 % 1027,9 hPa 0,0 l/m 17,1 km/h (3 Bft) O-NO 74 1 min 0,000 mm 0,7 UV-I 290 W/m 6,9 C 10,7 C 22,5 km/h (4 Bft) 100,00 %
31.10.2015 14:30 15,1 C 57 % 1027,9 hPa 0,0 l/m 13,0 km/h (3 Bft) O 84 1 min 0,000 mm 0,7 UV-I 288 W/m 6,6 C 12,0 C 17,7 km/h (3 Bft) 100,00 %
31.10.2015 14:31 15,1 C 58 % 1028,0 hPa 0,0 l/m 12,0 km/h (2 Bft) O 85 1 min 0,000 mm 0,7 UV-I 287 W/m 6,9 C 12,4 C 14,5 km/h (3 Bft) 100,00 %
31.10.2015 14:32 15,2 C 59 % 1028,0 hPa 0,0 l/m 12,5 km/h (3 Bft) NO 53 1 min 0,000 mm 0,7 UV-I 286 W/m 7,2 C 12,3 C 19,3 km/h (3 Bft) 100,00 %
31.10.2015 14:33 15,2 C 60 % 1027,9 hPa 0,0 l/m 7,5 km/h (2 Bft) O-NO 74 1 min 0,000 mm 0,7 UV-I 284 W/m 7,5 C 14,6 C 11,3 km/h (2 Bft) 100,00 %
31.10.2015 14:34 15,2 C 60 % 1028,0 hPa 0,0 l/m 3,5 km/h (1 Bft) O 97 1 min 0,000 mm 0,7 UV-I 281 W/m 7,5 C 15,2 C 6,4 km/h (2 Bft) 100,00 %
31.10.2015 14:35 15,2 C 58 % 1028,0 hPa 0,0 l/m 11,5 km/h (2 Bft) O 83 1 min 0,000 mm 0,7 UV-I 278 W/m 7,0 C 12,7 C 17,7 km/h (3 Bft) 100,00 %
31.10.2015 14:36 15,2 C 58 % 1028,0 hPa 0,0 l/m 10,3 km/h (2 Bft) O 82 1 min 0,000 mm 0,7 UV-I 277 W/m 7,0 C 13,2 C 16,1 km/h (3 Bft) 100,00 %
31.10.2015 14:37 15,2 C 58 % 1028,1 hPa 0,0 l/m 8,3 km/h (2 Bft) O 89 1 min 0,000 mm 0,6 UV-I 275 W/m 7,0 C 14,2 C 14,5 km/h (3 Bft) 100,00 %
31.10.2015 14:38 15,2 C 59 % 1028,1 hPa 0,0 l/m 6,1 km/h (2 Bft) O-SO 103 1 min 0,000 mm 0,6 UV-I 272 W/m 7,2 C 15,2 C 11,3 km/h (2 Bft) 100,00 %
31.10.2015 14:39 15,2 C 60 % 1028,0 hPa 0,0 l/m 4,5 km/h (1 Bft) O-NO 74 1 min 0,000 mm 0,6 UV-I 269 W/m 7,5 C 15,2 C 6,4 km/h (2 Bft) 100,00 %
31.10.2015 14:40 15,2 C 59 % 1028,1 hPa 0,0 l/m 5,0 km/h (1 Bft) O 92 1 min 0,000 mm 0,6 UV-I 269 W/m 7,2 C 15,2 C 9,7 km/h (2 Bft) 100,00 %
31.10.2015 14:41 15,2 C 60 % 1028,0 hPa 0,0 l/m 7,4 km/h (2 Bft) O 89 1 min 0,000 mm 0,6 UV-I 267 W/m 7,5 C 14,6 C 11,3 km/h (2 Bft) 100,00 %
31.10.2015 14:42 15,2 C 58 % 1028,1 hPa 0,0 l/m 6,3 km/h (2 Bft) NO 43 1 min 0,000 mm 0,6 UV-I 263 W/m 7,0 C 15,2 C 9,7 km/h (2 Bft) 96,55 %
31.10.2015 14:43 15,3 C 60 % 1028,1 hPa 0,0 l/m 6,3 km/h (2 Bft) NO 53 1 min 0,000 mm 0,6 UV-I 260 W/m 7,6 C 15,3 C 11,3 km/h (2 Bft) 100,00 %
31.10.2015 14:44 15,2 C 59 % 1028,1 hPa 0,0 l/m 5,3 km/h (1 Bft) O-NO 60 1 min 0,000 mm 0,6 UV-I 258 W/m 7,2 C 15,2 C 9,7 km/h (2 Bft) 100,00 %
31.10.2015 14:45 15,2 C 59 % 1028,1 hPa 0,0 l/m 7,2 km/h (2 Bft) O 93 1 min 0,000 mm 0,6 UV-I 256 W/m 7,2 C 14,8 C 12,9 km/h (3 Bft) 100,00 %
31.10.2015 14:46 15,3 C 59 % 1028,1 hPa 0,0 l/m 7,3 km/h (2 Bft) SO 134 1 min 0,000 mm 0,6 UV-I 253 W/m 7,3 C 14,8 C 11,3 km/h (2 Bft) 100,00 %
31.10.2015 14:47 15,3 C 59 % 1028,0 hPa 0,0 l/m 8,9 km/h (2 Bft) O-NO 61 1 min 0,000 mm 0,6 UV-I 251 W/m 7,3 C 14,0 C 12,9 km/h (3 Bft) 100,00 %
31.10.2015 14:48 15,3 C 57 % 1028,1 hPa 0,0 l/m 9,7 km/h (2 Bft) O-SO 104 1 min 0,000 mm 0,5 UV-I 249 W/m 6,8 C 13,6 C 12,9 km/h (3 Bft) 100,00 %
31.10.2015 14:49 15,3 C 58 % 1028,0 hPa 0,0 l/m 7,7 km/h (2 Bft) O-NO 74 1 min 0,000 mm 0,5 UV-I 247 W/m 7,1 C 14,6 C 12,9 km/h (3 Bft) 100,00 %
31.10.2015 14:50 15,3 C 58 % 1028,1 hPa 0,0 l/m 9,7 km/h (2 Bft) O 98 1 min 0,000 mm 0,5 UV-I 244 W/m 7,1 C 13,6 C 19,3 km/h (3 Bft) 95,65 %
31.10.2015 14:51 15,3 C 58 % 1028,1 hPa 0,0 l/m 10,8 km/h (2 Bft) O 82 1 min 0,000 mm 0,5 UV-I 241 W/m 7,1 C 13,1 C 14,5 km/h (3 Bft) 100,00 %
31.10.2015 14:52 15,3 C 58 % 1028,1 hPa 0,0 l/m 12,1 km/h (2 Bft) O-NO 69 1 min 0,000 mm 0,5 UV-I 239 W/m 7,1 C 12,6 C 17,7 km/h (3 Bft) 96,15 %
31.10.2015 14:53 15,2 C 58 % 1028,1 hPa 0,0 l/m 10,9 km/h (2 Bft) O-NO 70 1 min 0,000 mm 0,5 UV-I 236 W/m 7,0 C 12,9 C 14,5 km/h (3 Bft) 100,00 %
31.10.2015 14:54 15,2 C 58 % 1028,1 hPa 0,0 l/m 9,3 km/h (2 Bft) O-NO 68 1 min 0,000 mm 0,5 UV-I 233 W/m 7,0 C 13,7 C 12,9 km/h (3 Bft) 100,00 %
31.10.2015 14:55 15,2 C 60 % 1028,2 hPa 0,0 l/m 7,9 km/h (2 Bft) NO 53 1 min 0,000 mm 0,5 UV-I 231 W/m 7,5 C 14,4 C 14,5 km/h (3 Bft) 100,00 %
31.10.2015 14:56 15,2 C 58 % 1028,1 hPa 0,0 l/m 11,3 km/h (2 Bft) O 96 1 min 0,000 mm 0,5 UV-I 229 W/m 7,0 C 12,8 C 19,3 km/h (3 Bft) 100,00 %
31.10.2015 14:57 15,2 C 58 % 1028,1 hPa 0,0 l/m 14,0 km/h (3 Bft) O 92 1 min 0,000 mm 0,5 UV-I 226 W/m 7,0 C 11,8 C 20,9 km/h (4 Bft) 100,00 %
31.10.2015 14:58 15,2 C 58 % 1028,1 hPa 0,0 l/m 9,3 km/h (2 Bft) NO 51 1 min 0,000 mm 0,5 UV-I 223 W/m 7,0 C 13,7 C 12,9 km/h (3 Bft) 96,15 %
31.10.2015 14:59 15,2 C 58 % 1028,1 hPa 0,0 l/m 11,0 km/h (2 Bft) O-NO 74 1 min 0,000 mm 0,5 UV-I 221 W/m 7,0 C 12,9 C 17,7 km/h (3 Bft) 100,00 %
31.10.2015 15:00 15,2 C 59 % 1028,0 hPa 0,0 l/m 12,6 km/h (3 Bft) O-SO 107 1 min 0,000 mm 0,4 UV-I 219 W/m 7,2 C 12,3 C 16,1 km/h (3 Bft) 100,00 %
31.10.2015 15:01 15,1 C 59 % 1028,1 hPa 0,0 l/m 5,9 km/h (2 Bft) SO 134 1 min 0,203 mm 0,0 UV-I 215 W/m 7,1 C 15,1 C 8,0 km/h (2 Bft) 100,00 %
31.10.2015 15:02 15,1 C 59 % 1028,1 hPa 0,0 l/m 7,7 km/h (2 Bft) O 82 1 min 0,000 mm 0,0 UV-I 212 W/m 7,1 C 14,4 C 12,9 km/h (3 Bft) 100,00 %
31.10.2015 15:03 15,1 C 58 % 1028,1 hPa 0,0 l/m 9,9 km/h (2 Bft) N-NO 28 1 min 0,000 mm 0,0 UV-I 209 W/m 6,9 C 13,3 C 16,1 km/h (3 Bft) 100,00 %
31.10.2015 15:04 15,1 C 58 % 1028,0 hPa 0,0 l/m 9,9 km/h (2 Bft) O-NO 69 1 min 0,000 mm 0,0 UV-I 207 W/m 6,9 C 13,3 C 12,9 km/h (3 Bft) 96,55 %
31.10.2015 15:05 15,1 C 58 % 1028,0 hPa 0,0 l/m 11,5 km/h (2 Bft) O-SO 111 1 min 0,000 mm 0,0 UV-I 205 W/m 6,9 C 12,6 C 19,3 km/h (3 Bft) 95,83 %
31.10.2015 15:06 15,1 C 58 % 1028,1 hPa 0,0 l/m 13,9 km/h (3 Bft) O-NO 77 1 min 0,000 mm 0,0 UV-I 203 W/m 6,9 C 11,7 C 22,5 km/h (4 Bft) 100,00 %
31.10.2015 15:07 15,1 C 57 % 1028,0 hPa 0,0 l/m 12,9 km/h (3 Bft) O 84 1 min 0,000 mm 0,0 UV-I 199 W/m 6,6 C 12,0 C 20,9 km/h (4 Bft) 95,83 %
31.10.2015 15:08 15,1 C 57 % 1028,0 hPa 0,0 l/m 16,5 km/h (3 Bft) SO 125 1 min 0,000 mm 0,0 UV-I 198 W/m 6,6 C 10,8 C 20,9 km/h (4 Bft) 100,00 %
31.10.2015 15:09 15,1 C 57 % 1028,0 hPa 0,0 l/m 15,2 km/h (3 Bft) O-NO 62 1 min 0,000 mm 0,0 UV-I 193 W/m 6,6 C 11,2 C 22,5 km/h (4 Bft) 100,00 %
31.10.2015 15:10 15,1 C 57 % 1028,0 hPa 0,0 l/m 16,5 km/h (3 Bft) O-NO 77 1 min 0,000 mm 0,0 UV-I 192 W/m 6,6 C 10,8 C 24,1 km/h (4 Bft) 100,00 %
31.10.2015 15:11 15,1 C 57 % 1028,0 hPa 0,0 l/m 14,6 km/h (3 Bft) O-NO 74 1 min 0,000 mm 0,0 UV-I 189 W/m 6,6 C 11,4 C 19,3 km/h (3 Bft) 100,00 %
31.10.2015 15:12 15,1 C 58 % 1028,0 hPa 0,0 l/m 10,2 km/h (2 Bft) O-SO 117 1 min 0,000 mm 0,0 UV-I 186 W/m 6,9 C 13,1 C 12,9 km/h (3 Bft) 100,00 %
31.10.2015 15:13 15,0 C 57 % 1028,0 hPa 0,0 l/m 16,5 km/h (3 Bft) O 82 1 min 0,000 mm 0,0 UV-I 182 W/m 6,6 C 10,7 C 22,5 km/h (4 Bft) 100,00 %
31.10.2015 15:14 15,0 C 57 % 1028,0 hPa 0,0 l/m 15,7 km/h (3 Bft) O-NO 76 1 min 0,000 mm 0,0 UV-I 180 W/m 6,6 C 11,0 C 25,7 km/h (4 Bft) 100,00 %
31.10.2015 15:15 15,0 C 57 % 1028,0 hPa 0,0 l/m 12,6 km/h (3 Bft) O-NO 71 1 min 0,000 mm 0,0 UV-I 178 W/m 6,6 C 12,0 C 17,7 km/h (3 Bft) 95,65 %
31.10.2015 15:16 14,9 C 57 % 1028,0 hPa 0,0 l/m 15,1 km/h (3 Bft) O 86 1 min 0,000 mm 0,0 UV-I 175 W/m 6,5 C 11,0 C 24,1 km/h (4 Bft) 100,00 %
31.10.2015 15:17 14,9 C 57 % 1028,0 hPa 0,0 l/m 19,6 km/h (3 Bft) O 84 1 min 0,000 mm 0,0 UV-I 172 W/m 6,5 C 9,7 C 30,6 km/h (5 Bft) 100,00 %
31.10.2015 15:18 14,9 C 57 % 1028,0 hPa 0,0 l/m 11,6 km/h (2 Bft) O 86 1 min 0,000 mm 0,0 UV-I 169 W/m 6,5 C 12,3 C 16,1 km/h (3 Bft) 100,00 %
31.10.2015 15:19 14,9 C 57 % 1028,0 hPa 0,0 l/m 14,7 km/h (3 Bft) O 80 1 min 0,000 mm 0,0 UV-I 166 W/m 6,5 C 11,2 C 19,3 km/h (3 Bft) 100,00 %
31.10.2015 15:20 14,9 C 57 % 1028,0 hPa 0,0 l/m 14,6 km/h (3 Bft) O-NO 76 1 min 0,000 mm 0,0 UV-I 163 W/m 6,5 C 11,2 C 22,5 km/h (4 Bft) 100,00 %
31.10.2015 15:21 14,9 C 57 % 1028,0 hPa 0,0 l/m 14,8 km/h (3 Bft) NO 42 1 min 0,000 mm 0,0 UV-I 160 W/m 6,5 C 11,1 C 24,1 km/h (4 Bft) 95,65 %
31.10.2015 15:22 14,9 C 57 % 1028,0 hPa 0,0 l/m 16,6 km/h (3 Bft) O 92 1 min 0,000 mm 0,0 UV-I 156 W/m 6,5 C 10,6 C 22,5 km/h (4 Bft) 95,83 %
31.10.2015 15:23 14,9 C 57 % 1027,9 hPa 0,0 l/m 16,1 km/h (3 Bft) O 84 1 min 0,000 mm 0,0 UV-I 154 W/m 6,5 C 10,7 C 22,5 km/h (4 Bft) 91,67 %
31.10.2015 15:24 14,9 C 57 % 1028,0 hPa 0,0 l/m 19,0 km/h (3 Bft) O-NO 78 1 min 0,000 mm 0,0 UV-I 152 W/m 6,5 C 9,9 C 27,4 km/h (4 Bft) 100,00 %
31.10.2015 15:25 14,9 C 57 % 1028,0 hPa 0,0 l/m 15,4 km/h (3 Bft) O-NO 78 1 min 0,000 mm 0,0 UV-I 149 W/m 6,5 C 10,9 C 20,9 km/h (4 Bft) 100,00 %
31.10.2015 15:26 14,9 C 58 % 1028,0 hPa 0,0 l/m 12,4 km/h (3 Bft) O-NO 61 1 min 0,000 mm 0,0 UV-I 146 W/m 6,7 C 12,0 C 22,5 km/h (4 Bft) 95,83 %
31.10.2015 15:27 14,8 C 57 % 1028,0 hPa 0,0 l/m 12,4 km/h (3 Bft) O-NO 70 1 min 0,000 mm 0,0 UV-I 142 W/m 6,4 C 11,9 C 17,7 km/h (3 Bft) 100,00 %
31.10.2015 15:28 14,8 C 57 % 1028,0 hPa 0,0 l/m 15,1 km/h (3 Bft) O 93 1 min 0,000 mm 0,0 UV-I 141 W/m 6,4 C 10,9 C 24,1 km/h (4 Bft) 100,00 %
31.10.2015 15:29 14,8 C 56 % 1028,0 hPa 0,0 l/m 15,1 km/h (3 Bft) NO 55 1 min 0,000 mm 0,0 UV-I 138 W/m 6,1 C 10,9 C 20,9 km/h (4 Bft) 100,00 %
31.10.2015 15:30 14,8 C 57 % 1028,0 hPa 0,0 l/m 12,7 km/h (3 Bft) O-NO 74 1 min 0,000 mm 0,0 UV-I 135 W/m 6,4 C 11,8 C 19,3 km/h (3 Bft) 100,00 %
31.10.2015 15:31 14,8 C 57 % 1028,0 hPa 0,0 l/m 16,6 km/h (3 Bft) O 95 1 min 0,000 mm 0,0 UV-I 133 W/m 6,4 C 10,4 C 22,5 km/h (4 Bft) 100,00 %
31.10.2015 15:32 14,8 C 57 % 1028,0 hPa 0,0 l/m 18,2 km/h (3 Bft) O 82 1 min 0,000 mm 0,0 UV-I 130 W/m 6,4 C 10,0 C 22,5 km/h (4 Bft) 100,00 %
31.10.2015 15:33 14,8 C 58 % 1028,0 hPa 0,0 l/m 13,5 km/h (3 Bft) O-NO 75 1 min 0,000 mm 0,0 UV-I 127 W/m 6,6 C 11,5 C 25,7 km/h (4 Bft) 100,00 %
31.10.2015 15:34 14,8 C 58 % 1028,0 hPa 0,0 l/m 11,5 km/h (2 Bft) N-NO 18 1 min 0,000 mm 0,0 UV-I 124 W/m 6,6 C 12,2 C 20,9 km/h (4 Bft) 100,00 %
31.10.2015 15:35 14,7 C 58 % 1028,1 hPa 0,0 l/m 12,8 km/h (3 Bft) O-NO 58 1 min 0,000 mm 0,0 UV-I 122 W/m 6,5 C 11,6 C 20,9 km/h (4 Bft) 100,00 %
31.10.2015 15:36 14,7 C 58 % 1028,1 hPa 0,0 l/m 15,4 km/h (3 Bft) O-SO 106 1 min 0,000 mm 0,0 UV-I 119 W/m 6,5 C 10,7 C 20,9 km/h (4 Bft) 100,00 %
31.10.2015 15:37 14,7 C 57 % 1028,1 hPa 0,0 l/m 17,0 km/h (3 Bft) O-SO 103 1 min 0,000 mm 0,0 UV-I 117 W/m 6,3 C 10,2 C 22,5 km/h (4 Bft) 100,00 %
31.10.2015 15:38 14,7 C 58 % 1028,1 hPa 0,0 l/m 18,3 km/h (3 Bft) O-NO 64 1 min 0,000 mm 0,0 UV-I 114 W/m 6,5 C 9,8 C 22,5 km/h (4 Bft) 96,15 %
31.10.2015 15:39 14,7 C 57 % 1028,1 hPa 0,0 l/m 18,1 km/h (3 Bft) O-SO 105 1 min 0,000 mm 0,0 UV-I 111 W/m 6,3 C 9,9 C 27,4 km/h (4 Bft) 100,00 %
31.10.2015 15:40 14,7 C 57 % 1028,1 hPa 0,0 l/m 15,4 km/h (3 Bft) O-NO 63 1 min 0,000 mm 0,0 UV-I 108 W/m 6,3 C 10,7 C 24,1 km/h (4 Bft) 100,00 %
31.10.2015 15:41 14,6 C 58 % 1028,1 hPa 0,0 l/m 17,2 km/h (3 Bft) NO 56 1 min 0,000 mm 0,0 UV-I 105 W/m 6,4 C 10,0 C 25,7 km/h (4 Bft) 100,00 %
31.10.2015 15:42 14,6 C 57 % 1028,0 hPa 0,0 l/m 15,4 km/h (3 Bft) O 89 1 min 0,000 mm 0,0 UV-I 103 W/m 6,2 C 10,6 C 25,7 km/h (4 Bft) 100,00 %
31.10.2015 15:43 14,6 C 57 % 1028,1 hPa 0,0 l/m 16,0 km/h (3 Bft) O 83 1 min 0,000 mm 0,0 UV-I 101 W/m 6,2 C 10,4 C 20,9 km/h (4 Bft) 100,00 %
31.10.2015 15:44 14,6 C 57 % 1028,2 hPa 0,0 l/m 14,6 km/h (3 Bft) O 82 1 min 0,000 mm 0,0 UV-I 97 W/m 6,2 C 10,8 C 22,5 km/h (4 Bft) 100,00 %
31.10.2015 15:45 14,6 C 58 % 1028,1 hPa 0,0 l/m 15,1 km/h (3 Bft) O-NO 73 1 min 0,000 mm 0,0 UV-I 95 W/m 6,4 C 10,7 C 27,4 km/h (4 Bft) 100,00 %
31.10.2015 15:46 14,6 C 57 % 1028,2 hPa 0,0 l/m 16,8 km/h (3 Bft) SO 137 1 min 0,000 mm 0,0 UV-I 93 W/m 6,2 C 10,1 C 22,5 km/h (4 Bft) 100,00 %
31.10.2015 15:47 14,6 C 57 % 1028,2 hPa 0,0 l/m 14,4 km/h (3 Bft) NO 53 1 min 0,000 mm 0,0 UV-I 91 W/m 6,2 C 10,9 C 22,5 km/h (4 Bft) 96,15 %
31.10.2015 15:48 14,6 C 57 % 1028,2 hPa 0,0 l/m 14,8 km/h (3 Bft) O-NO 76 1 min 0,000 mm 0,0 UV-I 88 W/m 6,2 C 10,8 C 27,4 km/h (4 Bft) 100,00 %
31.10.2015 15:49 14,5 C 58 % 1028,2 hPa 0,0 l/m 13,9 km/h (3 Bft) O 86 1 min 0,000 mm 0,0 UV-I 84 W/m 6,3 C 11,0 C 22,5 km/h (4 Bft) 100,00 %
31.10.2015 15:50 14,5 C 58 % 1028,2 hPa 0,0 l/m 15,5 km/h (3 Bft) O 92 1 min 0,000 mm 0,0 UV-I 83 W/m 6,3 C 10,4 C 22,5 km/h (4 Bft) 100,00 %
31.10.2015 15:51 14,4 C 58 % 1028,2 hPa 0,0 l/m 18,6 km/h (3 Bft) O 99 1 min 0,000 mm 0,0 UV-I 81 W/m 6,2 C 9,4 C 27,4 km/h (4 Bft) 100,00 %
31.10.2015 15:52 14,4 C 57 % 1028,2 hPa 0,0 l/m 17,9 km/h (3 Bft) O 92 1 min 0,000 mm 0,0 UV-I 79 W/m 6,0 C 9,6 C 25,7 km/h (4 Bft) 100,00 %
31.10.2015 15:53 14,5 C 57 % 1028,2 hPa 0,0 l/m 15,3 km/h (3 Bft) SO 126 1 min 0,000 mm 0,0 UV-I 76 W/m 6,1 C 10,5 C 22,5 km/h (4 Bft) 100,00 %
31.10.2015 15:54 14,5 C 57 % 1028,2 hPa 0,0 l/m 15,3 km/h (3 Bft) O-NO 65 1 min 0,000 mm 0,0 UV-I 74 W/m 6,1 C 10,5 C 20,9 km/h (4 Bft) 100,00 %
31.10.2015 15:55 14,4 C 58 % 1028,2 hPa 0,0 l/m 11,1 km/h (2 Bft) O 81 1 min 0,000 mm 0,0 UV-I 71 W/m 6,2 C 12,0 C 16,1 km/h (3 Bft) 100,00 %
31.10.2015 15:56 14,4 C 58 % 1028,3 hPa 0,0 l/m 11,8 km/h (2 Bft) O-NO 78 1 min 0,000 mm 0,0 UV-I 69 W/m 6,2 C 11,7 C 16,1 km/h (3 Bft) 100,00 %
31.10.2015 15:57 14,3 C 59 % 1028,3 hPa 0,0 l/m 8,1 km/h (2 Bft) O-NO 78 1 min 0,000 mm 0,0 UV-I 67 W/m 6,4 C 13,3 C 14,5 km/h (3 Bft) 100,00 %
31.10.2015 15:58 14,3 C 59 % 1028,3 hPa 0,0 l/m 13,0 km/h (3 Bft) O-NO 71 0 min 0,000 mm 0,0 UV-I 64 W/m 6,4 C 11,1 C 24,1 km/h (4 Bft) 100,00 %
31.10.2015 15:59 14,2 C 58 % 1028,2 hPa 0,0 l/m 14,4 km/h (3 Bft) O 84 0 min 0,000 mm 0,0 UV-I 62 W/m 6,1 C 10,4 C 25,7 km/h (4 Bft) 100,00 %
31.10.2015 16:00 14,2 C 58 % 1028,3 hPa 0,0 l/m 13,2 km/h (3 Bft) O-SO 120 0 min 0,000 mm 0,0 UV-I 61 W/m 6,1 C 10,9 C 24,1 km/h (4 Bft) 100,00 %
31.10.2015 16:01 14,2 C 59 % 1028,3 hPa 0,0 l/m 17,5 km/h (3 Bft) N 350 0 min 0,152 mm 0,0 UV-I 59 W/m 6,3 C 9,4 C 24,1 km/h (4 Bft) 100,00 %
31.10.2015 16:02 14,2 C 59 % 1028,3 hPa 0,0 l/m 16,0 km/h (3 Bft) O-NO 76 0 min 0,001 mm 0,0 UV-I 56 W/m 6,3 C 9,9 C 22,5 km/h (4 Bft) 96,30 %
31.10.2015 16:03 14,2 C 58 % 1028,3 hPa 0,0 l/m 17,4 km/h (3 Bft) SO 137 0 min 0,000 mm 0,0 UV-I 54 W/m 6,1 C 9,4 C 24,1 km/h (4 Bft) 100,00 %
31.10.2015 16:04 14,2 C 59 % 1028,3 hPa 0,0 l/m 12,4 km/h (3 Bft) O-NO 67 0 min 0,000 mm 0,0 UV-I 53 W/m 6,3 C 11,2 C 19,3 km/h (3 Bft) 100,00 %
31.10.2015 16:05 14,2 C 59 % 1028,3 hPa 0,0 l/m 14,6 km/h (3 Bft) O-NO 77 0 min 0,000 mm 0,0 UV-I 51 W/m 6,3 C 10,4 C 20,9 km/h (4 Bft) 95,83 %
31.10.2015 16:06 14,2 C 58 % 1028,3 hPa 0,0 l/m 14,8 km/h (3 Bft) O-NO 68 0 min 0,000 mm 0,0 UV-I 48 W/m 6,1 C 10,3 C 27,4 km/h (4 Bft) 100,00 %
31.10.2015 16:07 14,1 C 58 % 1028,3 hPa 0,0 l/m 16,4 km/h (3 Bft) O 91 0 min 0,000 mm 0,0 UV-I 46 W/m 6,0 C 9,6 C 25,7 km/h (4 Bft) 100,00 %
31.10.2015 16:08 14,1 C 59 % 1028,4 hPa 0,0 l/m 11,0 km/h (2 Bft) O-NO 62 0 min 0,000 mm 0,0 UV-I 44 W/m 6,2 C 11,7 C 16,1 km/h (3 Bft) 100,00 %
31.10.2015 16:09 14,1 C 59 % 1028,4 hPa 0,0 l/m 11,8 km/h (2 Bft) O-SO 111 0 min 0,000 mm 0,0 UV-I 42 W/m 6,2 C 11,3 C 17,7 km/h (3 Bft) 100,00 %
31.10.2015 16:10 14,0 C 60 % 1028,4 hPa 0,0 l/m 9,6 km/h (2 Bft) O-NO 76 0 min 0,000 mm 0,0 UV-I 40 W/m 6,4 C 12,2 C 19,3 km/h (3 Bft) 100,00 %
31.10.2015 16:11 13,9 C 60 % 1028,4 hPa 0,0 l/m 14,1 km/h (3 Bft) O-NO 78 0 min 0,000 mm 0,0 UV-I 38 W/m 6,3 C 10,2 C 19,3 km/h (3 Bft) 100,00 %
31.10.2015 16:12 13,9 C 60 % 1028,4 hPa 0,0 l/m 12,7 km/h (3 Bft) O 91 0 min 0,000 mm 0,0 UV-I 36 W/m 6,3 C 10,7 C 16,1 km/h (3 Bft) 100,00 %
31.10.2015 16:13 13,9 C 59 % 1028,4 hPa 0,0 l/m 15,3 km/h (3 Bft) O-SO 104 0 min 0,000 mm 0,0 UV-I 35 W/m 6,0 C 9,8 C 19,3 km/h (3 Bft) 100,00 %
31.10.2015 16:14 13,9 C 59 % 1028,4 hPa 0,0 l/m 18,1 km/h (3 Bft) O 80 0 min 0,000 mm 0,0 UV-I 33 W/m 6,0 C 8,9 C 25,7 km/h (4 Bft) 95,65 %
31.10.2015 16:15 13,9 C 59 % 1028,5 hPa 0,0 l/m 19,4 km/h (3 Bft) O-NO 57 0 min 0,000 mm 0,0 UV-I 32 W/m 6,0 C 8,5 C 27,4 km/h (4 Bft) 100,00 %
31.10.2015 16:16 13,9 C 59 % 1028,4 hPa 0,0 l/m 14,2 km/h (3 Bft) O 95 0 min 0,000 mm 0,0 UV-I 29 W/m 6,0 C 10,1 C 19,3 km/h (3 Bft) 96,15 %
31.10.2015 16:17 13,9 C 59 % 1028,5 hPa 0,0 l/m 15,9 km/h (3 Bft) O 92 0 min 0,000 mm 0,0 UV-I 27 W/m 6,0 C 9,6 C 24,1 km/h (4 Bft) 100,00 %
31.10.2015 16:18 13,9 C 59 % 1028,5 hPa 0,0 l/m 14,3 km/h (3 Bft) O-NO 78 0 min 0,000 mm 0,0 UV-I 26 W/m 6,0 C 10,1 C 20,9 km/h (4 Bft) 100,00 %
31.10.2015 16:19 13,9 C 60 % 1028,5 hPa 0,0 l/m 10,8 km/h (2 Bft) O-NO 67 0 min 0,000 mm 0,0 UV-I 25 W/m 6,3 C 11,5 C 19,3 km/h (3 Bft) 100,00 %
31.10.2015 16:20 13,8 C 59 % 1028,5 hPa 0,0 l/m 13,8 km/h (3 Bft) NO 50 0 min 0,000 mm 0,0 UV-I 23 W/m 5,9 C 10,2 C 20,9 km/h (4 Bft) 100,00 %
31.10.2015 16:21 13,8 C 59 % 1028,5 hPa 0,0 l/m 15,9 km/h (3 Bft) NO 53 0 min 0,000 mm 0,0 UV-I 21 W/m 5,9 C 9,4 C 22,5 km/h (4 Bft) 100,00 %
31.10.2015 16:22 13,8 C 60 % 1028,5 hPa 0,0 l/m 14,2 km/h (3 Bft) O 89 0 min 0,000 mm 0,0 UV-I 20 W/m 6,2 C 10,0 C 17,7 km/h (3 Bft) 100,00 %
31.10.2015 16:23 13,8 C 59 % 1028,5 hPa 0,0 l/m 13,8 km/h (3 Bft) O-NO 57 0 min 0,000 mm 0,0 UV-I 19 W/m 5,9 C 10,2 C 19,3 km/h (3 Bft) 100,00 %
31.10.2015 16:24 13,8 C 59 % 1028,5 hPa 0,0 l/m 16,8 km/h (3 Bft) O-NO 62 0 min 0,000 mm 0,0 UV-I 18 W/m 5,9 C 9,1 C 22,5 km/h (4 Bft) 100,00 %
31.10.2015 16:25 13,8 C 59 % 1028,5 hPa 0,0 l/m 14,7 km/h (3 Bft) O-NO 76 0 min 0,000 mm 0,0 UV-I 18 W/m 5,9 C 9,8 C 17,7 km/h (3 Bft) 96,55 %
31.10.2015 16:26 13,8 C 59 % 1028,6 hPa 0,0 l/m 18,2 km/h (3 Bft) O 94 0 min 0,000 mm 0,0 UV-I 16 W/m 5,9 C 8,7 C 22,5 km/h (4 Bft) 100,00 %
31.10.2015 16:27 13,8 C 59 % 1028,5 hPa 0,0 l/m 12,5 km/h (3 Bft) O-NO 69 0 min 0,000 mm 0,0 UV-I 16 W/m 5,9 C 10,7 C 19,3 km/h (3 Bft) 100,00 %
31.10.2015 16:28 13,7 C 60 % 1028,5 hPa 0,0 l/m 13,9 km/h (3 Bft) O 88 0 min 0,000 mm 0,0 UV-I 15 W/m 6,1 C 10,0 C 22,5 km/h (4 Bft) 100,00 %
31.10.2015 16:29 13,7 C 59 % 1028,4 hPa 0,0 l/m 16,4 km/h (3 Bft) O-SO 111 0 min 0,000 mm 0,0 UV-I 14 W/m 5,8 C 9,1 C 25,7 km/h (4 Bft) 96,55 %
31.10.2015 16:30 13,7 C 59 % 1028,5 hPa 0,0 l/m 16,0 km/h (3 Bft) O-SO 105 0 min 0,000 mm 0,0 UV-I 14 W/m 5,8 C 9,3 C 27,4 km/h (4 Bft) 100,00 %
31.10.2015 16:31 13,7 C 60 % 1028,5 hPa 0,0 l/m 13,8 km/h (3 Bft) O-NO 76 0 min 0,000 mm 0,0 UV-I 12 W/m 6,1 C 10,1 C 17,7 km/h (3 Bft) 92,86 %
31.10.2015 16:32 13,7 C 60 % 1028,5 hPa 0,0 l/m 7,8 km/h (2 Bft) NO 51 0 min 0,000 mm 0,0 UV-I 12 W/m 6,1 C 12,9 C 12,9 km/h (3 Bft) 95,83 %
31.10.2015 16:33 13,7 C 60 % 1028,5 hPa 0,0 l/m 14,9 km/h (3 Bft) O-SO 119 0 min 0,000 mm 0,0 UV-I 12 W/m 6,1 C 9,7 C 20,9 km/h (4 Bft) 100,00 %
31.10.2015 16:34 13,6 C 60 % 1028,5 hPa 0,0 l/m 14,6 km/h (3 Bft) O-NO 76 1 min 0,000 mm 0,0 UV-I 12 W/m 6,0 C 9,6 C 20,9 km/h (4 Bft) 100,00 %
31.10.2015 16:35 13,6 C 60 % 1028,5 hPa 0,0 l/m 14,1 km/h (3 Bft) O 81 1 min 0,000 mm 0,0 UV-I 11 W/m 6,0 C 9,8 C 22,5 km/h (4 Bft) 95,65 %
31.10.2015 16:36 13,6 C 60 % 1028,4 hPa 0,0 l/m 15,6 km/h (3 Bft) O-NO 70 1 min 0,000 mm 0,0 UV-I 11 W/m 6,0 C 9,3 C 22,5 km/h (4 Bft) 95,83 %
31.10.2015 16:37 13,6 C 60 % 1028,5 hPa 0,0 l/m 11,8 km/h (2 Bft) O 86 0 min 0,000 mm 0,0 UV-I 11 W/m 6,0 C 10,7 C 17,7 km/h (3 Bft) 100,00 %
31.10.2015 16:38 13,6 C 60 % 1028,5 hPa 0,0 l/m 15,5 km/h (3 Bft) O-NO 70 0 min 0,000 mm 0,0 UV-I 11 W/m 6,0 C 9,3 C 22,5 km/h (4 Bft) 100,00 %
31.10.2015 16:39 13,5 C 61 % 1028,5 hPa 0,0 l/m 15,7 km/h (3 Bft) O 80 0 min 0,000 mm 0,0 UV-I 10 W/m 6,1 C 9,1 C 25,7 km/h (4 Bft) 100,00 %
31.10.2015 16:40 13,5 C 60 % 1028,5 hPa 0,0 l/m 14,5 km/h (3 Bft) O-NO 72 0 min 0,000 mm 0,0 UV-I 9 W/m 5,9 C 9,6 C 19,3 km/h (3 Bft) 96,30 %
31.10.2015 16:41 13,4 C 61 % 1028,5 hPa 0,0 l/m 15,6 km/h (3 Bft) O 96 0 min 0,000 mm 0,0 UV-I 9 W/m 6,0 C 9,0 C 22,5 km/h (4 Bft) 100,00 %
31.10.2015 16:42 13,4 C 61 % 1028,5 hPa 0,0 l/m 18,6 km/h (3 Bft) O 83 0 min 0,000 mm 0,0 UV-I 9 W/m 6,0 C 8,1 C 29,0 km/h (5 Bft) 100,00 %
31.10.2015 16:43 13,4 C 60 % 1028,6 hPa 0,0 l/m 17,8 km/h (3 Bft) NO 55 0 min 0,000 mm 0,0 UV-I 9 W/m 5,8 C 8,3 C 22,5 km/h (4 Bft) 100,00 %
31.10.2015 16:44 13,4 C 61 % 1028,5 hPa 0,0 l/m 17,4 km/h (3 Bft) O-NO 64 0 min 0,000 mm 0,0 UV-I 7 W/m 6,0 C 8,4 C 20,9 km/h (4 Bft) 100,00 %
31.10.2015 16:45 13,4 C 61 % 1028,6 hPa 0,0 l/m 15,6 km/h (3 Bft) O-NO 60 0 min 0,000 mm 0,0 UV-I 7 W/m 6,0 C 9,0 C 20,9 km/h (4 Bft) 100,00 %
31.10.2015 16:46 13,4 C 61 % 1028,6 hPa 0,0 l/m 12,5 km/h (3 Bft) O 94 0 min 0,000 mm 0,0 UV-I 7 W/m 6,0 C 10,2 C 19,3 km/h (3 Bft) 100,00 %
31.10.2015 16:47 13,4 C 61 % 1028,7 hPa 0,0 l/m 15,0 km/h (3 Bft) O-NO 72 0 min 0,000 mm 0,0 UV-I 7 W/m 6,0 C 9,3 C 17,7 km/h (3 Bft) 91,67 %
31.10.2015 16:48 13,3 C 61 % 1028,7 hPa 0,0 l/m 11,9 km/h (2 Bft) O-NO 69 0 min 0,000 mm 0,0 UV-I 5 W/m 5,9 C 10,4 C 16,1 km/h (3 Bft) 100,00 %
31.10.2015 16:49 13,3 C 61 % 1028,7 hPa 0,0 l/m 9,1 km/h (2 Bft) O-NO 69 0 min 0,000 mm 0,0 UV-I 5 W/m 5,9 C 11,7 C 16,1 km/h (3 Bft) 100,00 %
31.10.2015 16:50 13,3 C 62 % 1028,7 hPa 0,0 l/m 13,9 km/h (3 Bft) NO 44 0 min 0,000 mm 0,0 UV-I 5 W/m 6,2 C 9,5 C 17,7 km/h (3 Bft) 100,00 %
31.10.2015 16:51 13,2 C 62 % 1028,7 hPa 0,0 l/m 16,8 km/h (3 Bft) O 89 0 min 0,000 mm 0,0 UV-I 5 W/m 6,1 C 8,4 C 25,7 km/h (4 Bft) 100,00 %
31.10.2015 16:52 13,2 C 61 % 1028,7 hPa 0,0 l/m 16,9 km/h (3 Bft) NO 55 0 min 0,000 mm 0,0 UV-I 5 W/m 5,8 C 8,4 C 27,4 km/h (4 Bft) 100,00 %
31.10.2015 16:53 13,2 C 62 % 1028,7 hPa 0,0 l/m 17,5 km/h (3 Bft) O-SO 104 0 min 0,000 mm 0,0 UV-I 5 W/m 6,1 C 8,2 C 29,0 km/h (5 Bft) 100,00 %
31.10.2015 16:54 13,2 C 62 % 1028,7 hPa 0,0 l/m 14,6 km/h (3 Bft) O-NO 63 0 min 0,000 mm 0,0 UV-I 1 W/m 6,1 C 9,2 C 19,3 km/h (3 Bft) 100,00 %
31.10.2015 16:55 13,2 C 62 % 1028,8 hPa 0,0 l/m 14,7 km/h (3 Bft) O-NO 62 0 min 0,000 mm 0,0 UV-I 0 W/m 6,1 C 9,1 C 25,7 km/h (4 Bft) 87,50 %
31.10.2015 16:56 13,1 C 62 % 1028,8 hPa 0,0 l/m 20,0 km/h (4 Bft) O-NO 63 0 min 0,000 mm 0,0 UV-I 0 W/m 6,0 C 7,3 C 27,4 km/h (4 Bft) 96,15 %
31.10.2015 16:57 13,2 C 62 % 1028,8 hPa 0,0 l/m 14,9 km/h (3 Bft) O-NO 74 0 min 0,000 mm 0,0 UV-I 0 W/m 6,1 C 9,0 C 24,1 km/h (4 Bft) 100,00 %
31.10.2015 16:58 13,1 C 62 % 1028,7 hPa 0,0 l/m 18,0 km/h (3 Bft) O-SO 113 0 min 0,000 mm 0,0 UV-I 0 W/m 6,0 C 7,9 C 25,7 km/h (4 Bft) 100,00 %
31.10.2015 16:59 13,1 C 62 % 1028,7 hPa 0,0 l/m 17,6 km/h (3 Bft) O 101 0 min 0,000 mm 0,0 UV-I 0 W/m 6,0 C 8,0 C 24,1 km/h (4 Bft) 95,83 %
31.10.2015 17:00 13,1 C 62 % 1028,8 hPa 0,0 l/m 16,6 km/h (3 Bft) NO 53 0 min 0,000 mm 0,0 UV-I 0 W/m 6,0 C 8,3 C 24,1 km/h (4 Bft) 100,00 %
31.10.2015 17:01 13,1 C 62 % 1028,9 hPa 0,0 l/m 18,6 km/h (3 Bft) O 92 0 min 0,076 mm 0,0 UV-I 0 W/m 6,0 C 7,7 C 24,1 km/h (4 Bft) 100,00 %
31.10.2015 17:02 13,1 C 62 % 1028,8 hPa 0,0 l/m 12,5 km/h (3 Bft) O 84 0 min 0,000 mm 0,0 UV-I 0 W/m 6,0 C 9,9 C 22,5 km/h (4 Bft) 100,00 %
31.10.2015 17:03 13,1 C 62 % 1028,9 hPa 0,0 l/m 13,3 km/h (3 Bft) O 94 0 min 0,000 mm 0,0 UV-I 0 W/m 6,0 C 9,5 C 20,9 km/h (4 Bft) 97,37 %
31.10.2015 17:04 13,0 C 62 % 1028,9 hPa 0,0 l/m 17,1 km/h (3 Bft) O 99 0 min 0,000 mm 0,0 UV-I 0 W/m 5,9 C 8,0 C 22,5 km/h (4 Bft) 100,00 %
31.10.2015 17:05 13,0 C 63 % 1029,0 hPa 0,0 l/m 14,2 km/h (3 Bft) NO 47 0 min 0,000 mm 0,0 UV-I 0 W/m 6,1 C 9,1 C 22,5 km/h (4 Bft) 95,83 %
31.10.2015 17:06 13,0 C 63 % 1028,9 hPa 0,0 l/m 17,6 km/h (3 Bft) O-NO 70 0 min 0,000 mm 0,0 UV-I 0 W/m 6,1 C 7,9 C 29,0 km/h (5 Bft) 100,00 %
31.10.2015 17:07 13,0 C 62 % 1028,9 hPa 0,0 l/m 19,5 km/h (3 Bft) O 93 0 min 0,000 mm 0,0 UV-I 0 W/m 5,9 C 7,3 C 25,7 km/h (4 Bft) 100,00 %
31.10.2015 17:08 13,0 C 63 % 1028,9 hPa 0,0 l/m 18,8 km/h (3 Bft) O 92 0 min 0,000 mm 0,0 UV-I 0 W/m 6,1 C 7,5 C 27,4 km/h (4 Bft) 100,00 %
31.10.2015 17:09 13,0 C 62 % 1028,9 hPa 0,0 l/m 15,0 km/h (3 Bft) NO 46 0 min 0,000 mm 0,0 UV-I 0 W/m 5,9 C 8,8 C 19,3 km/h (3 Bft) 96,15 %
31.10.2015 17:10 13,0 C 63 % 1029,0 hPa 0,0 l/m 12,9 km/h (3 Bft) O 81 0 min 0,000 mm 0,0 UV-I 0 W/m 6,1 C 9,6 C 19,3 km/h (3 Bft) 100,00 %
31.10.2015 17:11 12,9 C 63 % 1029,0 hPa 0,0 l/m 12,6 km/h (3 Bft) O-NO 78 0 min 0,000 mm 0,0 UV-I 0 W/m 6,0 C 9,6 C 20,9 km/h (4 Bft) 100,00 %
31.10.2015 17:12 12,9 C 63 % 1029,0 hPa 0,0 l/m 15,7 km/h (3 Bft) O-NO 74 0 min 0,000 mm 0,0 UV-I 0 W/m 6,0 C 8,4 C 24,1 km/h (4 Bft) 100,00 %
31.10.2015 17:13 12,9 C 63 % 1028,9 hPa 0,0 l/m 17,9 km/h (3 Bft) O 82 0 min 0,000 mm 0,0 UV-I 0 W/m 6,0 C 7,7 C 27,4 km/h (4 Bft) 100,00 %
31.10.2015 17:14 12,9 C 63 % 1029,0 hPa 0,0 l/m 13,6 km/h (3 Bft) SO 124 0 min 0,000 mm 0,0 UV-I 0 W/m 6,0 C 9,2 C 22,5 km/h (4 Bft) 100,00 %
31.10.2015 17:15 12,9 C 63 % 1029,0 hPa 0,0 l/m 16,9 km/h (3 Bft) N-NO 13 0 min 0,000 mm 0,0 UV-I 0 W/m 6,0 C 8,0 C 24,1 km/h (4 Bft) 100,00 %
31.10.2015 17:16 12,9 C 63 % 1029,0 hPa 0,0 l/m 18,3 km/h (3 Bft) O 101 0 min 0,000 mm 0,0 UV-I 0 W/m 6,0 C 7,5 C 24,1 km/h (4 Bft) 100,00 %
31.10.2015 17:17 12,8 C 63 % 1029,0 hPa 0,0 l/m 19,8 km/h (3 Bft) O 93 0 min 0,000 mm 0,0 UV-I 0 W/m 5,9 C 7,0 C 29,0 km/h (5 Bft) 100,00 %
31.10.2015 17:18 12,8 C 63 % 1029,0 hPa 0,0 l/m 14,0 km/h (3 Bft) NO 38 0 min 0,000 mm 0,0 UV-I 0 W/m 5,9 C 8,9 C 20,9 km/h (4 Bft) 100,00 %
31.10.2015 17:19 12,8 C 63 % 1029,0 hPa 0,0 l/m 14,7 km/h (3 Bft) O 86 0 min 0,000 mm 0,0 UV-I 0 W/m 5,9 C 8,6 C 19,3 km/h (3 Bft) 100,00 %
31.10.2015 17:20 12,8 C 64 % 1029,0 hPa 0,0 l/m 11,7 km/h (2 Bft) O 96 0 min 0,000 mm 0,0 UV-I 0 W/m 6,2 C 9,9 C 19,3 km/h (3 Bft) 100,00 %
31.10.2015 17:21 12,8 C 63 % 1029,0 hPa 0,0 l/m 12,6 km/h (3 Bft) O-SO 116 0 min 0,000 mm 0,0 UV-I 0 W/m 5,9 C 9,5 C 19,3 km/h (3 Bft) 100,00 %
31.10.2015 17:22 12,7 C 64 % 1029,1 hPa 0,0 l/m 14,6 km/h (3 Bft) O 98 0 min 0,000 mm 0,0 UV-I 0 W/m 6,1 C 8,6 C 20,9 km/h (4 Bft) 95,12 %
31.10.2015 17:23 12,7 C 64 % 1029,1 hPa 0,0 l/m 13,1 km/h (3 Bft) O 93 0 min 0,000 mm 0,0 UV-I 0 W/m 6,1 C 9,2 C 16,1 km/h (3 Bft) 100,00 %
31.10.2015 17:24 12,7 C 64 % 1029,1 hPa 0,0 l/m 14,8 km/h (3 Bft) O-SO 106 0 min 0,000 mm 0,0 UV-I 0 W/m 6,1 C 8,5 C 22,5 km/h (4 Bft) 100,00 %
31.10.2015 17:25 12,7 C 64 % 1029,1 hPa 0,0 l/m 15,9 km/h (3 Bft) O 87 0 min 0,000 mm 0,0 UV-I 0 W/m 6,1 C 8,1 C 17,7 km/h (3 Bft) 100,00 %
31.10.2015 17:26 12,7 C 64 % 1029,2 hPa 0,0 l/m 17,1 km/h (3 Bft) O-NO 74 0 min 0,000 mm 0,0 UV-I 0 W/m 6,1 C 7,7 C 24,1 km/h (4 Bft) 100,00 %
31.10.2015 17:27 12,7 C 64 % 1029,2 hPa 0,0 l/m 18,8 km/h (3 Bft) O 83 0 min 0,000 mm 0,0 UV-I 0 W/m 6,1 C 7,1 C 27,4 km/h (4 Bft) 100,00 %
31.10.2015 17:28 12,7 C 64 % 1029,2 hPa 0,0 l/m 12,9 km/h (3 Bft) O-NO 69 0 min 0,000 mm 0,0 UV-I 0 W/m 6,1 C 9,2 C 22,5 km/h (4 Bft) 100,00 %
31.10.2015 17:29 12,7 C 64 % 1029,2 hPa 0,0 l/m 18,3 km/h (3 Bft) O 82 0 min 0,000 mm 0,0 UV-I 0 W/m 6,1 C 7,3 C 22,5 km/h (4 Bft) 100,00 %
31.10.2015 17:30 12,7 C 64 % 1029,2 hPa 0,0 l/m 15,5 km/h (3 Bft) NO 38 0 min 0,000 mm 0,0 UV-I 0 W/m 6,1 C 8,2 C 20,9 km/h (4 Bft) 100,00 %
31.10.2015 17:31 12,7 C 64 % 1029,2 hPa 0,0 l/m 12,5 km/h (3 Bft) O 84 0 min 0,000 mm 0,0 UV-I 0 W/m 6,1 C 9,4 C 19,3 km/h (3 Bft) 100,00 %
31.10.2015 17:32 12,6 C 64 % 1029,3 hPa 0,0 l/m 16,5 km/h (3 Bft) O-NO 63 0 min 0,000 mm 0,0 UV-I 0 W/m 6,0 C 7,7 C 20,9 km/h (4 Bft) 100,00 %
31.10.2015 17:33 12,6 C 64 % 1029,3 hPa 0,0 l/m 16,9 km/h (3 Bft) O 101 0 min 0,000 mm 0,0 UV-I 0 W/m 6,0 C 7,6 C 24,1 km/h (4 Bft) 100,00 %
31.10.2015 17:34 12,6 C 64 % 1029,3 hPa 0,0 l/m 16,3 km/h (3 Bft) O 101 0 min 0,000 mm 0,0 UV-I 0 W/m 6,0 C 7,8 C 24,1 km/h (4 Bft) 100,00 %
31.10.2015 17:35 12,6 C 64 % 1029,3 hPa 0,0 l/m 14,9 km/h (3 Bft) NO 44 0 min 0,000 mm 0,0 UV-I 0 W/m 6,0 C 8,3 C 20,9 km/h (4 Bft) 100,00 %
31.10.2015 17:36 12,6 C 64 % 1029,3 hPa 0,0 l/m 17,0 km/h (3 Bft) O-NO 58 0 min 0,000 mm 0,0 UV-I 0 W/m 6,0 C 7,6 C 24,1 km/h (4 Bft) 92,31 %
31.10.2015 17:37 12,6 C 64 % 1029,3 hPa 0,0 l/m 11,4 km/h (2 Bft) O 94 0 min 0,000 mm 0,0 UV-I 0 W/m 6,0 C 9,8 C 16,1 km/h (3 Bft) 100,00 %
31.10.2015 17:38 12,6 C 64 % 1029,3 hPa 0,0 l/m 11,0 km/h (2 Bft) O-SO 111 0 min 0,000 mm 0,0 UV-I 0 W/m 6,0 C 10,0 C 16,1 km/h (3 Bft) 98,93 %
31.10.2015 17:39 12,6 C 65 % 1029,3 hPa 0,0 l/m 8,2 km/h (2 Bft) O-SO 108 0 min 0,000 mm 0,0 UV-I 0 W/m 6,2 C 11,5 C 17,7 km/h (3 Bft) 97,37 %
31.10.2015 17:40 12,5 C 64 % 1029,3 hPa 0,0 l/m 18,6 km/h (3 Bft) NO 49 0 min 0,000 mm 0,0 UV-I 0 W/m 5,9 C 6,9 C 27,4 km/h (4 Bft) 100,00 %
31.10.2015 17:41 12,5 C 64 % 1029,4 hPa 0,0 l/m 18,7 km/h (3 Bft) O 87 0 min 0,000 mm 0,0 UV-I 0 W/m 5,9 C 6,9 C 29,0 km/h (5 Bft) 100,00 %
31.10.2015 17:42 12,5 C 64 % 1029,3 hPa 0,0 l/m 17,0 km/h (3 Bft) O-NO 59 0 min 0,000 mm 0,0 UV-I 0 W/m 5,9 C 7,5 C 24,1 km/h (4 Bft) 100,00 %
31.10.2015 17:43 12,5 C 65 % 1029,4 hPa 0,0 l/m 13,1 km/h (3 Bft) O 85 0 min 0,000 mm 0,0 UV-I 0 W/m 6,1 C 8,9 C 17,7 km/h (3 Bft) 100,00 %
31.10.2015 17:44 12,5 C 65 % 1029,4 hPa 0,0 l/m 14,2 km/h (3 Bft) O-NO 78 0 min 0,000 mm 0,0 UV-I 0 W/m 6,1 C 8,5 C 19,3 km/h (3 Bft) 100,00 %
31.10.2015 17:45 12,5 C 65 % 1029,4 hPa 0,0 l/m 13,9 km/h (3 Bft) O-NO 67 0 min 0,000 mm 0,0 UV-I 0 W/m 6,1 C 8,6 C 19,3 km/h (3 Bft) 100,00 %
31.10.2015 17:46 12,4 C 65 % 1029,5 hPa 0,0 l/m 17,1 km/h (3 Bft) NO 46 0 min 0,000 mm 0,0 UV-I 0 W/m 6,0 C 7,3 C 25,7 km/h (4 Bft) 100,00 %
31.10.2015 17:47 12,4 C 65 % 1029,5 hPa 0,0 l/m 13,2 km/h (3 Bft) NO 44 0 min 0,000 mm 0,0 UV-I 0 W/m 6,0 C 8,8 C 19,3 km/h (3 Bft) 100,00 %
31.10.2015 17:48 12,4 C 65 % 1029,5 hPa 0,0 l/m 14,0 km/h (3 Bft) O-NO 74 0 min 0,000 mm 0,0 UV-I 0 W/m 6,0 C 8,4 C 20,9 km/h (4 Bft) 95,83 %
31.10.2015 17:49 12,4 C 65 % 1029,5 hPa 0,0 l/m 16,2 km/h (3 Bft) O-NO 71 0 min 0,000 mm 0,0 UV-I 0 W/m 6,0 C 7,6 C 20,9 km/h (4 Bft) 100,00 %
31.10.2015 17:50 12,4 C 64 % 1029,5 hPa 0,0 l/m 19,1 km/h (3 Bft) O-SO 109 0 min 0,000 mm 0,0 UV-I 0 W/m 5,8 C 6,7 C 25,7 km/h (4 Bft) 100,00 %
31.10.2015 17:51 12,4 C 65 % 1029,5 hPa 0,0 l/m 16,9 km/h (3 Bft) O 94 0 min 0,000 mm 0,0 UV-I 0 W/m 6,0 C 7,4 C 22,5 km/h (4 Bft) 100,00 %
31.10.2015 17:52 12,4 C 64 % 1029,5 hPa 0,0 l/m 17,6 km/h (3 Bft) O-NO 68 0 min 0,000 mm 0,0 UV-I 0 W/m 5,8 C 7,1 C 29,0 km/h (5 Bft) 95,83 %
31.10.2015 17:53 12,4 C 65 % 1029,6 hPa 0,0 l/m 8,8 km/h (2 Bft) N-NO 31 0 min 0,000 mm 0,0 UV-I 0 W/m 6,0 C 10,9 C 17,7 km/h (3 Bft) 100,00 %
31.10.2015 17:54 12,4 C 65 % 1029,6 hPa 0,0 l/m 15,8 km/h (3 Bft) O 89 0 min 0,000 mm 0,0 UV-I 0 W/m 6,0 C 7,7 C 20,9 km/h (4 Bft) 100,00 %
31.10.2015 17:55 12,4 C 65 % 1029,6 hPa 0,0 l/m 14,0 km/h (3 Bft) O 80 0 min 0,000 mm 0,0 UV-I 0 W/m 6,0 C 8,4 C 19,3 km/h (3 Bft) 92,31 %
31.10.2015 17:56 12,4 C 65 % 1029,6 hPa 0,0 l/m 13,4 km/h (3 Bft) O 80 0 min 0,000 mm 0,0 UV-I 0 W/m 6,0 C 8,7 C 17,7 km/h (3 Bft) 100,00 %
31.10.2015 17:57 12,3 C 65 % 1029,6 hPa 0,0 l/m 12,3 km/h (3 Bft) O 87 0 min 0,000 mm 0,0 UV-I 0 W/m 5,9 C 9,0 C 17,7 km/h (3 Bft) 98,93 %
31.10.2015 17:58 12,3 C 65 % 1029,6 hPa 0,0 l/m 12,5 km/h (3 Bft) O-NO 61 0 min 0,000 mm 0,0 UV-I 0 W/m 5,9 C 8,9 C 22,5 km/h (4 Bft) 97,37 %
31.10.2015 17:59 12,3 C 65 % 1029,7 hPa 0,0 l/m 13,5 km/h (3 Bft) O 93 0 min 0,000 mm 0,0 UV-I 0 W/m 5,9 C 8,5 C 25,7 km/h (4 Bft) 100,00 %
31.10.2015 18:00 12,3 C 65 % 1029,7 hPa 0,0 l/m 12,7 km/h (3 Bft) O-NO 71 0 min 0,000 mm 0,0 UV-I 0 W/m 5,9 C 8,9 C 17,7 km/h (3 Bft) 100,00 %
31.10.2015 18:01 12,3 C 65 % 1029,7 hPa 0,0 l/m 13,4 km/h (3 Bft) O-NO 67 0 min 0,076 mm 0,0 UV-I 0 W/m 5,9 C 8,6 C 20,9 km/h (4 Bft) 100,00 %
31.10.2015 18:02 12,3 C 65 % 1029,7 hPa 0,0 l/m 19,5 km/h (3 Bft) O-SO 115 0 min 0,000 mm 0,0 UV-I 0 W/m 5,9 C 6,4 C 29,0 km/h (5 Bft) 100,00 %
31.10.2015 18:03 12,3 C 65 % 1029,7 hPa 0,0 l/m 16,9 km/h (3 Bft) O 89 0 min 0,000 mm 0,0 UV-I 0 W/m 5,9 C 7,2 C 24,1 km/h (4 Bft) 100,00 %
31.10.2015 18:04 12,3 C 65 % 1029,7 hPa 0,0 l/m 16,3 km/h (3 Bft) O-NO 71 0 min 0,000 mm 0,0 UV-I 0 W/m 5,9 C 7,4 C 20,9 km/h (4 Bft) 100,00 %
31.10.2015 18:05 12,3 C 65 % 1029,7 hPa 0,0 l/m 12,5 km/h (3 Bft) NO 56 0 min 0,000 mm 0,0 UV-I 0 W/m 5,9 C 8,9 C 17,7 km/h (3 Bft) 100,00 %
31.10.2015 18:06 12,3 C 66 % 1029,7 hPa 0,0 l/m 12,3 km/h (3 Bft) O-NO 65 0 min 0,000 mm 0,0 UV-I 0 W/m 6,1 C 9,0 C 17,7 km/h (3 Bft) 100,00 %
31.10.2015 18:07 12,2 C 66 % 1029,7 hPa 0,0 l/m 12,1 km/h (2 Bft) O-SO 106 0 min 0,000 mm 0,0 UV-I 0 W/m 6,0 C 9,0 C 19,3 km/h (3 Bft) 100,00 %
31.10.2015 18:08 12,2 C 66 % 1029,7 hPa 0,0 l/m 18,1 km/h (3 Bft) NO 55 0 min 0,000 mm 0,0 UV-I 0 W/m 6,0 C 6,7 C 22,5 km/h (4 Bft) 96,15 %
31.10.2015 18:09 12,2 C 66 % 1029,7 hPa 0,0 l/m 10,6 km/h (2 Bft) O 100 0 min 0,000 mm 0,0 UV-I 0 W/m 6,0 C 9,7 C 17,7 km/h (3 Bft) 100,00 %
31.10.2015 18:10 12,2 C 66 % 1029,7 hPa 0,0 l/m 11,5 km/h (2 Bft) O-NO 77 0 min 0,000 mm 0,0 UV-I 0 W/m 6,0 C 9,3 C 17,7 km/h (3 Bft) 100,00 %
31.10.2015 18:11 12,1 C 66 % 1029,7 hPa 0,0 l/m 17,8 km/h (3 Bft) O 86 0 min 0,000 mm 0,0 UV-I 0 W/m 5,9 C 6,7 C 27,4 km/h (4 Bft) 100,00 %
31.10.2015 18:12 12,1 C 66 % 1029,7 hPa 0,0 l/m 17,4 km/h (3 Bft) O-NO 74 0 min 0,000 mm 0,0 UV-I 0 W/m 5,9 C 6,8 C 24,1 km/h (4 Bft) 100,00 %
31.10.2015 18:13 12,1 C 66 % 1029,7 hPa 0,0 l/m 14,7 km/h (3 Bft) O-SO 102 0 min 0,000 mm 0,0 UV-I 0 W/m 5,9 C 7,8 C 19,3 km/h (3 Bft) 100,00 %
31.10.2015 18:14 12,1 C 66 % 1029,8 hPa 0,0 l/m 11,6 km/h (2 Bft) O-SO 114 0 min 0,000 mm 0,0 UV-I 0 W/m 5,9 C 9,1 C 24,1 km/h (4 Bft) 100,00 %
31.10.2015 18:15 12,0 C 66 % 1029,7 hPa 0,0 l/m 14,5 km/h (3 Bft) O 81 0 min 0,000 mm 0,0 UV-I 0 W/m 5,8 C 7,8 C 25,7 km/h (4 Bft) 100,00 %
31.10.2015 18:16 12,0 C 66 % 1029,7 hPa 0,0 l/m 14,6 km/h (3 Bft) O 88 0 min 0,000 mm 0,0 UV-I 0 W/m 5,8 C 7,7 C 17,7 km/h (3 Bft) 100,00 %
31.10.2015 18:17 12,0 C 66 % 1029,7 hPa 0,0 l/m 17,0 km/h (3 Bft) O-NO 77 0 min 0,000 mm 0,0 UV-I 0 W/m 5,8 C 6,8 C 22,5 km/h (4 Bft) 100,00 %
31.10.2015 18:18 11,9 C 66 % 1029,7 hPa 0,0 l/m 12,6 km/h (3 Bft) O-SO 122 0 min 0,000 mm 0,0 UV-I 0 W/m 5,8 C 8,4 C 16,1 km/h (3 Bft) 100,00 %
31.10.2015 18:19 11,9 C 67 % 1029,7 hPa 0,0 l/m 16,6 km/h (3 Bft) O-NO 57 0 min 0,000 mm 0,0 UV-I 0 W/m 6,0 C 6,8 C 22,5 km/h (4 Bft) 96,30 %
31.10.2015 18:20 11,9 C 67 % 1029,8 hPa 0,0 l/m 18,5 km/h (3 Bft) O-NO 58 0 min 0,000 mm 0,0 UV-I 0 W/m 6,0 C 6,2 C 25,7 km/h (4 Bft) 91,67 %
31.10.2015 18:21 11,9 C 67 % 1029,8 hPa 0,0 l/m 15,2 km/h (3 Bft) O 84 0 min 0,000 mm 0,0 UV-I 0 W/m 6,0 C 7,4 C 20,9 km/h (4 Bft) 100,00 %
31.10.2015 18:22 11,9 C 66 % 1029,8 hPa 0,0 l/m 19,0 km/h (3 Bft) O 82 0 min 0,000 mm 0,0 UV-I 0 W/m 5,8 C 6,0 C 27,4 km/h (4 Bft) 100,00 %
31.10.2015 18:23 11,9 C 67 % 1029,8 hPa 0,0 l/m 17,8 km/h (3 Bft) O-SO 111 0 min 0,000 mm 0,0 UV-I 0 W/m 6,0 C 6,4 C 25,7 km/h (4 Bft) 100,00 %
31.10.2015 18:24 11,9 C 67 % 1029,8 hPa 0,0 l/m 12,3 km/h (3 Bft) O-NO 77 0 min 0,000 mm 0,0 UV-I 0 W/m 6,0 C 8,6 C 17,7 km/h (3 Bft) 100,00 %
31.10.2015 18:25 11,9 C 67 % 1029,8 hPa 0,0 l/m 17,0 km/h (3 Bft) SO 135 0 min 0,000 mm 0,0 UV-I 0 W/m 6,0 C 6,7 C 22,5 km/h (4 Bft) 100,00 %
31.10.2015 18:26 11,9 C 67 % 1029,8 hPa 0,0 l/m 20,5 km/h (4 Bft) O-NO 62 0 min 0,000 mm 0,0 UV-I 0 W/m 6,0 C 5,6 C 29,0 km/h (5 Bft) 96,30 %
31.10.2015 18:27 11,9 C 67 % 1029,8 hPa 0,0 l/m 15,8 km/h (3 Bft) O-NO 60 0 min 0,000 mm 0,0 UV-I 0 W/m 6,0 C 7,1 C 20,9 km/h (4 Bft) 92,86 %
31.10.2015 18:28 11,9 C 67 % 1029,8 hPa 0,0 l/m 18,0 km/h (3 Bft) O-SO 111 0 min 0,000 mm 0,0 UV-I 0 W/m 6,0 C 6,4 C 25,7 km/h (4 Bft) 100,00 %
31.10.2015 18:29 11,8 C 67 % 1029,9 hPa 0,0 l/m 15,6 km/h (3 Bft) O 84 0 min 0,000 mm 0,0 UV-I 0 W/m 5,9 C 7,1 C 19,3 km/h (3 Bft) 100,00 %
31.10.2015 18:30 11,8 C 67 % 1029,9 hPa 0,0 l/m 12,1 km/h (2 Bft) O 80 0 min 0,000 mm 0,0 UV-I 0 W/m 5,9 C 8,5 C 14,5 km/h (3 Bft) 100,00 %
31.10.2015 18:31 11,8 C 67 % 1029,9 hPa 0,0 l/m 12,2 km/h (2 Bft) O-NO 67 0 min 0,000 mm 0,0 UV-I 0 W/m 5,9 C 8,5 C 20,9 km/h (4 Bft) 100,00 %
31.10.2015 18:32 11,8 C 68 % 1029,8 hPa 0,0 l/m 12,3 km/h (3 Bft) O 82 0 min 0,000 mm 0,0 UV-I 0 W/m 6,1 C 8,4 C 17,7 km/h (3 Bft) 100,00 %
31.10.2015 18:33 11,8 C 67 % 1029,9 hPa 0,0 l/m 14,3 km/h (3 Bft) NO 52 0 min 0,000 mm 0,0 UV-I 0 W/m 5,9 C 7,6 C 19,3 km/h (3 Bft) 100,00 %
31.10.2015 18:34 11,7 C 67 % 1029,8 hPa 0,0 l/m 18,0 km/h (3 Bft) O 89 0 min 0,000 mm 0,0 UV-I 0 W/m 5,8 C 6,1 C 22,5 km/h (4 Bft) 100,00 %
31.10.2015 18:35 11,7 C 67 % 1029,9 hPa 0,0 l/m 16,3 km/h (3 Bft) NO 40 0 min 0,000 mm 0,0 UV-I 0 W/m 5,8 C 6,7 C 22,5 km/h (4 Bft) 100,00 %
31.10.2015 18:36 11,7 C 67 % 1029,9 hPa 0,0 l/m 16,5 km/h (3 Bft) O 91 0 min 0,000 mm 0,0 UV-I 0 W/m 5,8 C 6,6 C 22,5 km/h (4 Bft) 100,00 %
31.10.2015 18:37 11,7 C 67 % 1030,0 hPa 0,0 l/m 17,5 km/h (3 Bft) O 92 0 min 0,000 mm 0,0 UV-I 0 W/m 5,8 C 6,3 C 25,7 km/h (4 Bft) 100,00 %
31.10.2015 18:38 11,7 C 67 % 1029,9 hPa 0,0 l/m 15,4 km/h (3 Bft) O-NO 69 0 min 0,000 mm 0,0 UV-I 0 W/m 5,8 C 7,0 C 22,5 km/h (4 Bft) 100,00 %
31.10.2015 18:39 11,7 C 67 % 1029,9 hPa 0,0 l/m 14,6 km/h (3 Bft) O-NO 64 0 min 0,000 mm 0,0 UV-I 0 W/m 5,8 C 7,4 C 24,1 km/h (4 Bft) 100,00 %
31.10.2015 18:40 11,7 C 67 % 1029,8 hPa 0,0 l/m 16,2 km/h (3 Bft) O 80 0 min 0,000 mm 0,0 UV-I 0 W/m 5,8 C 6,7 C 19,3 km/h (3 Bft) 100,00 %
31.10.2015 18:41 11,7 C 67 % 1029,9 hPa 0,0 l/m 17,2 km/h (3 Bft) O 94 0 min 0,000 mm 0,0 UV-I 0 W/m 5,8 C 6,4 C 25,7 km/h (4 Bft) 100,00 %
31.10.2015 18:42 11,7 C 68 % 1029,8 hPa 0,0 l/m 12,0 km/h (2 Bft) O-SO 117 0 min 0,000 mm 0,0 UV-I 0 W/m 6,0 C 8,5 C 16,1 km/h (3 Bft) 100,00 %
31.10.2015 18:43 11,7 C 68 % 1029,9 hPa 0,0 l/m 14,3 km/h (3 Bft) NO 47 0 min 0,000 mm 0,0 UV-I 0 W/m 6,0 C 7,5 C 20,9 km/h (4 Bft) 100,00 %
31.10.2015 18:44 11,7 C 68 % 1029,9 hPa 0,0 l/m 14,7 km/h (3 Bft) O 83 0 min 0,000 mm 0,0 UV-I 0 W/m 6,0 C 7,3 C 27,4 km/h (4 Bft) 100,00 %
31.10.2015 18:45 11,6 C 68 % 1029,9 hPa 0,0 l/m 16,1 km/h (3 Bft) O 94 0 min 0,000 mm 0,0 UV-I 0 W/m 5,9 C 6,7 C 29,0 km/h (5 Bft) 100,00 %
31.10.2015 18:46 11,6 C 68 % 1029,9 hPa 0,0 l/m 14,0 km/h (3 Bft) O-NO 71 0 min 0,000 mm 0,0 UV-I 0 W/m 5,9 C 7,5 C 22,5 km/h (4 Bft) 100,00 %
31.10.2015 18:47 11,6 C 68 % 1029,9 hPa 0,0 l/m 10,0 km/h (2 Bft) O 101 0 min 0,000 mm 0,0 UV-I 0 W/m 5,9 C 9,4 C 17,7 km/h (3 Bft) 96,30 %
31.10.2015 18:48 11,6 C 68 % 1030,0 hPa 0,0 l/m 13,5 km/h (3 Bft) O-NO 63 0 min 0,000 mm 0,0 UV-I 0 W/m 5,9 C 7,7 C 20,9 km/h (4 Bft) 92,31 %
31.10.2015 18:49 11,5 C 68 % 1030,0 hPa 0,0 l/m 15,3 km/h (3 Bft) O-SO 112 0 min 0,000 mm 0,0 UV-I 0 W/m 5,8 C 6,8 C 22,5 km/h (4 Bft) 100,00 %
31.10.2015 18:50 11,5 C 68 % 1030,0 hPa 0,0 l/m 15,3 km/h (3 Bft) O-SO 111 0 min 0,000 mm 0,0 UV-I 0 W/m 5,8 C 6,8 C 19,3 km/h (3 Bft) 100,00 %
31.10.2015 18:51 11,5 C 68 % 1030,0 hPa 0,0 l/m 17,7 km/h (3 Bft) O-SO 116 0 min 0,000 mm 0,0 UV-I 0 W/m 5,8 C 6,0 C 24,1 km/h (4 Bft) 100,00 %
31.10.2015 18:52 11,5 C 68 % 1030,0 hPa 0,0 l/m 17,1 km/h (3 Bft) O 80 0 min 0,000 mm 0,0 UV-I 0 W/m 5,8 C 6,2 C 20,9 km/h (4 Bft) 100,00 %
31.10.2015 18:53 11,5 C 68 % 1030,0 hPa 0,0 l/m 19,5 km/h (3 Bft) O-NO 75 0 min 0,000 mm 0,0 UV-I 0 W/m 5,8 C 5,4 C 24,1 km/h (4 Bft) 100,00 %
31.10.2015 18:54 11,5 C 68 % 1029,9 hPa 0,0 l/m 19,0 km/h (3 Bft) O 99 0 min 0,000 mm 0,0 UV-I 0 W/m 5,8 C 5,5 C 25,7 km/h (4 Bft) 100,00 %
31.10.2015 18:55 11,5 C 68 % 1030,0 hPa 0,0 l/m 14,7 km/h (3 Bft) O-NO 68 0 min 0,000 mm 0,0 UV-I 0 W/m 5,8 C 7,1 C 20,9 km/h (4 Bft) 100,00 %
31.10.2015 18:56 11,5 C 68 % 1029,9 hPa 0,0 l/m 16,8 km/h (3 Bft) O-NO 76 0 min 0,000 mm 0,0 UV-I 0 W/m 5,8 C 6,3 C 20,9 km/h (4 Bft) 100,00 %
31.10.2015 18:57 11,5 C 68 % 1030,0 hPa 0,0 l/m 16,3 km/h (3 Bft) O 79 0 min 0,000 mm 0,0 UV-I 0 W/m 5,8 C 6,5 C 20,9 km/h (4 Bft) 97,37 %
31.10.2015 18:58 11,5 C 68 % 1030,0 hPa 0,0 l/m 16,4 km/h (3 Bft) O-NO 65 0 min 0,000 mm 0,0 UV-I 0 W/m 5,8 C 6,4 C 20,9 km/h (4 Bft) 100,00 %
31.10.2015 18:59 11,5 C 69 % 1030,0 hPa 0,0 l/m 18,4 km/h (3 Bft) N-NO 30 0 min 0,000 mm 0,0 UV-I 0 W/m 6,0 C 5,7 C 24,1 km/h (4 Bft) 100,00 %
31.10.2015 19:00 11,4 C 68 % 1030,0 hPa 0,0 l/m 15,6 km/h (3 Bft) O-NO 65 0 min 0,000 mm 0,0 UV-I 0 W/m 5,7 C 6,6 C 24,1 km/h (4 Bft) 100,00 %
31.10.2015 19:01 11,4 C 68 % 1030,0 hPa 0,0 l/m 12,4 km/h (3 Bft) O-NO 64 0 min 0,051 mm 0,0 UV-I 0 W/m 5,7 C 7,9 C 19,3 km/h (3 Bft) 96,00 %
31.10.2015 19:02 11,4 C 68 % 1030,0 hPa 0,0 l/m 18,8 km/h (3 Bft) O 83 0 min 0,000 mm 0,0 UV-I 0 W/m 5,7 C 5,5 C 24,1 km/h (4 Bft) 95,83 %
31.10.2015 19:03 11,4 C 69 % 1030,0 hPa 0,0 l/m 14,9 km/h (3 Bft) O 98 0 min 0,000 mm 0,0 UV-I 0 W/m 5,9 C 6,9 C 19,3 km/h (3 Bft) 100,00 %
31.10.2015 19:04 11,3 C 69 % 1030,0 hPa 0,0 l/m 12,3 km/h (3 Bft) O 89 0 min 0,000 mm 0,0 UV-I 0 W/m 5,8 C 7,9 C 24,1 km/h (4 Bft) 100,00 %
31.10.2015 19:05 11,3 C 69 % 1030,0 hPa 0,0 l/m 14,6 km/h (3 Bft) O 86 0 min 0,000 mm 0,0 UV-I 0 W/m 5,8 C 6,9 C 22,5 km/h (4 Bft) 100,00 %
31.10.2015 19:06 11,3 C 69 % 1030,0 hPa 0,0 l/m 18,7 km/h (3 Bft) O-NO 67 0 min 0,000 mm 0,0 UV-I 0 W/m 5,8 C 5,4 C 20,9 km/h (4 Bft) 100,00 %
31.10.2015 19:07 11,3 C 69 % 1030,0 hPa 0,0 l/m 18,9 km/h (3 Bft) O 92 0 min 0,000 mm 0,0 UV-I 0 W/m 5,8 C 5,3 C 25,7 km/h (4 Bft) 100,00 %
31.10.2015 19:08 11,3 C 69 % 1030,0 hPa 0,0 l/m 17,2 km/h (3 Bft) O 94 0 min 0,000 mm 0,0 UV-I 0 W/m 5,8 C 5,9 C 20,9 km/h (4 Bft) 95,83 %
31.10.2015 19:09 11,2 C 69 % 1030,0 hPa 0,0 l/m 16,8 km/h (3 Bft) O-NO 62 0 min 0,000 mm 0,0 UV-I 0 W/m 5,7 C 5,9 C 22,5 km/h (4 Bft) 100,00 %
31.10.2015 19:10 11,2 C 69 % 1030,0 hPa 0,0 l/m 16,2 km/h (3 Bft) S 175 0 min 0,000 mm 0,0 UV-I 0 W/m 5,7 C 6,1 C 22,5 km/h (4 Bft) 100,00 %
31.10.2015 19:11 11,2 C 69 % 1030,0 hPa 0,0 l/m 13,0 km/h (3 Bft) O-NO 66 0 min 0,000 mm 0,0 UV-I 0 W/m 5,7 C 7,4 C 20,9 km/h (4 Bft) 96,15 %
31.10.2015 19:12 11,2 C 70 % 1030,0 hPa 0,0 l/m 15,2 km/h (3 Bft) O 98 0 min 0,000 mm 0,0 UV-I 0 W/m 5,9 C 6,5 C 22,5 km/h (4 Bft) 100,00 %
31.10.2015 19:13 11,2 C 70 % 1030,1 hPa 0,0 l/m 11,1 km/h (2 Bft) O-NO 63 0 min 0,000 mm 0,0 UV-I 0 W/m 5,9 C 8,3 C 17,7 km/h (3 Bft) 100,00 %
31.10.2015 19:14 11,1 C 70 % 1030,1 hPa 0,0 l/m 14,1 km/h (3 Bft) O-NO 62 0 min 0,000 mm 0,0 UV-I 0 W/m 5,8 C 6,8 C 22,5 km/h (4 Bft) 95,83 %
31.10.2015 19:15 11,1 C 70 % 1030,1 hPa 0,0 l/m 17,0 km/h (3 Bft) SO 129 0 min 0,000 mm 0,0 UV-I 0 W/m 5,8 C 5,7 C 25,7 km/h (4 Bft) 96,15 %
31.10.2015 19:16 11,1 C 70 % 1030,1 hPa 0,0 l/m 19,0 km/h (3 Bft) O-SO 122 0 min 0,000 mm 0,0 UV-I 0 W/m 5,8 C 5,0 C 25,7 km/h (4 Bft) 100,00 %
31.10.2015 19:17 11,1 C 70 % 1030,1 hPa 0,0 l/m 14,9 km/h (3 Bft) O 79 0 min 0,000 mm 0,0 UV-I 0 W/m 5,8 C 6,5 C 19,3 km/h (3 Bft) 100,00 %
31.10.2015 19:18 11,1 C 70 % 1030,1 hPa 0,0 l/m 15,5 km/h (3 Bft) O 98 0 min 0,000 mm 0,0 UV-I 0 W/m 5,8 C 6,3 C 22,5 km/h (4 Bft) 100,00 %
31.10.2015 19:19 11,1 C 70 % 1030,1 hPa 0,0 l/m 13,4 km/h (3 Bft) O-NO 74 0 min 0,000 mm 0,0 UV-I 0 W/m 5,8 C 7,1 C 20,9 km/h (4 Bft) 100,00 %
31.10.2015 19:20 11,1 C 70 % 1030,1 hPa 0,0 l/m 16,0 km/h (3 Bft) O-NO 78 0 min 0,000 mm 0,0 UV-I 0 W/m 5,8 C 6,1 C 25,7 km/h (4 Bft) 96,15 %
31.10.2015 19:21 11,0 C 71 % 1030,1 hPa 0,0 l/m 16,6 km/h (3 Bft) SO 135 0 min 0,000 mm 0,0 UV-I 0 W/m 5,9 C 5,7 C 24,1 km/h (4 Bft) 100,00 %
31.10.2015 19:22 11,0 C 70 % 1030,1 hPa 0,0 l/m 16,4 km/h (3 Bft) O 82 0 min 0,000 mm 0,0 UV-I 0 W/m 5,7 C 5,8 C 20,9 km/h (4 Bft) 85,71 %
31.10.2015 19:23 11,0 C 70 % 1030,0 hPa 0,0 l/m 15,1 km/h (3 Bft) O 89 0 min 0,000 mm 0,0 UV-I 0 W/m 5,7 C 6,3 C 19,3 km/h (3 Bft) 95,83 %
31.10.2015 19:24 10,9 C 71 % 1030,0 hPa 0,0 l/m 13,8 km/h (3 Bft) O 99 0 min 0,000 mm 0,0 UV-I 0 W/m 5,9 C 6,7 C 17,7 km/h (3 Bft) 96,15 %
31.10.2015 19:25 10,9 C 71 % 1030,0 hPa 0,0 l/m 15,1 km/h (3 Bft) O-SO 119 0 min 0,000 mm 0,0 UV-I 0 W/m 5,9 C 6,2 C 22,5 km/h (4 Bft) 100,00 %
31.10.2015 19:26 10,9 C 71 % 1030,1 hPa 0,0 l/m 15,3 km/h (3 Bft) O-SO 118 0 min 0,000 mm 0,0 UV-I 0 W/m 5,9 C 6,1 C 19,3 km/h (3 Bft) 100,00 %
31.10.2015 19:27 10,9 C 71 % 1030,0 hPa 0,0 l/m 16,7 km/h (3 Bft) O 95 0 min 0,000 mm 0,0 UV-I 0 W/m 5,9 C 5,6 C 24,1 km/h (4 Bft) 91,67 %
31.10.2015 19:28 10,9 C 71 % 1030,0 hPa 0,0 l/m 13,4 km/h (3 Bft) O-SO 103 0 min 0,000 mm 0,0 UV-I 0 W/m 5,9 C 6,9 C 19,3 km/h (3 Bft) 100,00 %
31.10.2015 19:29 10,9 C 71 % 1030,1 hPa 0,0 l/m 16,9 km/h (3 Bft) O 96 0 min 0,000 mm 0,0 UV-I 0 W/m 5,9 C 5,5 C 22,5 km/h (4 Bft) 95,83 %
31.10.2015 19:30 10,9 C 71 % 1030,1 hPa 0,0 l/m 16,8 km/h (3 Bft) O-NO 74 0 min 0,000 mm 0,0 UV-I 0 W/m 5,9 C 5,5 C 20,9 km/h (4 Bft) 98,92 %
31.10.2015 19:31 10,9 C 70 % 1030,1 hPa 0,0 l/m 20,5 km/h (4 Bft) O 100 0 min 0,000 mm 0,0 UV-I 0 W/m 5,6 C 4,3 C 32,2 km/h (5 Bft) 100,00 %
31.10.2015 19:32 10,8 C 71 % 1030,0 hPa 0,0 l/m 17,5 km/h (3 Bft) O-SO 113 0 min 0,000 mm 0,0 UV-I 0 W/m 5,8 C 5,2 C 22,5 km/h (4 Bft) 100,00 %
31.10.2015 19:33 10,9 C 71 % 1030,0 hPa 0,0 l/m 18,3 km/h (3 Bft) O-NO 70 0 min 0,000 mm 0,0 UV-I 0 W/m 5,9 C 5,0 C 27,4 km/h (4 Bft) 100,00 %
31.10.2015 19:34 10,9 C 70 % 1030,0 hPa 0,0 l/m 17,7 km/h (3 Bft) O 82 0 min 0,000 mm 0,0 UV-I 0 W/m 5,6 C 5,2 C 27,4 km/h (4 Bft) 100,00 %
31.10.2015 19:35 10,9 C 70 % 1030,0 hPa 0,0 l/m 15,7 km/h (3 Bft) O 92 0 min 0,000 mm 0,0 UV-I 0 W/m 5,6 C 5,9 C 19,3 km/h (3 Bft) 100,00 %
31.10.2015 19:36 10,9 C 71 % 1030,1 hPa 0,0 l/m 20,8 km/h (4 Bft) O 95 0 min 0,000 mm 0,0 UV-I 0 W/m 5,9 C 4,2 C 30,6 km/h (5 Bft) 100,00 %
31.10.2015 19:37 10,9 C 70 % 1030,1 hPa 0,0 l/m 17,4 km/h (3 Bft) N-NO 30 0 min 0,000 mm 0,0 UV-I 0 W/m 5,6 C 5,3 C 27,4 km/h (4 Bft) 91,67 %
31.10.2015 19:38 10,9 C 71 % 1030,1 hPa 0,0 l/m 19,6 km/h (3 Bft) O 80 0 min 0,000 mm 0,0 UV-I 0 W/m 5,9 C 4,6 C 25,7 km/h (4 Bft) 92,59 %
31.10.2015 19:39 10,9 C 71 % 1030,0 hPa 0,0 l/m 13,7 km/h (3 Bft) O 83 0 min 0,000 mm 0,0 UV-I 0 W/m 5,9 C 6,8 C 17,7 km/h (3 Bft) 100,00 %
31.10.2015 19:40 10,9 C 71 % 1030,1 hPa 0,0 l/m 13,7 km/h (3 Bft) O 90 0 min 0,000 mm 0,0 UV-I 0 W/m 5,9 C 6,8 C 17,7 km/h (3 Bft) 100,00 %
31.10.2015 19:41 10,8 C 71 % 1030,1 hPa 0,0 l/m 16,7 km/h (3 Bft) O 94 0 min 0,000 mm 0,0 UV-I 0 W/m 5,8 C 5,4 C 20,9 km/h (4 Bft) 100,00 %
31.10.2015 19:42 10,8 C 71 % 1030,1 hPa 0,0 l/m 15,8 km/h (3 Bft) O 82 0 min 0,000 mm 0,0 UV-I 0 W/m 5,8 C 5,8 C 22,5 km/h (4 Bft) 100,00 %
31.10.2015 19:43 10,8 C 71 % 1030,1 hPa 0,0 l/m 14,8 km/h (3 Bft) O 88 0 min 0,000 mm 0,0 UV-I 0 W/m 5,8 C 6,2 C 20,9 km/h (4 Bft) 100,00 %
31.10.2015 19:44 10,8 C 71 % 1030,1 hPa 0,0 l/m 13,6 km/h (3 Bft) O-SO 106 0 min 0,000 mm 0,0 UV-I 0 W/m 5,8 C 6,7 C 17,7 km/h (3 Bft) 95,83 %
31.10.2015 19:45 10,7 C 71 % 1030,1 hPa 0,0 l/m 14,0 km/h (3 Bft) O 96 0 min 0,000 mm 0,0 UV-I 0 W/m 5,7 C 6,4 C 22,5 km/h (4 Bft) 100,00 %
31.10.2015 19:46 10,7 C 71 % 1030,1 hPa 0,0 l/m 15,8 km/h (3 Bft) O 94 0 min 0,000 mm 0,0 UV-I 0 W/m 5,7 C 5,7 C 20,9 km/h (4 Bft) 100,00 %
31.10.2015 19:47 10,7 C 71 % 1030,1 hPa 0,0 l/m 17,4 km/h (3 Bft) O-NO 58 0 min 0,000 mm 0,0 UV-I 0 W/m 5,7 C 5,1 C 22,5 km/h (4 Bft) 100,00 %
31.10.2015 19:48 10,7 C 72 % 1030,1 hPa 0,0 l/m 17,2 km/h (3 Bft) O-NO 72 0 min 0,000 mm 0,0 UV-I 0 W/m 5,9 C 5,1 C 24,1 km/h (4 Bft) 100,00 %
31.10.2015 19:49 10,7 C 72 % 1030,1 hPa 0,0 l/m 16,2 km/h (3 Bft) O-NO 62 0 min 0,000 mm 0,0 UV-I 0 W/m 5,9 C 5,5 C 20,9 km/h (4 Bft) 100,00 %
31.10.2015 19:50 10,7 C 72 % 1030,1 hPa 0,0 l/m 17,5 km/h (3 Bft) O 84 0 min 0,000 mm 0,0 UV-I 0 W/m 5,9 C 5,0 C 24,1 km/h (4 Bft) 100,00 %
31.10.2015 19:51 10,7 C 71 % 1030,1 hPa 0,0 l/m 15,7 km/h (3 Bft) O 97 0 min 0,000 mm 0,0 UV-I 0 W/m 5,7 C 5,7 C 22,5 km/h (4 Bft) 100,00 %
31.10.2015 19:52 10,7 C 72 % 1030,2 hPa 0,0 l/m 14,5 km/h (3 Bft) O 79 0 min 0,000 mm 0,0 UV-I 0 W/m 5,9 C 6,2 C 22,5 km/h (4 Bft) 95,83 %
31.10.2015 19:53 10,6 C 72 % 1030,1 hPa 0,0 l/m 17,8 km/h (3 Bft) O 88 0 min 0,000 mm 0,0 UV-I 0 W/m 5,8 C 4,8 C 24,1 km/h (4 Bft) 96,15 %
31.10.2015 19:54 10,6 C 72 % 1030,2 hPa 0,0 l/m 15,4 km/h (3 Bft) O 100 0 min 0,000 mm 0,0 UV-I 0 W/m 5,8 C 5,7 C 22,5 km/h (4 Bft) 100,00 %
31.10.2015 19:55 10,6 C 72 % 1030,2 hPa 0,0 l/m 14,2 km/h (3 Bft) O 90 0 min 0,000 mm 0,0 UV-I 0 W/m 5,8 C 6,2 C 19,3 km/h (3 Bft) 100,00 %
31.10.2015 19:56 10,6 C 72 % 1030,2 hPa 0,0 l/m 12,4 km/h (3 Bft) O-SO 106 0 min 0,000 mm 0,0 UV-I 0 W/m 5,8 C 7,0 C 19,3 km/h (3 Bft) 91,67 %
31.10.2015 19:57 10,6 C 72 % 1030,2 hPa 0,0 l/m 17,5 km/h (3 Bft) O 82 0 min 0,000 mm 0,0 UV-I 0 W/m 5,8 C 4,9 C 25,7 km/h (4 Bft) 100,00 %
31.10.2015 19:58 10,6 C 72 % 1030,2 hPa 0,0 l/m 10,7 km/h (2 Bft) O-SO 109 0 min 0,000 mm 0,0 UV-I 0 W/m 5,8 C 7,9 C 14,5 km/h (3 Bft) 92,31 %
31.10.2015 19:59 10,5 C 72 % 1030,2 hPa 0,0 l/m 12,4 km/h (3 Bft) O 89 0 min 0,000 mm 0,0 UV-I 0 W/m 5,7 C 6,9 C 20,9 km/h (4 Bft) 100,00 %
31.10.2015 20:00 10,5 C 72 % 1030,2 hPa 0,0 l/m 14,4 km/h (3 Bft) O 94 0 min 0,000 mm 0,0 UV-I 0 W/m 5,7 C 6,0 C 17,7 km/h (3 Bft) 100,00 %
31.10.2015 20:01 10,4 C 72 % 1030,2 hPa 0,0 l/m 14,8 km/h (3 Bft) O 88 0 min 0,051 mm 0,0 UV-I 0 W/m 5,6 C 5,7 C 24,1 km/h (4 Bft) 100,00 %
31.10.2015 20:02 10,4 C 73 % 1030,2 hPa 0,0 l/m 13,3 km/h (3 Bft) O 83 0 min 0,000 mm 0,0 UV-I 0 W/m 5,8 C 6,4 C 22,5 km/h (4 Bft) 95,65 %
31.10.2015 20:03 10,4 C 72 % 1030,2 hPa 0,0 l/m 18,0 km/h (3 Bft) O 91 0 min 0,000 mm 0,0 UV-I 0 W/m 5,6 C 4,5 C 24,1 km/h (4 Bft) 100,00 %
31.10.2015 20:04 10,4 C 72 % 1030,2 hPa 0,0 l/m 14,4 km/h (3 Bft) O-SO 104 0 min 0,000 mm 0,0 UV-I 0 W/m 5,6 C 5,9 C 20,9 km/h (4 Bft) 92,86 %
31.10.2015 20:05 10,4 C 73 % 1030,2 hPa 0,0 l/m 14,9 km/h (3 Bft) O-NO 73 0 min 0,000 mm 0,0 UV-I 0 W/m 5,8 C 5,7 C 20,9 km/h (4 Bft) 100,00 %
31.10.2015 20:06 10,4 C 73 % 1030,2 hPa 0,0 l/m 18,0 km/h (3 Bft) NO 42 0 min 0,000 mm 0,0 UV-I 0 W/m 5,8 C 4,5 C 29,0 km/h (5 Bft) 100,00 %
31.10.2015 20:07 10,4 C 73 % 1030,2 hPa 0,0 l/m 17,9 km/h (3 Bft) O-NO 60 0 min 0,000 mm 0,0 UV-I 0 W/m 5,8 C 4,5 C 20,9 km/h (4 Bft) 95,83 %
31.10.2015 20:08 10,3 C 73 % 1030,2 hPa 0,0 l/m 15,4 km/h (3 Bft) O-NO 73 0 min 0,000 mm 0,0 UV-I 0 W/m 5,7 C 5,3 C 25,7 km/h (4 Bft) 100,00 %
31.10.2015 20:09 10,3 C 73 % 1030,1 hPa 0,0 l/m 19,6 km/h (3 Bft) O 93 0 min 0,000 mm 0,0 UV-I 0 W/m 5,7 C 3,8 C 25,7 km/h (4 Bft) 100,00 %
31.10.2015 20:10 10,3 C 73 % 1030,2 hPa 0,0 l/m 13,1 km/h (3 Bft) NO 45 0 min 0,000 mm 0,0 UV-I 0 W/m 5,7 C 6,3 C 19,3 km/h (3 Bft) 100,00 %
31.10.2015 20:11 10,3 C 73 % 1030,2 hPa 0,0 l/m 12,5 km/h (3 Bft) O-NO 59 0 min 0,000 mm 0,0 UV-I 0 W/m 5,7 C 6,6 C 17,7 km/h (3 Bft) 100,00 %
31.10.2015 20:12 10,3 C 73 % 1030,2 hPa 0,0 l/m 18,4 km/h (3 Bft) O-NO 57 0 min 0,000 mm 0,0 UV-I 0 W/m 5,7 C 4,2 C 22,5 km/h (4 Bft) 100,00 %
31.10.2015 20:13 10,3 C 73 % 1030,2 hPa 0,0 l/m 16,4 km/h (3 Bft) O-NO 57 0 min 0,000 mm 0,0 UV-I 0 W/m 5,7 C 4,9 C 22,5 km/h (4 Bft) 100,00 %
31.10.2015 20:14 10,2 C 73 % 1030,3 hPa 0,0 l/m 14,1 km/h (3 Bft) O 93 0 min 0,000 mm 0,0 UV-I 0 W/m 5,6 C 5,8 C 19,3 km/h (3 Bft) 100,00 %
31.10.2015 20:15 10,2 C 74 % 1030,3 hPa 0,0 l/m 13,4 km/h (3 Bft) O 95 0 min 0,000 mm 0,0 UV-I 0 W/m 5,8 C 6,1 C 20,9 km/h (4 Bft) 100,00 %
31.10.2015 20:16 10,2 C 73 % 1030,3 hPa 0,0 l/m 14,6 km/h (3 Bft) O 98 0 min 0,000 mm 0,0 UV-I 0 W/m 5,6 C 5,5 C 17,7 km/h (3 Bft) 100,00 %
31.10.2015 20:17 10,2 C 73 % 1030,3 hPa 0,0 l/m 17,8 km/h (3 Bft) O-NO 74 0 min 0,000 mm 0,0 UV-I 0 W/m 5,6 C 4,3 C 27,4 km/h (4 Bft) 100,00 %
31.10.2015 20:18 10,2 C 73 % 1030,2 hPa 0,0 l/m 15,9 km/h (3 Bft) O-SO 116 0 min 0,000 mm 0,0 UV-I 0 W/m 5,6 C 5,0 C 25,7 km/h (4 Bft) 95,83 %
31.10.2015 20:19 10,2 C 74 % 1030,3 hPa 0,0 l/m 14,6 km/h (3 Bft) O 98 0 min 0,000 mm 0,0 UV-I 0 W/m 5,8 C 5,5 C 25,7 km/h (4 Bft) 100,00 %
31.10.2015 20:20 10,2 C 74 % 1030,3 hPa 0,0 l/m 16,8 km/h (3 Bft) O-NO 76 0 min 0,000 mm 0,0 UV-I 0 W/m 5,8 C 4,7 C 25,7 km/h (4 Bft) 100,00 %
31.10.2015 20:21 10,2 C 74 % 1030,3 hPa 0,0 l/m 14,0 km/h (3 Bft) O 98 0 min 0,000 mm 0,0 UV-I 0 W/m 5,8 C 5,8 C 17,7 km/h (3 Bft) 100,00 %
31.10.2015 20:22 10,2 C 74 % 1030,3 hPa 0,0 l/m 17,7 km/h (3 Bft) O-NO 71 0 min 0,000 mm 0,0 UV-I 0 W/m 5,8 C 4,3 C 27,4 km/h (4 Bft) 95,83 %
31.10.2015 20:23 10,2 C 74 % 1030,2 hPa 0,0 l/m 16,7 km/h (3 Bft) O-NO 77 0 min 0,000 mm 0,0 UV-I 0 W/m 5,8 C 4,7 C 24,1 km/h (4 Bft) 96,15 %
31.10.2015 20:24 10,2 C 74 % 1030,3 hPa 0,0 l/m 14,8 km/h (3 Bft) O 83 0 min 0,000 mm 0,0 UV-I 0 W/m 5,8 C 5,5 C 22,5 km/h (4 Bft) 100,00 %
31.10.2015 20:25 10,1 C 74 % 1030,3 hPa 0,0 l/m 18,9 km/h (3 Bft) O 98 0 min 0,000 mm 0,0 UV-I 0 W/m 5,7 C 3,8 C 22,5 km/h (4 Bft) 100,00 %
31.10.2015 20:26 10,1 C 74 % 1030,3 hPa 0,0 l/m 16,2 km/h (3 Bft) O 98 0 min 0,000 mm 0,0 UV-I 0 W/m 5,7 C 4,8 C 22,5 km/h (4 Bft) 100,00 %
31.10.2015 20:27 10,1 C 74 % 1030,3 hPa 0,0 l/m 17,8 km/h (3 Bft) O 82 0 min 0,000 mm 0,0 UV-I 0 W/m 5,7 C 4,2 C 22,5 km/h (4 Bft) 100,00 %
31.10.2015 20:28 10,1 C 74 % 1030,3 hPa 0,0 l/m 18,8 km/h (3 Bft) O 88 0 min 0,000 mm 0,0 UV-I 0 W/m 5,7 C 3,8 C 24,1 km/h (4 Bft) 95,83 %
31.10.2015 20:29 10,1 C 74 % 1030,3 hPa 0,0 l/m 16,5 km/h (3 Bft) O-NO 69 0 min 0,000 mm 0,0 UV-I 0 W/m 5,7 C 4,7 C 22,5 km/h (4 Bft) 100,00 %
31.10.2015 20:30 10,1 C 74 % 1030,3 hPa 0,0 l/m 19,1 km/h (3 Bft) O-SO 107 0 min 0,000 mm 0,0 UV-I 0 W/m 5,7 C 3,7 C 27,4 km/h (4 Bft) 95,83 %
31.10.2015 20:31 10,1 C 74 % 1030,3 hPa 0,0 l/m 13,3 km/h (3 Bft) O 96 0 min 0,000 mm 0,0 UV-I 0 W/m 5,7 C 6,0 C 20,9 km/h (4 Bft) 100,00 %
31.10.2015 20:32 10,0 C 74 % 1030,3 hPa 0,0 l/m 14,6 km/h (3 Bft) O 80 0 min 0,000 mm 0,0 UV-I 0 W/m 5,6 C 5,3 C 22,5 km/h (4 Bft) 96,15 %
31.10.2015 20:33 10,0 C 74 % 1030,4 hPa 0,0 l/m 17,0 km/h (3 Bft) O-NO 59 0 min 0,000 mm 0,0 UV-I 0 W/m 5,6 C 4,3 C 22,5 km/h (4 Bft) 100,00 %
31.10.2015 20:34 9,9 C 74 % 1030,4 hPa 0,0 l/m 13,3 km/h (3 Bft) O-NO 69 0 min 0,000 mm 0,0 UV-I 0 W/m 5,5 C 5,8 C 19,3 km/h (3 Bft) 100,00 %
31.10.2015 20:35 9,9 C 74 % 1030,3 hPa 0,0 l/m 14,4 km/h (3 Bft) O-SO 103 0 min 0,000 mm 0,0 UV-I 0 W/m 5,5 C 5,3 C 19,3 km/h (3 Bft) 100,00 %
31.10.2015 20:36 9,9 C 74 % 1030,4 hPa 0,0 l/m 13,6 km/h (3 Bft) O 84 0 min 0,000 mm 0,0 UV-I 0 W/m 5,5 C 5,6 C 19,3 km/h (3 Bft) 96,15 %
31.10.2015 20:37 9,9 C 74 % 1030,4 hPa 0,0 l/m 14,6 km/h (3 Bft) O-NO 62 0 min 0,000 mm 0,0 UV-I 0 W/m 5,5 C 5,2 C 20,9 km/h (4 Bft) 100,00 %
31.10.2015 20:38 9,9 C 75 % 1030,3 hPa 0,0 l/m 13,9 km/h (3 Bft) O 82 0 min 0,000 mm 0,0 UV-I 0 W/m 5,7 C 5,5 C 17,7 km/h (3 Bft) 100,00 %
31.10.2015 20:39 9,8 C 75 % 1030,4 hPa 0,0 l/m 14,2 km/h (3 Bft) O 95 0 min 0,000 mm 0,0 UV-I 0 W/m 5,6 C 5,2 C 19,3 km/h (3 Bft) 100,00 %
31.10.2015 20:40 9,8 C 75 % 1030,4 hPa 0,0 l/m 17,2 km/h (3 Bft) O-SO 115 0 min 0,000 mm 0,0 UV-I 0 W/m 5,6 C 4,0 C 22,5 km/h (4 Bft) 100,00 %
31.10.2015 20:41 9,8 C 75 % 1030,4 hPa 0,0 l/m 13,0 km/h (3 Bft) NO 53 0 min 0,000 mm 0,0 UV-I 0 W/m 5,6 C 5,8 C 17,7 km/h (3 Bft) 100,00 %
31.10.2015 20:42 9,8 C 75 % 1030,4 hPa 0,0 l/m 11,0 km/h (2 Bft) NO 47 0 min 0,000 mm 0,0 UV-I 0 W/m 5,6 C 6,8 C 24,1 km/h (4 Bft) 100,00 %
31.10.2015 20:43 9,8 C 75 % 1030,4 hPa 0,0 l/m 8,0 km/h (2 Bft) O-SO 111 0 min 0,000 mm 0,0 UV-I 0 W/m 5,6 C 8,6 C 12,9 km/h (3 Bft) 100,00 %
31.10.2015 20:44 9,8 C 75 % 1030,4 hPa 0,0 l/m 13,6 km/h (3 Bft) O-NO 74 0 min 0,000 mm 0,0 UV-I 0 W/m 5,6 C 5,5 C 19,3 km/h (3 Bft) 100,00 %
31.10.2015 20:45 9,8 C 75 % 1030,4 hPa 0,0 l/m 12,8 km/h (3 Bft) O-NO 69 0 min 0,000 mm 0,0 UV-I 0 W/m 5,6 C 5,9 C 17,7 km/h (3 Bft) 92,59 %
31.10.2015 20:46 9,8 C 75 % 1030,4 hPa 0,0 l/m 13,0 km/h (3 Bft) O-SO 105 0 min 0,000 mm 0,0 UV-I 0 W/m 5,6 C 5,8 C 22,5 km/h (4 Bft) 100,00 %
31.10.2015 20:47 9,8 C 74 % 1030,5 hPa 0,0 l/m 16,7 km/h (3 Bft) O 79 0 min 0,000 mm 0,0 UV-I 0 W/m 5,4 C 4,2 C 24,1 km/h (4 Bft) 100,00 %
31.10.2015 20:48 9,8 C 75 % 1030,5 hPa 0,0 l/m 15,6 km/h (3 Bft) NO 49 0 min 0,000 mm 0,0 UV-I 0 W/m 5,6 C 4,6 C 19,3 km/h (3 Bft) 100,00 %
31.10.2015 20:49 9,8 C 75 % 1030,4 hPa 0,0 l/m 13,3 km/h (3 Bft) O 81 0 min 0,000 mm 0,0 UV-I 0 W/m 5,6 C 5,6 C 17,7 km/h (3 Bft) 100,00 %
31.10.2015 20:50 9,8 C 75 % 1030,5 hPa 0,0 l/m 13,0 km/h (3 Bft) O-SO 102 0 min 0,000 mm 0,0 UV-I 0 W/m 5,6 C 5,8 C 17,7 km/h (3 Bft) 100,00 %
31.10.2015 20:51 9,8 C 75 % 1030,5 hPa 0,0 l/m 15,9 km/h (3 Bft) NO 43 0 min 0,000 mm 0,0 UV-I 0 W/m 5,6 C 4,5 C 20,9 km/h (4 Bft) 100,00 %
31.10.2015 20:52 9,7 C 75 % 1030,5 hPa 0,0 l/m 12,3 km/h (3 Bft) O 94 0 min 0,000 mm 0,0 UV-I 0 W/m 5,5 C 6,0 C 16,1 km/h (3 Bft) 100,00 %
31.10.2015 20:53 9,7 C 75 % 1030,5 hPa 0,0 l/m 13,5 km/h (3 Bft) O 85 0 min 0,000 mm 0,0 UV-I 0 W/m 5,5 C 5,4 C 17,7 km/h (3 Bft) 100,00 %
31.10.2015 20:54 9,7 C 75 % 1030,5 hPa 0,0 l/m 13,2 km/h (3 Bft) O-NO 72 0 min 0,000 mm 0,0 UV-I 0 W/m 5,5 C 5,6 C 19,3 km/h (3 Bft) 100,00 %
31.10.2015 20:55 9,7 C 75 % 1030,5 hPa 0,0 l/m 10,5 km/h (2 Bft) O-SO 113 0 min 0,000 mm 0,0 UV-I 0 W/m 5,5 C 7,0 C 16,1 km/h (3 Bft) 100,00 %
31.10.2015 20:56 9,7 C 75 % 1030,5 hPa 0,0 l/m 13,6 km/h (3 Bft) O-NO 67 0 min 0,000 mm 0,0 UV-I 0 W/m 5,5 C 5,4 C 16,1 km/h (3 Bft) 100,00 %
31.10.2015 20:57 9,7 C 75 % 1030,5 hPa 0,0 l/m 11,8 km/h (2 Bft) O 92 0 min 0,000 mm 0,0 UV-I 0 W/m 5,5 C 6,3 C 16,1 km/h (3 Bft) 100,00 %
31.10.2015 20:58 9,6 C 75 % 1030,4 hPa 0,0 l/m 13,7 km/h (3 Bft) O-NO 62 0 min 0,000 mm 0,0 UV-I 0 W/m 5,4 C 5,2 C 17,7 km/h (3 Bft) 100,00 %
31.10.2015 20:59 9,6 C 75 % 1030,5 hPa 0,0 l/m 16,1 km/h (3 Bft) O-NO 76 0 min 0,000 mm 0,0 UV-I 0 W/m 5,4 C 4,2 C 22,5 km/h (4 Bft) 100,00 %
31.10.2015 21:00 9,6 C 75 % 1030,5 hPa 0,0 l/m 13,5 km/h (3 Bft) O 99 0 min 0,000 mm 0,0 UV-I 0 W/m 5,4 C 5,3 C 22,5 km/h (4 Bft) 100,00 %
31.10.2015 21:01 9,6 C 75 % 1030,5 hPa 0,0 l/m 11,3 km/h (2 Bft) O 82 0 min 0,050 mm 0,0 UV-I 0 W/m 5,4 C 6,4 C 17,7 km/h (3 Bft) 100,00 %
31.10.2015 21:02 9,6 C 76 % 1030,6 hPa 0,0 l/m 9,0 km/h (2 Bft) NO 55 0 min 0,000 mm 0,0 UV-I 0 W/m 5,6 C 7,8 C 14,5 km/h (3 Bft) 100,00 %
31.10.2015 21:03 9,5 C 75 % 1030,6 hPa 0,0 l/m 13,3 km/h (3 Bft) O 92 0 min 0,000 mm 0,0 UV-I 0 W/m 5,3 C 5,3 C 19,3 km/h (3 Bft) 92,86 %
31.10.2015 21:04 9,5 C 75 % 1030,6 hPa 0,0 l/m 14,8 km/h (3 Bft) O-NO 77 0 min 0,000 mm 0,0 UV-I 0 W/m 5,3 C 4,6 C 19,3 km/h (3 Bft) 100,00 %
31.10.2015 21:05 9,5 C 76 % 1030,6 hPa 0,0 l/m 12,0 km/h (2 Bft) SO 139 0 min 0,000 mm 0,0 UV-I 0 W/m 5,5 C 5,9 C 17,7 km/h (3 Bft) 100,00 %
31.10.2015 21:06 9,5 C 75 % 1030,5 hPa 0,0 l/m 15,6 km/h (3 Bft) O 86 0 min 0,000 mm 0,0 UV-I 0 W/m 5,3 C 4,3 C 20,9 km/h (4 Bft) 100,00 %
31.10.2015 21:07 9,5 C 75 % 1030,6 hPa 0,0 l/m 15,1 km/h (3 Bft) O 90 0 min 0,000 mm 0,0 UV-I 0 W/m 5,3 C 4,5 C 20,9 km/h (4 Bft) 96,15 %
31.10.2015 21:08 9,5 C 75 % 1030,6 hPa 0,0 l/m 13,8 km/h (3 Bft) O-NO 74 0 min 0,000 mm 0,0 UV-I 0 W/m 5,3 C 5,1 C 20,9 km/h (4 Bft) 100,00 %
31.10.2015 21:09 9,5 C 75 % 1030,6 hPa 0,0 l/m 12,1 km/h (2 Bft) O-NO 59 0 min 0,000 mm 0,0 UV-I 0 W/m 5,3 C 5,9 C 17,7 km/h (3 Bft) 100,00 %
31.10.2015 21:10 9,5 C 75 % 1030,6 hPa 0,0 l/m 14,9 km/h (3 Bft) O 90 0 min 0,000 mm 0,0 UV-I 0 W/m 5,3 C 4,6 C 22,5 km/h (4 Bft) 100,00 %
31.10.2015 21:11 9,4 C 75 % 1030,6 hPa 0,0 l/m 14,9 km/h (3 Bft) O-NO 69 0 min 0,000 mm 0,0 UV-I 0 W/m 5,2 C 4,5 C 20,9 km/h (4 Bft) 96,15 %
31.10.2015 21:12 9,5 C 75 % 1030,6 hPa 0,0 l/m 13,1 km/h (3 Bft) NO 56 0 min 0,000 mm 0,0 UV-I 0 W/m 5,3 C 5,4 C 20,9 km/h (4 Bft) 91,67 %
31.10.2015 21:13 9,5 C 75 % 1030,6 hPa 0,0 l/m 12,9 km/h (3 Bft) NO 52 0 min 0,000 mm 0,0 UV-I 0 W/m 5,3 C 5,5 C 19,3 km/h (3 Bft) 100,00 %
31.10.2015 21:14 9,5 C 75 % 1030,6 hPa 0,0 l/m 14,5 km/h (3 Bft) O 96 0 min 0,000 mm 0,0 UV-I 0 W/m 5,3 C 4,7 C 22,5 km/h (4 Bft) 100,00 %
31.10.2015 21:15 9,5 C 75 % 1030,6 hPa 0,0 l/m 16,1 km/h (3 Bft) O-NO 77 0 min 0,000 mm 0,0 UV-I 0 W/m 5,3 C 4,1 C 20,9 km/h (4 Bft) 100,00 %
31.10.2015 21:16 9,5 C 75 % 1030,6 hPa 0,0 l/m 13,0 km/h (3 Bft) O 92 0 min 0,000 mm 0,0 UV-I 0 W/m 5,3 C 5,4 C 17,7 km/h (3 Bft) 100,00 %
31.10.2015 21:17 9,5 C 75 % 1030,6 hPa 0,0 l/m 14,0 km/h (3 Bft) O 94 0 min 0,000 mm 0,0 UV-I 0 W/m 5,3 C 5,0 C 17,7 km/h (3 Bft) 95,83 %
31.10.2015 21:18 9,5 C 75 % 1030,6 hPa 0,0 l/m 16,6 km/h (3 Bft) O 95 0 min 0,000 mm 0,0 UV-I 0 W/m 5,3 C 3,9 C 22,5 km/h (4 Bft) 100,00 %
31.10.2015 21:19 9,5 C 75 % 1030,6 hPa 0,0 l/m 17,8 km/h (3 Bft) O-NO 74 0 min 0,000 mm 0,0 UV-I 0 W/m 5,3 C 3,4 C 22,5 km/h (4 Bft) 95,83 %
31.10.2015 21:20 9,5 C 75 % 1030,6 hPa 0,0 l/m 12,3 km/h (3 Bft) O-NO 63 0 min 0,000 mm 0,0 UV-I 0 W/m 5,3 C 5,8 C 17,7 km/h (3 Bft) 100,00 %
31.10.2015 21:21 9,5 C 75 % 1030,6 hPa 0,0 l/m 12,0 km/h (2 Bft) O 97 0 min 0,000 mm 0,0 UV-I 0 W/m 5,3 C 5,9 C 22,5 km/h (4 Bft) 100,00 %
31.10.2015 21:22 9,5 C 75 % 1030,6 hPa 0,0 l/m 14,6 km/h (3 Bft) O 95 0 min 0,000 mm 0,0 UV-I 0 W/m 5,3 C 4,7 C 20,9 km/h (4 Bft) 100,00 %
31.10.2015 21:23 9,6 C 75 % 1030,7 hPa 0,0 l/m 14,7 km/h (3 Bft) O 80 0 min 0,000 mm 0,0 UV-I 0 W/m 5,4 C 4,8 C 19,3 km/h (3 Bft) 100,00 %
31.10.2015 21:24 9,6 C 75 % 1030,7 hPa 0,0 l/m 13,1 km/h (3 Bft) O-NO 74 0 min 0,000 mm 0,0 UV-I 0 W/m 5,4 C 5,5 C 19,3 km/h (3 Bft) 100,00 %
31.10.2015 21:25 9,5 C 74 % 1030,7 hPa 0,0 l/m 13,3 km/h (3 Bft) O-SO 105 0 min 0,000 mm 0,0 UV-I 0 W/m 5,1 C 5,3 C 17,7 km/h (3 Bft) 100,00 %
31.10.2015 21:26 9,5 C 74 % 1030,7 hPa 0,0 l/m 14,3 km/h (3 Bft) NO 46 0 min 0,000 mm 0,0 UV-I 0 W/m 5,1 C 4,8 C 19,3 km/h (3 Bft) 100,00 %
31.10.2015 21:27 9,6 C 74 % 1030,7 hPa 0,0 l/m 11,6 km/h (2 Bft) O-NO 61 0 min 0,000 mm 0,0 UV-I 0 W/m 5,2 C 6,3 C 19,3 km/h (3 Bft) 95,83 %
31.10.2015 21:28 9,5 C 75 % 1030,7 hPa 0,0 l/m 12,1 km/h (2 Bft) O-NO 67 0 min 0,000 mm 0,0 UV-I 0 W/m 5,3 C 5,9 C 22,5 km/h (4 Bft) 100,00 %
31.10.2015 21:29 9,5 C 75 % 1030,7 hPa 0,0 l/m 8,9 km/h (2 Bft) O-SO 105 0 min 0,000 mm 0,0 UV-I 0 W/m 5,3 C 7,7 C 14,5 km/h (3 Bft) 96,30 %
31.10.2015 21:30 9,5 C 75 % 1030,8 hPa 0,0 l/m 6,0 km/h (2 Bft) SO 125 0 min 0,000 mm 0,0 UV-I 0 W/m 5,3 C 9,5 C 9,7 km/h (2 Bft) 100,00 %
31.10.2015 21:31 9,4 C 75 % 1030,8 hPa 0,0 l/m 10,7 km/h (2 Bft) O 81 0 min 0,000 mm 0,0 UV-I 0 W/m 5,2 C 6,5 C 22,5 km/h (4 Bft) 100,00 %
31.10.2015 21:32 9,4 C 75 % 1030,7 hPa 0,0 l/m 14,1 km/h (3 Bft) NO 37 0 min 0,000 mm 0,0 UV-I 0 W/m 5,2 C 4,8 C 17,7 km/h (3 Bft) 100,00 %
31.10.2015 21:33 9,4 C 74 % 1030,7 hPa 0,0 l/m 12,9 km/h (3 Bft) O 82 0 min 0,000 mm 0,0 UV-I 0 W/m 5,0 C 5,4 C 17,7 km/h (3 Bft) 100,00 %
31.10.2015 21:34 9,4 C 75 % 1030,6 hPa 0,0 l/m 17,5 km/h (3 Bft) O-NO 61 0 min 0,000 mm 0,0 UV-I 0 W/m 5,2 C 3,4 C 25,7 km/h (4 Bft) 100,00 %
31.10.2015 21:35 9,4 C 75 % 1030,7 hPa 0,0 l/m 11,5 km/h (2 Bft) O 88 0 min 0,000 mm 0,0 UV-I 0 W/m 5,2 C 6,1 C 16,1 km/h (3 Bft) 96,15 %
31.10.2015 21:36 9,4 C 75 % 1030,7 hPa 0,0 l/m 10,1 km/h (2 Bft) NO 53 0 min 0,000 mm 0,0 UV-I 0 W/m 5,2 C 6,9 C 14,5 km/h (3 Bft) 100,00 %
31.10.2015 21:37 9,4 C 75 % 1030,8 hPa 0,0 l/m 10,8 km/h (2 Bft) NO 53 0 min 0,000 mm 0,0 UV-I 0 W/m 5,2 C 6,5 C 19,3 km/h (3 Bft) 100,00 %
31.10.2015 21:38 9,4 C 75 % 1030,8 hPa 0,0 l/m 17,0 km/h (3 Bft) O-NO 69 0 min 0,000 mm 0,0 UV-I 0 W/m 5,2 C 3,6 C 25,7 km/h (4 Bft) 100,00 %
31.10.2015 21:39 9,4 C 74 % 1030,7 hPa 0,0 l/m 11,6 km/h (2 Bft) O 93 0 min 0,000 mm 0,0 UV-I 0 W/m 5,0 C 6,0 C 19,3 km/h (3 Bft) 100,00 %
31.10.2015 21:40 9,4 C 75 % 1030,7 hPa 0,0 l/m 11,4 km/h (2 Bft) O 79 0 min 0,000 mm 0,0 UV-I 0 W/m 5,2 C 6,1 C 16,1 km/h (3 Bft) 100,00 %
31.10.2015 21:41 9,4 C 75 % 1030,8 hPa 0,0 l/m 13,4 km/h (3 Bft) O 82 0 min 0,000 mm 0,0 UV-I 0 W/m 5,2 C 5,1 C 24,1 km/h (4 Bft) 100,00 %
31.10.2015 21:42 9,4 C 75 % 1030,8 hPa 0,0 l/m 10,1 km/h (2 Bft) O 96 0 min 0,000 mm 0,0 UV-I 0 W/m 5,2 C 6,9 C 19,3 km/h (3 Bft) 100,00 %
31.10.2015 21:43 9,4 C 75 % 1030,8 hPa 0,0 l/m 12,6 km/h (3 Bft) O-NO 76 0 min 0,000 mm 0,0 UV-I 0 W/m 5,2 C 5,5 C 17,7 km/h (3 Bft) 100,00 %
31.10.2015 21:44 9,4 C 75 % 1030,8 hPa 0,0 l/m 15,3 km/h (3 Bft) O 84 0 min 0,000 mm 0,0 UV-I 0 W/m 5,2 C 4,3 C 24,1 km/h (4 Bft) 100,00 %
31.10.2015 21:45 9,4 C 75 % 1030,8 hPa 0,0 l/m 14,0 km/h (3 Bft) O 90 0 min 0,000 mm 0,0 UV-I 0 W/m 5,2 C 4,9 C 22,5 km/h (4 Bft) 92,31 %
31.10.2015 21:46 9,4 C 75 % 1030,8 hPa 0,0 l/m 12,0 km/h (2 Bft) O-NO 63 0 min 0,000 mm 0,0 UV-I 0 W/m 5,2 C 5,8 C 22,5 km/h (4 Bft) 100,00 %
31.10.2015 21:47 9,4 C 75 % 1030,8 hPa 0,0 l/m 12,4 km/h (3 Bft) O 98 0 min 0,000 mm 0,0 UV-I 0 W/m 5,2 C 5,6 C 16,1 km/h (3 Bft) 96,15 %
31.10.2015 21:48 9,4 C 75 % 1030,8 hPa 0,0 l/m 14,6 km/h (3 Bft) NO 36 0 min 0,000 mm 0,0 UV-I 0 W/m 5,2 C 4,6 C 19,3 km/h (3 Bft) 100,00 %
31.10.2015 21:49 9,3 C 75 % 1030,8 hPa 0,0 l/m 14,1 km/h (3 Bft) O-NO 74 0 min 0,000 mm 0,0 UV-I 0 W/m 5,1 C 4,7 C 19,3 km/h (3 Bft) 100,00 %
31.10.2015 21:50 9,3 C 75 % 1030,8 hPa 0,0 l/m 12,7 km/h (3 Bft) O-NO 57 0 min 0,000 mm 0,0 UV-I 0 W/m 5,1 C 5,4 C 17,7 km/h (3 Bft) 100,00 %
31.10.2015 21:51 9,3 C 75 % 1030,7 hPa 0,0 l/m 11,1 km/h (2 Bft) O-NO 74 0 min 0,000 mm 0,0 UV-I 0 W/m 5,1 C 6,2 C 16,1 km/h (3 Bft) 100,00 %
31.10.2015 21:52 9,3 C 74 % 1030,7 hPa 0,0 l/m 13,7 km/h (3 Bft) O 93 0 min 0,000 mm 0,0 UV-I 0 W/m 4,9 C 4,9 C 20,9 km/h (4 Bft) 100,00 %
31.10.2015 21:53 9,3 C 75 % 1030,8 hPa 0,0 l/m 9,7 km/h (2 Bft) O-SO 117 0 min 0,000 mm 0,0 UV-I 0 W/m 5,1 C 7,0 C 16,1 km/h (3 Bft) 100,00 %
31.10.2015 21:54 9,3 C 75 % 1030,8 hPa 0,0 l/m 8,5 km/h (2 Bft) O 94 0 min 0,000 mm 0,0 UV-I 0 W/m 5,1 C 7,8 C 16,1 km/h (3 Bft) 100,00 %
31.10.2015 21:55 9,3 C 75 % 1030,8 hPa 0,0 l/m 12,8 km/h (3 Bft) O 96 0 min 0,000 mm 0,0 UV-I 0 W/m 5,1 C 5,3 C 14,5 km/h (3 Bft) 100,00 %
31.10.2015 21:56 9,2 C 75 % 1030,8 hPa 0,0 l/m 13,5 km/h (3 Bft) O-NO 67 0 min 0,000 mm 0,0 UV-I 0 W/m 5,0 C 4,8 C 19,3 km/h (3 Bft) 100,00 %
31.10.2015 21:57 9,2 C 74 % 1030,8 hPa 0,0 l/m 13,4 km/h (3 Bft) O 99 0 min 0,000 mm 0,0 UV-I 0 W/m 4,8 C 4,9 C 19,3 km/h (3 Bft) 100,00 %
31.10.2015 21:58 9,2 C 75 % 1030,8 hPa 0,0 l/m 15,5 km/h (3 Bft) NO 42 0 min 0,000 mm 0,0 UV-I 0 W/m 5,0 C 4,0 C 24,1 km/h (4 Bft) 100,00 %
31.10.2015 21:59 9,2 C 75 % 1030,8 hPa 0,0 l/m 12,6 km/h (3 Bft) O 86 0 min 0,000 mm 0,0 UV-I 0 W/m 5,0 C 5,3 C 16,1 km/h (3 Bft) 100,00 %
31.10.2015 22:00 9,2 C 75 % 1030,7 hPa 0,0 l/m 12,5 km/h (3 Bft) O 99 0 min 0,000 mm 0,0 UV-I 0 W/m 5,0 C 5,3 C 19,3 km/h (3 Bft) 100,00 %
31.10.2015 22:01 9,2 C 75 % 1030,7 hPa 0,0 l/m 13,4 km/h (3 Bft) O 86 0 min 0,025 mm 0,0 UV-I 0 W/m 5,0 C 4,9 C 19,3 km/h (3 Bft) 100,00 %
31.10.2015 22:02 9,2 C 75 % 1030,7 hPa 0,0 l/m 15,0 km/h (3 Bft) O 87 0 min 0,001 mm 0,0 UV-I 0 W/m 5,0 C 4,2 C 20,9 km/h (4 Bft) 100,00 %
31.10.2015 22:03 9,2 C 75 % 1030,7 hPa 0,0 l/m 16,4 km/h (3 Bft) O-NO 71 0 min 0,000 mm 0,0 UV-I 0 W/m 5,0 C 3,6 C 20,9 km/h (4 Bft) 100,00 %
31.10.2015 22:04 9,2 C 75 % 1030,7 hPa 0,0 l/m 14,4 km/h (3 Bft) O 92 0 min 0,000 mm 0,0 UV-I 0 W/m 5,0 C 4,4 C 19,3 km/h (3 Bft) 100,00 %
31.10.2015 22:05 9,1 C 75 % 1030,7 hPa 0,0 l/m 13,1 km/h (3 Bft) O 79 0 min 0,000 mm 0,0 UV-I 0 W/m 4,9 C 4,9 C 17,7 km/h (3 Bft) 100,00 %
31.10.2015 22:06 9,1 C 75 % 1030,7 hPa 0,0 l/m 12,0 km/h (2 Bft) O 98 0 min 0,000 mm 0,0 UV-I 0 W/m 4,9 C 5,5 C 17,7 km/h (3 Bft) 95,65 %
31.10.2015 22:07 9,1 C 75 % 1030,8 hPa 0,0 l/m 9,3 km/h (2 Bft) O 86 0 min 0,000 mm 0,0 UV-I 0 W/m 4,9 C 7,0 C 12,9 km/h (3 Bft) 95,83 %
31.10.2015 22:08 9,1 C 75 % 1030,8 hPa 0,0 l/m 13,0 km/h (3 Bft) O-NO 78 0 min 0,000 mm 0,0 UV-I 0 W/m 4,9 C 5,0 C 19,3 km/h (3 Bft) 100,00 %
31.10.2015 22:09 9,0 C 75 % 1030,8 hPa 0,0 l/m 13,4 km/h (3 Bft) O-NO 71 0 min 0,000 mm 0,0 UV-I 0 W/m 4,8 C 4,7 C 19,3 km/h (3 Bft) 100,00 %
31.10.2015 22:10 9,0 C 75 % 1030,8 hPa 0,0 l/m 12,7 km/h (3 Bft) O-NO 76 0 min 0,000 mm 0,0 UV-I 0 W/m 4,8 C 5,0 C 19,3 km/h (3 Bft) 96,15 %
31.10.2015 22:11 9,0 C 75 % 1030,7 hPa 0,0 l/m 14,6 km/h (3 Bft) O-NO 57 0 min 0,000 mm 0,0 UV-I 0 W/m 4,8 C 4,1 C 20,9 km/h (4 Bft) 100,00 %
31.10.2015 22:12 9,0 C 75 % 1030,7 hPa 0,0 l/m 14,3 km/h (3 Bft) O-NO 67 0 min 0,000 mm 0,0 UV-I 0 W/m 4,8 C 4,2 C 19,3 km/h (3 Bft) 100,00 %
31.10.2015 22:13 8,9 C 76 % 1030,7 hPa 0,0 l/m 13,9 km/h (3 Bft) O-NO 71 0 min 0,000 mm 0,0 UV-I 0 W/m 4,9 C 4,3 C 20,9 km/h (4 Bft) 100,00 %
31.10.2015 22:14 8,9 C 76 % 1030,7 hPa 0,0 l/m 13,6 km/h (3 Bft) O 94 0 min 0,000 mm 0,0 UV-I 0 W/m 4,9 C 4,4 C 20,9 km/h (4 Bft) 100,00 %
31.10.2015 22:15 8,9 C 76 % 1030,7 hPa 0,0 l/m 13,0 km/h (3 Bft) O-NO 69 0 min 0,000 mm 0,0 UV-I 0 W/m 4,9 C 4,7 C 16,1 km/h (3 Bft) 100,00 %
31.10.2015 22:16 8,9 C 76 % 1030,7 hPa 0,0 l/m 11,4 km/h (2 Bft) O-SO 109 0 min 0,000 mm 0,0 UV-I 0 W/m 4,9 C 5,6 C 19,3 km/h (3 Bft) 100,00 %
31.10.2015 22:17 8,8 C 76 % 1030,7 hPa 0,0 l/m 10,9 km/h (2 Bft) O-NO 62 0 min 0,000 mm 0,0 UV-I 0 W/m 4,8 C 5,7 C 17,7 km/h (3 Bft) 100,00 %
31.10.2015 22:18 8,8 C 76 % 1030,7 hPa 0,0 l/m 9,2 km/h (2 Bft) NO 42 0 min 0,000 mm 0,0 UV-I 0 W/m 4,8 C 6,8 C 16,1 km/h (3 Bft) 100,00 %
31.10.2015 22:19 8,8 C 76 % 1030,8 hPa 0,0 l/m 8,1 km/h (2 Bft) O 83 0 min 0,000 mm 0,0 UV-I 0 W/m 4,8 C 7,5 C 14,5 km/h (3 Bft) 100,00 %
31.10.2015 22:20 8,7 C 76 % 1030,8 hPa 0,0 l/m 8,8 km/h (2 Bft) O-NO 67 0 min 0,000 mm 0,0 UV-I 0 W/m 4,7 C 6,9 C 16,1 km/h (3 Bft) 100,00 %
31.10.2015 22:21 8,7 C 76 % 1030,7 hPa 0,0 l/m 9,1 km/h (2 Bft) O 94 0 min 0,000 mm 0,0 UV-I 0 W/m 4,7 C 6,7 C 16,1 km/h (3 Bft) 100,00 %
31.10.2015 22:22 8,7 C 77 % 1030,7 hPa 0,0 l/m 6,5 km/h (2 Bft) O 96 0 min 0,000 mm 0,0 UV-I 0 W/m 4,9 C 8,6 C 14,5 km/h (3 Bft) 100,00 %
31.10.2015 22:23 8,6 C 77 % 1030,7 hPa 0,0 l/m 10,4 km/h (2 Bft) O 92 0 min 0,000 mm 0,0 UV-I 0 W/m 4,8 C 5,8 C 17,7 km/h (3 Bft) 100,00 %
31.10.2015 22:24 8,6 C 77 % 1030,7 hPa 0,0 l/m 10,9 km/h (2 Bft) NO 49 0 min 0,000 mm 0,0 UV-I 0 W/m 4,8 C 5,5 C 17,7 km/h (3 Bft) 75,00 %
31.10.2015 22:25 8,6 C 77 % 1030,8 hPa 0,0 l/m 16,7 km/h (3 Bft) O 96 0 min 0,000 mm 0,0 UV-I 0 W/m 4,8 C 2,7 C 20,9 km/h (4 Bft) 28,57 %
31.10.2015 22:26 8,7 C 76 % 1030,7 hPa 0,0 l/m 9,9 km/h (2 Bft) O-SO 105 0 min 0,000 mm 0,0 UV-I 0 W/m 4,7 C 6,2 C 16,1 km/h (3 Bft) 33,33 %
31.10.2015 22:27 8,7 C 76 % 1030,7 hPa 0,0 l/m 13,3 km/h (3 Bft) O 90 0 min 0,000 mm 0,0 UV-I 0 W/m 4,7 C 4,4 C 17,7 km/h (3 Bft) 73,08 %
31.10.2015 22:28 8,7 C 76 % 1030,7 hPa 0,0 l/m 11,9 km/h (2 Bft) O 101 0 min 0,000 mm 0,0 UV-I 0 W/m 4,7 C 5,1 C 16,1 km/h (3 Bft) 95,83 %
31.10.2015 22:29 8,7 C 76 % 1030,7 hPa 0,0 l/m 8,3 km/h (2 Bft) O-NO 71 0 min 0,000 mm 0,0 UV-I 0 W/m 4,7 C 7,3 C 12,9 km/h (3 Bft) 100,00 %
31.10.2015 22:30 8,7 C 76 % 1030,8 hPa 0,0 l/m 7,6 km/h (2 Bft) O-NO 70 0 min 0,000 mm 0,0 UV-I 0 W/m 4,7 C 7,8 C 11,3 km/h (2 Bft) 95,83 %
31.10.2015 22:31 8,7 C 76 % 1030,8 hPa 0,0 l/m 8,0 km/h (2 Bft) O 95 0 min 0,000 mm 0,0 UV-I 0 W/m 4,7 C 7,5 C 12,9 km/h (3 Bft) 96,15 %
31.10.2015 22:32 8,7 C 76 % 1030,8 hPa 0,0 l/m 10,3 km/h (2 Bft) O 100 0 min 0,000 mm 0,0 UV-I 0 W/m 4,7 C 6,0 C 16,1 km/h (3 Bft) 100,00 %
31.10.2015 22:33 8,7 C 76 % 1030,8 hPa 0,0 l/m 10,9 km/h (2 Bft) O 80 0 min 0,000 mm 0,0 UV-I 0 W/m 4,7 C 5,6 C 16,1 km/h (3 Bft) 91,67 %
31.10.2015 22:34 8,7 C 76 % 1030,8 hPa 0,0 l/m 11,9 km/h (2 Bft) O-SO 114 0 min 0,000 mm 0,0 UV-I 0 W/m 4,7 C 5,1 C 17,7 km/h (3 Bft) 100,00 %
31.10.2015 22:35 8,7 C 76 % 1030,8 hPa 0,0 l/m 10,6 km/h (2 Bft) O-SO 119 0 min 0,000 mm 0,0 UV-I 0 W/m 4,7 C 5,8 C 17,7 km/h (3 Bft) 100,00 %
31.10.2015 22:36 8,7 C 76 % 1030,8 hPa 0,0 l/m 7,2 km/h (2 Bft) O-SO 123 0 min 0,000 mm 0,0 UV-I 0 W/m 4,7 C 8,1 C 12,9 km/h (3 Bft) 100,00 %
31.10.2015 22:37 8,7 C 76 % 1030,8 hPa 0,0 l/m 10,9 km/h (2 Bft) SO 125 0 min 0,000 mm 0,0 UV-I 0 W/m 4,7 C 5,6 C 17,7 km/h (3 Bft) 79,17 %
31.10.2015 22:38 8,7 C 76 % 1030,8 hPa 0,0 l/m 8,7 km/h (2 Bft) O 91 0 min 0,000 mm 0,0 UV-I 0 W/m 4,7 C 7,0 C 14,5 km/h (3 Bft) 93,10 %
31.10.2015 22:39 8,6 C 76 % 1030,9 hPa 0,0 l/m 7,7 km/h (2 Bft) O 80 0 min 0,000 mm 0,0 UV-I 0 W/m 4,6 C 7,6 C 12,9 km/h (3 Bft) 100,00 %
31.10.2015 22:40 8,6 C 76 % 1030,9 hPa 0,0 l/m 11,8 km/h (2 Bft) O 99 0 min 0,000 mm 0,0 UV-I 0 W/m 4,6 C 5,0 C 19,3 km/h (3 Bft) 96,15 %
31.10.2015 22:41 8,6 C 76 % 1030,8 hPa 0,0 l/m 6,9 km/h (2 Bft) O 90 0 min 0,000 mm 0,0 UV-I 0 W/m 4,6 C 8,2 C 11,3 km/h (2 Bft) 100,00 %
31.10.2015 22:42 8,6 C 76 % 1030,9 hPa 0,0 l/m 7,3 km/h (2 Bft) O-NO 59 0 min 0,000 mm 0,0 UV-I 0 W/m 4,6 C 7,9 C 12,9 km/h (3 Bft) 100,00 %
31.10.2015 22:43 8,6 C 76 % 1030,8 hPa 0,0 l/m 8,3 km/h (2 Bft) O 85 0 min 0,000 mm 0,0 UV-I 0 W/m 4,6 C 7,2 C 12,9 km/h (3 Bft) 100,00 %
31.10.2015 22:44 8,6 C 76 % 1030,8 hPa 0,0 l/m 8,0 km/h (2 Bft) O-NO 78 0 min 0,000 mm 0,0 UV-I 0 W/m 4,6 C 7,4 C 12,9 km/h (3 Bft) 100,00 %
31.10.2015 22:45 8,6 C 76 % 1030,8 hPa 0,0 l/m 10,1 km/h (2 Bft) O 83 0 min 0,000 mm 0,0 UV-I 0 W/m 4,6 C 6,0 C 16,1 km/h (3 Bft) 100,00 %
31.10.2015 22:46 8,6 C 76 % 1030,9 hPa 0,0 l/m 10,0 km/h (2 Bft) O 84 0 min 0,000 mm 0,0 UV-I 0 W/m 4,6 C 6,0 C 16,1 km/h (3 Bft) 100,00 %
31.10.2015 22:47 8,6 C 76 % 1030,8 hPa 0,0 l/m 11,0 km/h (2 Bft) O-NO 71 0 min 0,000 mm 0,0 UV-I 0 W/m 4,6 C 5,5 C 16,1 km/h (3 Bft) 100,00 %
31.10.2015 22:48 8,6 C 76 % 1030,9 hPa 0,0 l/m 11,2 km/h (2 Bft) O 92 0 min 0,000 mm 0,0 UV-I 0 W/m 4,6 C 5,3 C 17,7 km/h (3 Bft) 100,00 %
31.10.2015 22:49 8,6 C 76 % 1030,9 hPa 0,0 l/m 8,5 km/h (2 Bft) O-NO 78 0 min 0,000 mm 0,0 UV-I 0 W/m 4,6 C 7,0 C 14,5 km/h (3 Bft) 100,00 %
31.10.2015 22:50 8,6 C 76 % 1030,9 hPa 0,0 l/m 13,0 km/h (3 Bft) O-NO 71 0 min 0,000 mm 0,0 UV-I 0 W/m 4,6 C 4,4 C 19,3 km/h (3 Bft) 100,00 %
31.10.2015 22:51 8,6 C 76 % 1030,9 hPa 0,0 l/m 7,9 km/h (2 Bft) O 85 0 min 0,000 mm 0,0 UV-I 0 W/m 4,6 C 7,5 C 14,5 km/h (3 Bft) 96,55 %
31.10.2015 22:52 8,6 C 76 % 1031,0 hPa 0,0 l/m 9,4 km/h (2 Bft) O-NO 70 0 min 0,000 mm 0,0 UV-I 0 W/m 4,6 C 6,4 C 17,7 km/h (3 Bft) 100,00 %
31.10.2015 22:53 8,6 C 76 % 1030,9 hPa 0,0 l/m 7,6 km/h (2 Bft) O 90 0 min 0,000 mm 0,0 UV-I 0 W/m 4,6 C 7,7 C 14,5 km/h (3 Bft) 100,00 %
31.10.2015 22:54 8,6 C 76 % 1030,8 hPa 0,0 l/m 9,7 km/h (2 Bft) O 84 0 min 0,000 mm 0,0 UV-I 0 W/m 4,6 C 6,2 C 17,7 km/h (3 Bft) 100,00 %
31.10.2015 22:55 8,5 C 76 % 1030,8 hPa 0,0 l/m 10,6 km/h (2 Bft) O-NO 63 0 min 0,000 mm 0,0 UV-I 0 W/m 4,5 C 5,6 C 12,9 km/h (3 Bft) 100,00 %
31.10.2015 22:56 8,5 C 76 % 1030,8 hPa 0,0 l/m 9,2 km/h (2 Bft) O 87 0 min 0,000 mm 0,0 UV-I 0 W/m 4,5 C 6,4 C 14,5 km/h (3 Bft) 100,00 %
31.10.2015 22:57 8,5 C 77 % 1030,8 hPa 0,0 l/m 7,5 km/h (2 Bft) O 87 0 min 0,000 mm 0,0 UV-I 0 W/m 4,7 C 7,6 C 11,3 km/h (2 Bft) 100,00 %
31.10.2015 22:58 8,5 C 77 % 1030,9 hPa 0,0 l/m 7,0 km/h (2 Bft) NO 56 0 min 0,000 mm 0,0 UV-I 0 W/m 4,7 C 8,0 C 8,0 km/h (2 Bft) 100,00 %
31.10.2015 22:59 8,5 C 76 % 1030,8 hPa 0,0 l/m 12,2 km/h (2 Bft) O-NO 78 0 min 0,000 mm 0,0 UV-I 0 W/m 4,5 C 4,7 C 17,7 km/h (3 Bft) 100,00 %
31.10.2015 23:00 8,5 C 76 % 1030,9 hPa 0,0 l/m 8,0 km/h (2 Bft) O-NO 75 0 min 0,000 mm 0,0 UV-I 0 W/m 4,5 C 7,3 C 12,9 km/h (3 Bft) 100,00 %
31.10.2015 23:01 8,5 C 76 % 1030,9 hPa 0,0 l/m 8,4 km/h (2 Bft) SO 134 0 min 0,025 mm 0,0 UV-I 0 W/m 4,5 C 7,0 C 16,1 km/h (3 Bft) 96,15 %
31.10.2015 23:02 8,4 C 76 % 1030,8 hPa 0,0 l/m 11,9 km/h (2 Bft) O-NO 71 0 min 0,000 mm 0,0 UV-I 0 W/m 4,4 C 4,7 C 17,7 km/h (3 Bft) 95,83 %
31.10.2015 23:03 8,4 C 76 % 1030,9 hPa 0,0 l/m 9,0 km/h (2 Bft) O 92 0 min 0,000 mm 0,0 UV-I 0 W/m 4,4 C 6,5 C 12,9 km/h (3 Bft) 96,15 %
31.10.2015 23:04 8,4 C 76 % 1030,9 hPa 0,0 l/m 10,9 km/h (2 Bft) O-SO 105 0 min 0,000 mm 0,0 UV-I 0 W/m 4,4 C 5,3 C 16,1 km/h (3 Bft) 100,00 %
31.10.2015 23:05 8,4 C 76 % 1030,8 hPa 0,0 l/m 9,6 km/h (2 Bft) SO 125 0 min 0,000 mm 0,0 UV-I 0 W/m 4,4 C 6,1 C 17,7 km/h (3 Bft) 91,67 %
31.10.2015 23:06 8,4 C 76 % 1030,9 hPa 0,0 l/m 15,5 km/h (3 Bft) NO 43 0 min 0,000 mm 0,0 UV-I 0 W/m 4,4 C 3,0 C 19,3 km/h (3 Bft) 100,00 %
31.10.2015 23:07 8,5 C 76 % 1030,8 hPa 0,0 l/m 11,4 km/h (2 Bft) O 88 0 min 0,000 mm 0,0 UV-I 0 W/m 4,5 C 5,1 C 17,7 km/h (3 Bft) 95,83 %
31.10.2015 23:08 8,5 C 76 % 1030,8 hPa 0,0 l/m 10,8 km/h (2 Bft) O 95 0 min 0,000 mm 0,0 UV-I 0 W/m 4,5 C 5,5 C 14,5 km/h (3 Bft) 96,15 %
31.10.2015 23:09 8,5 C 76 % 1030,8 hPa 0,0 l/m 10,4 km/h (2 Bft) O-NO 59 0 min 0,000 mm 0,0 UV-I 0 W/m 4,5 C 5,7 C 16,1 km/h (3 Bft) 100,00 %
31.10.2015 23:10 8,5 C 76 % 1030,8 hPa 0,0 l/m 9,0 km/h (2 Bft) NO 46 0 min 0,000 mm 0,0 UV-I 0 W/m 4,5 C 6,6 C 16,1 km/h (3 Bft) 100,00 %
31.10.2015 23:11 8,5 C 76 % 1030,8 hPa 0,0 l/m 11,8 km/h (2 Bft) O-NO 77 0 min 0,000 mm 0,0 UV-I 0 W/m 4,5 C 4,9 C 14,5 km/h (3 Bft) 100,00 %
31.10.2015 23:12 8,5 C 76 % 1030,9 hPa 0,0 l/m 10,3 km/h (2 Bft) O 101 0 min 0,000 mm 0,0 UV-I 0 W/m 4,5 C 5,8 C 17,7 km/h (3 Bft) 100,00 %
31.10.2015 23:13 8,5 C 76 % 1031,0 hPa 0,0 l/m 10,3 km/h (2 Bft) O-SO 118 0 min 0,000 mm 0,0 UV-I 0 W/m 4,5 C 5,8 C 12,9 km/h (3 Bft) 100,00 %
31.10.2015 23:14 8,4 C 76 % 1030,9 hPa 0,0 l/m 10,4 km/h (2 Bft) O 88 0 min 0,000 mm 0,0 UV-I 0 W/m 4,4 C 5,6 C 20,9 km/h (4 Bft) 96,15 %
31.10.2015 23:15 8,4 C 76 % 1030,9 hPa 0,0 l/m 8,2 km/h (2 Bft) O 89 0 min 0,000 mm 0,0 UV-I 0 W/m 4,4 C 7,0 C 14,5 km/h (3 Bft) 100,00 %
31.10.2015 23:16 8,4 C 76 % 1030,9 hPa 0,0 l/m 8,6 km/h (2 Bft) SO 132 0 min 0,000 mm 0,0 UV-I 0 W/m 4,4 C 6,7 C 16,1 km/h (3 Bft) 100,00 %
31.10.2015 23:17 8,4 C 76 % 1030,9 hPa 0,0 l/m 8,7 km/h (2 Bft) O 96 0 min 0,000 mm 0,0 UV-I 0 W/m 4,4 C 6,7 C 16,1 km/h (3 Bft) 100,00 %
31.10.2015 23:18 8,4 C 76 % 1030,8 hPa 0,0 l/m 8,9 km/h (2 Bft) O-SO 111 0 min 0,000 mm 0,0 UV-I 0 W/m 4,4 C 6,5 C 20,9 km/h (4 Bft) 100,00 %
31.10.2015 23:19 8,4 C 76 % 1030,9 hPa 0,0 l/m 9,7 km/h (2 Bft) O-NO 78 0 min 0,000 mm 0,0 UV-I 0 W/m 4,4 C 6,0 C 16,1 km/h (3 Bft) 100,00 %
31.10.2015 23:20 8,4 C 76 % 1030,8 hPa 0,0 l/m 13,5 km/h (3 Bft) O 87 0 min 0,000 mm 0,0 UV-I 0 W/m 4,4 C 3,9 C 19,3 km/h (3 Bft) 100,00 %
31.10.2015 23:21 8,4 C 76 % 1030,8 hPa 0,0 l/m 12,3 km/h (3 Bft) O-NO 74 0 min 0,000 mm 0,0 UV-I 0 W/m 4,4 C 4,5 C 16,1 km/h (3 Bft) 100,00 %
31.10.2015 23:22 8,4 C 76 % 1030,8 hPa 0,0 l/m 6,5 km/h (2 Bft) O 82 0 min 0,000 mm 0,0 UV-I 0 W/m 4,4 C 8,3 C 9,7 km/h (2 Bft) 100,00 %
31.10.2015 23:23 8,4 C 76 % 1030,8 hPa 0,0 l/m 7,9 km/h (2 Bft) O 89 0 min 0,000 mm 0,0 UV-I 0 W/m 4,4 C 7,2 C 12,9 km/h (3 Bft) 95,83 %
31.10.2015 23:24 8,4 C 76 % 1030,8 hPa 0,0 l/m 9,1 km/h (2 Bft) O 94 0 min 0,000 mm 0,0 UV-I 0 W/m 4,4 C 6,4 C 12,9 km/h (3 Bft) 100,00 %
31.10.2015 23:25 8,4 C 76 % 1030,9 hPa 0,0 l/m 9,4 km/h (2 Bft) O 98 0 min 0,000 mm 0,0 UV-I 0 W/m 4,4 C 6,2 C 16,1 km/h (3 Bft) 100,00 %
31.10.2015 23:26 8,4 C 76 % 1030,8 hPa 0,0 l/m 9,2 km/h (2 Bft) O-SO 107 0 min 0,000 mm 0,0 UV-I 0 W/m 4,4 C 6,3 C 14,5 km/h (3 Bft) 100,00 %
31.10.2015 23:27 8,4 C 76 % 1030,8 hPa 0,0 l/m 6,2 km/h (2 Bft) O 79 0 min 0,000 mm 0,0 UV-I 0 W/m 4,4 C 8,4 C 11,3 km/h (2 Bft) 100,00 %
31.10.2015 23:28 8,3 C 76 % 1030,9 hPa 0,0 l/m 7,4 km/h (2 Bft) O-NO 71 0 min 0,000 mm 0,0 UV-I 0 W/m 4,3 C 7,5 C 11,3 km/h (2 Bft) 100,00 %
31.10.2015 23:29 8,3 C 76 % 1031,0 hPa 0,0 l/m 9,1 km/h (2 Bft) O 80 0 min 0,000 mm 0,0 UV-I 0 W/m 4,3 C 6,3 C 17,7 km/h (3 Bft) 100,00 %
31.10.2015 23:30 8,3 C 76 % 1030,9 hPa 0,0 l/m 8,3 km/h (2 Bft) O-SO 111 0 min 0,000 mm 0,0 UV-I 0 W/m 4,3 C 6,9 C 16,1 km/h (3 Bft) 100,00 %
31.10.2015 23:31 8,3 C 76 % 1030,9 hPa 0,0 l/m 7,8 km/h (2 Bft) O-NO 77 0 min 0,000 mm 0,0 UV-I 0 W/m 4,3 C 7,2 C 12,9 km/h (3 Bft) 100,00 %
31.10.2015 23:32 8,3 C 76 % 1031,0 hPa 0,0 l/m 9,7 km/h (2 Bft) O-NO 61 0 min 0,000 mm 0,0 UV-I 0 W/m 4,3 C 5,9 C 17,7 km/h (3 Bft) 100,00 %
31.10.2015 23:33 8,3 C 76 % 1031,0 hPa 0,0 l/m 8,9 km/h (2 Bft) N-NW 348 0 min 0,000 mm 0,0 UV-I 0 W/m 4,3 C 6,4 C 16,1 km/h (3 Bft) 100,00 %
31.10.2015 23:34 8,3 C 76 % 1031,0 hPa 0,0 l/m 7,8 km/h (2 Bft) O 84 0 min 0,000 mm 0,0 UV-I 0 W/m 4,3 C 7,2 C 12,9 km/h (3 Bft) 100,00 %
31.10.2015 23:35 8,3 C 76 % 1031,0 hPa 0,0 l/m 7,1 km/h (2 Bft) O-SO 116 0 min 0,000 mm 0,0 UV-I 0 W/m 4,3 C 7,8 C 12,9 km/h (3 Bft) 100,00 %
31.10.2015 23:36 8,3 C 76 % 1031,0 hPa 0,0 l/m 6,8 km/h (2 Bft) NO 46 0 min 0,000 mm 0,0 UV-I 0 W/m 4,3 C 8,0 C 12,9 km/h (3 Bft) 100,00 %
31.10.2015 23:37 8,3 C 76 % 1031,0 hPa 0,0 l/m 10,3 km/h (2 Bft) O 100 0 min 0,000 mm 0,0 UV-I 0 W/m 4,3 C 5,5 C 20,9 km/h (4 Bft) 100,00 %
31.10.2015 23:38 8,2 C 76 % 1031,0 hPa 0,0 l/m 8,0 km/h (2 Bft) O-NO 64 0 min 0,000 mm 0,0 UV-I 0 W/m 4,2 C 7,0 C 12,9 km/h (3 Bft) 93,33 %
31.10.2015 23:39 8,3 C 77 % 1031,0 hPa 0,0 l/m 9,0 km/h (2 Bft) O-NO 58 0 min 0,000 mm 0,0 UV-I 0 W/m 4,5 C 6,4 C 12,9 km/h (3 Bft) 96,15 %
31.10.2015 23:40 8,2 C 77 % 1031,1 hPa 0,0 l/m 7,8 km/h (2 Bft) O 101 0 min 0,000 mm 0,0 UV-I 0 W/m 4,4 C 7,1 C 12,9 km/h (3 Bft) 100,00 %
31.10.2015 23:41 8,2 C 77 % 1031,0 hPa 0,0 l/m 11,1 km/h (2 Bft) O-NO 74 0 min 0,000 mm 0,0 UV-I 0 W/m 4,4 C 4,9 C 17,7 km/h (3 Bft) 100,00 %
31.10.2015 23:42 8,2 C 76 % 1031,0 hPa 0,0 l/m 13,1 km/h (3 Bft) O 93 0 min 0,000 mm 0,0 UV-I 0 W/m 4,2 C 3,9 C 17,7 km/h (3 Bft) 95,83 %
31.10.2015 23:43 8,2 C 77 % 1031,0 hPa 0,0 l/m 5,6 km/h (1 Bft) O-NO 78 0 min 0,000 mm 0,0 UV-I 0 W/m 4,4 C 8,2 C 11,3 km/h (2 Bft) 100,00 %
31.10.2015 23:44 8,2 C 77 % 1031,1 hPa 0,0 l/m 12,5 km/h (3 Bft) O-NO 76 0 min 0,000 mm 0,0 UV-I 0 W/m 4,4 C 4,2 C 19,3 km/h (3 Bft) 100,00 %
31.10.2015 23:45 8,2 C 77 % 1031,0 hPa 0,0 l/m 10,3 km/h (2 Bft) O 93 0 min 0,000 mm 0,0 UV-I 0 W/m 4,4 C 5,4 C 14,5 km/h (3 Bft) 100,00 %
31.10.2015 23:46 8,2 C 77 % 1031,1 hPa 0,0 l/m 11,0 km/h (2 Bft) O 80 0 min 0,000 mm 0,0 UV-I 0 W/m 4,4 C 5,0 C 17,7 km/h (3 Bft) 100,00 %
31.10.2015 23:47 8,2 C 77 % 1031,1 hPa 0,0 l/m 8,1 km/h (2 Bft) O 84 0 min 0,000 mm 0,0 UV-I 0 W/m 4,4 C 6,9 C 11,3 km/h (2 Bft) 100,00 %
31.10.2015 23:48 8,2 C 76 % 1031,1 hPa 0,0 l/m 9,8 km/h (2 Bft) O 90 0 min 0,000 mm 0,0 UV-I 0 W/m 4,2 C 5,7 C 16,1 km/h (3 Bft) 97,37 %
31.10.2015 23:49 8,2 C 77 % 1031,0 hPa 0,0 l/m 10,6 km/h (2 Bft) O 83 0 min 0,000 mm 0,0 UV-I 0 W/m 4,4 C 5,2 C 14,5 km/h (3 Bft) 100,00 %
31.10.2015 23:50 8,2 C 77 % 1031,1 hPa 0,0 l/m 10,0 km/h (2 Bft) O-NO 74 0 min 0,000 mm 0,0 UV-I 0 W/m 4,4 C 5,6 C 14,5 km/h (3 Bft) 95,83 %
31.10.2015 23:51 8,2 C 77 % 1031,0 hPa 0,0 l/m 11,3 km/h (2 Bft) O 83 0 min 0,000 mm 0,0 UV-I 0 W/m 4,4 C 4,8 C 17,7 km/h (3 Bft) 100,00 %
31.10.2015 23:52 8,2 C 76 % 1031,1 hPa 0,0 l/m 9,9 km/h (2 Bft) O-SO 108 0 min 0,000 mm 0,0 UV-I 0 W/m 4,2 C 5,7 C 16,1 km/h (3 Bft) 100,00 %
31.10.2015 23:53 8,2 C 77 % 1031,1 hPa 0,0 l/m 11,3 km/h (2 Bft) NO 35 0 min 0,000 mm 0,0 UV-I 0 W/m 4,4 C 4,8 C 20,9 km/h (4 Bft) 100,00 %
31.10.2015 23:54 8,2 C 76 % 1031,1 hPa 0,0 l/m 10,9 km/h (2 Bft) O-NO 74 0 min 0,000 mm 0,0 UV-I 0 W/m 4,2 C 5,1 C 16,1 km/h (3 Bft) 100,00 %
31.10.2015 23:55 8,2 C 77 % 1031,1 hPa 0,0 l/m 8,0 km/h (2 Bft) O-NO 63 0 min 0,000 mm 0,0 UV-I 0 W/m 4,4 C 7,0 C 12,9 km/h (3 Bft) 100,00 %
31.10.2015 23:56 8,2 C 77 % 1031,1 hPa 0,0 l/m 10,0 km/h (2 Bft) O 91 0 min 0,000 mm 0,0 UV-I 0 W/m 4,4 C 5,6 C 16,1 km/h (3 Bft) 96,15 %
31.10.2015 23:57 8,2 C 77 % 1031,0 hPa 0,0 l/m 10,5 km/h (2 Bft) O-NO 77 0 min 0,000 mm 0,0 UV-I 0 W/m 4,4 C 5,3 C 17,7 km/h (3 Bft) 100,00 %
31.10.2015 23:58 8,2 C 76 % 1031,0 hPa 0,0 l/m 12,0 km/h (2 Bft) NO 55 0 min 0,000 mm 0,0 UV-I 0 W/m 4,2 C 4,4 C 16,1 km/h (3 Bft) 100,00 %
31.10.2015 23:59 8,2 C 76 % 1031,0 hPa 0,0 l/m 13,3 km/h (3 Bft) O 100 0 min 0,000 mm 0,0 UV-I 0 W/m 4,2 C 3,8 C 17,7 km/h (3 Bft) 100,00 %
_ Min-Zeit 06:52 15:29 05:24 - 08:14 - - - - - - 23:38 04:45 05:51 22:25
Minimum _ 5,4 C 56 % 1027,6 hPa - 2,1 km/h (1 Bft) - - - - - - 4,2 C 1,3 C 4,8 km/h (1 Bft) 28,57 %
_ Max-Zeit 14:43 05:44 23:40 00:00 19:36 - - 12:49 13:01 11:53 12:00 13:09 14:43 19:31 00:00
Maximum _ 15,3 C 94 % 1031,1 hPa 0,0 l/m 20,8 km/h
O (4 Bft)
- - 4 min 0,279 mm 1,8 UV-I 463 W/m 8,0 C 15,3 C 32,2 km/h
O-NO (5 Bft)
100,00 %
Durchschnitt _ 9,9 C 78 % 1028,9 hPa #0,0 l/m 11,6 km/h (2 Bft) O - #8:22 h #1,981 mm 1,2 UV-I 264 W/m 5,9 C 6,8 C 17,5 km/h (3 Bft) 98,77 %